GEFSCGP_prec_meanprecacc_108.txt.gz
Total_Precipitation_Accumulation
0.00 0.00 0.00 0.00 0.00 0.00 0.00 0.00 0.00 0.00 0.00 0.00 0.00 0.00 0.00 0.00 0.00 0.00 0.00 0.00 0.00 0.00 0.00 0.00 0.00 0.00 0.00 0.00 0.00 0.00 0.00 0.00 0.00 0.00 0.00 0.00 0.00 0.00 0.00 0.00 0.00 0.00 0.00 0.00
0.00 0.00 0.00 0.00 0.00 0.00 0.00 0.00 0.00 0.00 0.00 0.00 0.00 0.00 0.00 0.00 0.00 0.00 0.00 0.00 0.00 0.00 0.00 0.00 0.00 0.00 0.00 0.00 0.00 0.00 0.00 0.00 0.00 0.00 0.00 0.00 0.00 0.00 0.00 0.00 0.00 0.00 0.00 0.00
0.00 0.00 0.00 0.00 0.00 0.00 0.00 0.00 0.00 0.00 0.00 0.00 0.00 0.00 0.00 0.00 0.00 0.00 0.00 0.00 0.00 0.00 0.00 0.00 0.00 0.00 0.00 0.00 0.00 0.00 0.00 0.00 0.00 0.00 0.00 0.00 0.00 0.00 0.00 0.00 0.00 0.00 0.00 0.00
0.00 0.00 0.00 0.00 0.00 0.00 0.00 0.00 0.00 0.00 0.00 0.00 0.00 0.00 0.00 0.00 0.00 0.00 0.00 0.00 0.00 0.00 0.00 0.00 0.00 0.00 0.00 0.00 0.00 0.00 0.00 0.00 0.00 0.00 0.00 0.00 0.00 0.00 0.00 0.00 0.00 0.00 0.00 0.00
0.00 0.00 0.00 0.00 0.00 0.00 0.00 0.00 0.00 0.00 0.00 0.00 0.00 0.00 0.00 0.00 0.00 0.00 0.00 0.00 0.00 0.00 0.00 0.00 0.00 0.00 0.00 0.00 0.00 0.00 0.00 0.00 0.00 0.00 0.00 0.00 0.00 0.00 0.00 0.00 0.00 0.00 0.00 0.00
0.00 0.00 0.00 0.00 0.00 0.00 0.00 0.00 0.00 0.00 0.00 0.00 0.00 0.00 0.00 0.00 0.00 0.00 0.00 0.00 0.00 0.00 0.00 0.00 0.00 0.00 0.00 0.00 0.00 0.00 0.00 0.00 0.00 0.00 0.00 0.00 0.00 0.00 0.00 0.00 0.00 0.00 0.00 0.00
0.00 0.00 0.00 0.00 0.00 0.00 0.00 0.00 0.00 0.00 0.00 0.00 0.00 0.00 0.00 0.00 0.00 0.00 0.00 0.00 0.00 0.00 0.00 0.00 0.00 0.00 0.00 0.00 0.00 0.00 0.00 0.00 0.00 0.00 0.00 0.00 0.00 0.00 0.00 0.00 0.00 0.01 0.01 0.01
0.00 0.00 0.00 0.00 0.00 0.00 0.00 0.00 0.00 0.00 0.00 0.00 0.00 0.00 0.00 0.00 0.00 0.00 0.00 0.00 0.00 0.00 0.00 0.00 0.00 0.00 0.00 0.00 0.00 0.00 0.00 0.00 0.00 0.00 0.00 0.00 0.00 0.00 0.00 0.00 0.00 0.01 0.01 0.01
0.00 0.00 0.00 0.00 0.00 0.00 0.00 0.00 0.00 0.00 0.00 0.00 0.00 0.00 0.00 0.00 0.00 0.00 0.00 0.00 0.00 0.00 0.00 0.00 0.00 0.00 0.00 0.00 0.00 0.00 0.00 0.00 0.00 0.00 0.00 0.00 0.00 0.00 0.00 0.00 0.01 0.01 0.01 0.01
0.00 0.00 0.00 0.00 0.00 0.00 0.00 0.00 0.00 0.00 0.00 0.00 0.00 0.00 0.00 0.00 0.00 0.00 0.00 0.00 0.00 0.00 0.00 0.00 0.00 0.00 0.00 0.00 0.00 0.00 0.00 0.00 0.00 0.00 0.00 0.00 0.00 0.00 0.00 0.00 0.01 0.01 0.01 0.01
0.00 0.00 0.00 0.00 0.00 0.00 0.00 0.00 0.00 0.00 0.00 0.00 0.00 0.00 0.00 0.00 0.00 0.00 0.00 0.00 0.00 0.00 0.00 0.00 0.00 0.00 0.00 0.00 0.00 0.00 0.00 0.00 0.00 0.00 0.00 0.00 0.00 0.00 0.00 0.01 0.01 0.02 0.02 0.02
0.00 0.00 0.00 0.00 0.00 0.00 0.00 0.00 0.00 0.00 0.00 0.00 0.00 0.00 0.00 0.00 0.00 0.00 0.00 0.00 0.00 0.00 0.00 0.00 0.00 0.00 0.00 0.00 0.00 0.00 0.00 0.00 0.00 0.00 0.00 0.00 0.00 0.00 0.01 0.01 0.01 0.02 0.03 0.05
0.00 0.00 0.00 0.00 0.00 0.00 0.00 0.00 0.00 0.00 0.00 0.00 0.00 0.00 0.00 0.00 0.00 0.00 0.00 0.00 0.00 0.00 0.00 0.00 0.00 0.00 0.00 0.00 0.00 0.00 0.00 0.00 0.00 0.00 0.00 0.00 0.00 0.01 0.02 0.02 0.03 0.03 0.05 0.09
0.00 0.00 0.00 0.00 0.00 0.00 0.00 0.00 0.00 0.00 0.00 0.00 0.00 0.00 0.00 0.00 0.00 0.00 0.00 0.00 0.00 0.00 0.00 0.00 0.00 0.00 0.00 0.00 0.00 0.00 0.00 0.00 0.00 0.00 0.00 0.00 0.00 0.01 0.03 0.03 0.03 0.05 0.12 0.19
0.00 0.00 0.00 0.00 0.00 0.00 0.00 0.00 0.00 0.00 0.00 0.00 0.00 0.00 0.00 0.00 0.00 0.00 0.00 0.00 0.00 0.00 0.00 0.00 0.00 0.01 0.01 0.00 0.00 0.00 0.00 0.00 0.00 0.00 0.00 0.00 0.00 0.01 0.01 0.02 0.05 0.08 0.16 0.26
0.00 0.00 0.00 0.00 0.00 0.00 0.00 0.00 0.00 0.00 0.00 0.00 0.00 0.00 0.00 0.00 0.00 0.00 0.00 0.00 0.00 0.00 0.00 0.00 0.00 0.01 0.01 0.00 0.00 0.00 0.00 0.00 0.00 0.00 0.00 0.00 0.00 0.01 0.01 0.02 0.06 0.08 0.11 0.19
0.00 0.00 0.00 0.00 0.00 0.00 0.00 0.00 0.00 0.00 0.00 0.00 0.00 0.00 0.00 0.00 0.00 0.00 0.00 0.01 0.01 0.01 0.01 0.01 0.01 0.01 0.01 0.00 0.00 0.00 0.00 0.00 0.00 0.00 0.00 0.00 0.00 0.01 0.01 0.02 0.03 0.07 0.10 0.12
0.01 0.00 0.00 0.00 0.00 0.01 0.00 0.00 0.00 0.00 0.00 0.00 0.00 0.00 0.00 0.00 0.00 0.00 0.01 0.02 0.02 0.02 0.01 0.01 0.01 0.01 0.00 0.00 0.00 0.00 0.00 0.00 0.00 0.00 0.00 0.00 0.00 0.01 0.01 0.01 0.02 0.04 0.07 0.10
0.01 0.01 0.01 0.01 0.01 0.00 0.00 0.00 0.00 0.00 0.00 0.00 0.00 0.00 0.00 0.00 0.00 0.01 0.03 0.02 0.01 0.01 0.01 0.01 0.01 0.00 0.00 0.00 0.00 0.00 0.00 0.00 0.00 0.00 0.00 0.00 0.00 0.00 0.01 0.01 0.02 0.02 0.04 0.08
0.01 0.01 0.02 0.02 0.01 0.00 0.00 0.00 0.00 0.00 0.00 0.00 0.00 0.00 0.00 0.00 0.03 0.03 0.03 0.01 0.00 0.00 0.00 0.00 0.00 0.00 0.00 0.00 0.00 0.00 0.00 0.00 0.00 0.00 0.00 0.00 0.00 0.00 0.01 0.01 0.01 0.01 0.02 0.04
0.01 0.02 0.03 0.02 0.01 0.00 0.00 0.00 0.00 0.00 0.00 0.00 0.00 0.00 0.00 0.01 0.05 0.04 0.01 0.00 0.00 0.00 0.00 0.00 0.00 0.00 0.00 0.00 0.00 0.00 0.00 0.00 0.00 0.00 0.00 0.00 0.00 0.01 0.01 0.01 0.01 0.02 0.02 0.02
0.00 0.01 0.02 0.01 0.01 0.00 0.00 0.00 0.00 0.00 0.00 0.00 0.00 0.00 0.00 0.01 0.01 0.01 0.00 0.00 0.00 0.00 0.00 0.00 0.00 0.00 0.00 0.00 0.00 0.00 0.00 0.00 0.00 0.00 0.00 0.00 0.00 0.01 0.01 0.01 0.02 0.02 0.02 0.02
0.00 0.00 0.00 0.00 0.00 0.00 0.00 0.00 0.00 0.00 0.00 0.00 0.00 0.00 0.01 0.01 0.00 0.00 0.00 0.00 0.00 0.00 0.00 0.00 0.00 0.00 0.00 0.00 0.00 0.00 0.00 0.00 0.00 0.00 0.00 0.00 0.01 0.01 0.01 0.02 0.02 0.02 0.03 0.05
0.00 0.00 0.00 0.00 0.00 0.00 0.00 0.00 0.00 0.00 0.00 0.00 0.00 0.00 0.01 0.01 0.00 0.00 0.00 0.00 0.00 0.00 0.00 0.00 0.00 0.00 0.00 0.00 0.00 0.00 0.00 0.00 0.00 0.00 0.00 0.01 0.01 0.01 0.02 0.02 0.03 0.04 0.07 0.17
0.01 0.00 0.00 0.00 0.00 0.00 0.00 0.00 0.00 0.00 0.00 0.00 0.00 0.00 0.01 0.00 0.00 0.00 0.00 0.00 0.00 0.00 0.00 0.00 0.00 0.00 0.00 0.00 0.00 0.00 0.00 0.00 0.00 0.00 0.00 0.01 0.01 0.02 0.02 0.02 0.03 0.05 0.08 0.24
0.00 0.00 0.00 0.00 0.00 0.00 0.00 0.00 0.00 0.00 0.00 0.00 0.00 0.01 0.00 0.00 0.00 0.00 0.00 0.00 0.00 0.00 0.00 0.00 0.00 0.00 0.00 0.00 0.00 0.00 0.00 0.00 0.00 0.01 0.01 0.01 0.02 0.03 0.03 0.03 0.03 0.04 0.07 0.12

GEFSCGP_prec_meanprecacc_114.txt.gz
Total_Precipitation_Accumulation
0.00 0.00 0.00 0.00 0.00 0.00 0.00 0.00 0.00 0.00 0.00 0.00 0.00 0.00 0.00 0.00 0.00 0.00 0.00 0.00 0.00 0.00 0.00 0.00 0.00 0.00 0.00 0.00 0.00 0.00 0.00 0.00 0.01 0.01 0.01 0.02 0.01 0.01 0.01 0.01 0.01 0.01 0.01 0.00
0.00 0.00 0.00 0.00 0.00 0.00 0.00 0.00 0.00 0.00 0.00 0.00 0.00 0.00 0.00 0.00 0.00 0.00 0.00 0.00 0.00 0.00 0.00 0.00 0.00 0.00 0.00 0.00 0.00 0.00 0.00 0.00 0.00 0.00 0.01 0.01 0.01 0.00 0.00 0.00 0.00 0.00 0.00 0.00
0.00 0.00 0.00 0.00 0.00 0.00 0.00 0.00 0.00 0.00 0.00 0.00 0.00 0.00 0.00 0.00 0.00 0.00 0.00 0.00 0.00 0.00 0.00 0.00 0.00 0.00 0.00 0.00 0.00 0.00 0.00 0.00 0.00 0.00 0.00 0.00 0.00 0.00 0.00 0.00 0.00 0.00 0.00 0.00
0.00 0.00 0.00 0.00 0.00 0.00 0.00 0.00 0.00 0.00 0.00 0.00 0.00 0.00 0.00 0.00 0.00 0.00 0.00 0.00 0.00 0.00 0.00 0.00 0.00 0.00 0.00 0.00 0.00 0.00 0.00 0.00 0.00 0.00 0.00 0.00 0.01 0.00 0.00 0.00 0.00 0.00 0.00 0.00
0.00 0.00 0.00 0.00 0.00 0.00 0.00 0.00 0.00 0.00 0.00 0.00 0.00 0.00 0.00 0.00 0.00 0.00 0.00 0.00 0.00 0.00 0.00 0.00 0.00 0.00 0.00 0.00 0.00 0.00 0.00 0.00 0.00 0.00 0.00 0.00 0.00 0.00 0.00 0.00 0.00 0.00 0.00 0.00
0.00 0.00 0.00 0.00 0.00 0.00 0.00 0.00 0.00 0.00 0.00 0.00 0.00 0.00 0.00 0.00 0.00 0.00 0.00 0.00 0.00 0.00 0.00 0.00 0.00 0.00 0.00 0.00 0.00 0.00 0.00 0.00 0.00 0.00 0.00 0.00 0.00 0.00 0.00 0.00 0.00 0.00 0.00 0.00
0.00 0.00 0.00 0.00 0.00 0.00 0.00 0.00 0.00 0.00 0.00 0.00 0.00 0.00 0.00 0.00 0.00 0.00 0.00 0.00 0.00 0.00 0.00 0.00 0.00 0.00 0.00 0.00 0.00 0.00 0.00 0.00 0.00 0.00 0.00 0.00 0.00 0.00 0.00 0.00 0.00 0.01 0.01 0.01
0.00 0.00 0.00 0.00 0.00 0.00 0.00 0.00 0.00 0.00 0.00 0.00 0.00 0.00 0.00 0.00 0.00 0.00 0.00 0.00 0.00 0.00 0.00 0.00 0.00 0.00 0.00 0.00 0.00 0.00 0.00 0.00 0.00 0.00 0.00 0.00 0.00 0.00 0.00 0.00 0.01 0.01 0.01 0.01
0.00 0.00 0.00 0.00 0.00 0.00 0.00 0.00 0.00 0.00 0.00 0.00 0.00 0.00 0.00 0.00 0.00 0.00 0.00 0.00 0.00 0.00 0.00 0.00 0.00 0.00 0.00 0.00 0.00 0.00 0.00 0.00 0.00 0.00 0.00 0.00 0.00 0.00 0.00 0.00 0.01 0.01 0.01 0.01
0.00 0.00 0.00 0.00 0.00 0.00 0.00 0.00 0.00 0.00 0.00 0.00 0.00 0.00 0.00 0.00 0.00 0.00 0.00 0.00 0.00 0.00 0.00 0.00 0.00 0.00 0.00 0.00 0.00 0.00 0.00 0.00 0.00 0.00 0.00 0.00 0.00 0.00 0.00 0.00 0.01 0.01 0.01 0.01
0.00 0.00 0.00 0.00 0.00 0.00 0.00 0.00 0.00 0.00 0.00 0.00 0.00 0.00 0.00 0.00 0.00 0.00 0.00 0.00 0.00 0.00 0.00 0.00 0.00 0.00 0.00 0.00 0.00 0.00 0.00 0.00 0.00 0.00 0.00 0.00 0.00 0.00 0.00 0.01 0.01 0.02 0.02 0.02
0.00 0.00 0.01 0.00 0.00 0.00 0.00 0.00 0.00 0.00 0.00 0.00 0.00 0.00 0.00 0.00 0.00 0.00 0.00 0.00 0.00 0.00 0.00 0.00 0.00 0.00 0.00 0.00 0.00 0.00 0.00 0.00 0.00 0.00 0.00 0.00 0.00 0.00 0.01 0.01 0.01 0.02 0.03 0.05
0.00 0.01 0.03 0.02 0.01 0.00 0.00 0.00 0.00 0.00 0.00 0.00 0.00 0.00 0.00 0.00 0.00 0.00 0.00 0.00 0.00 0.00 0.00 0.00 0.00 0.00 0.00 0.00 0.00 0.00 0.00 0.00 0.00 0.00 0.00 0.00 0.00 0.01 0.02 0.02 0.03 0.03 0.05 0.09
0.01 0.01 0.02 0.01 0.00 0.00 0.00 0.00 0.00 0.00 0.00 0.00 0.00 0.00 0.00 0.00 0.00 0.00 0.00 0.00 0.00 0.00 0.00 0.00 0.00 0.00 0.00 0.00 0.00 0.00 0.00 0.00 0.00 0.00 0.00 0.00 0.00 0.01 0.03 0.03 0.03 0.05 0.12 0.19
0.01 0.02 0.01 0.00 0.00 0.00 0.00 0.00 0.00 0.00 0.00 0.00 0.00 0.00 0.00 0.00 0.00 0.00 0.00 0.00 0.00 0.00 0.00 0.00 0.00 0.01 0.01 0.00 0.00 0.00 0.00 0.00 0.00 0.00 0.00 0.00 0.00 0.01 0.01 0.02 0.05 0.08 0.16 0.26
0.03 0.02 0.01 0.00 0.00 0.00 0.00 0.00 0.00 0.00 0.00 0.00 0.00 0.00 0.00 0.00 0.00 0.00 0.00 0.00 0.00 0.00 0.00 0.00 0.00 0.01 0.01 0.00 0.00 0.00 0.00 0.00 0.00 0.00 0.00 0.00 0.00 0.01 0.01 0.02 0.06 0.08 0.11 0.19
0.04 0.03 0.01 0.01 0.00 0.01 0.01 0.00 0.00 0.00 0.00 0.00 0.00 0.00 0.00 0.00 0.00 0.00 0.00 0.01 0.01 0.01 0.01 0.01 0.01 0.01 0.01 0.00 0.00 0.00 0.00 0.00 0.00 0.00 0.00 0.00 0.00 0.01 0.01 0.02 0.03 0.07 0.10 0.12
0.04 0.03 0.03 0.01 0.02 0.04 0.01 0.00 0.00 0.00 0.00 0.00 0.00 0.00 0.00 0.00 0.00 0.00 0.01 0.02 0.02 0.02 0.01 0.01 0.01 0.01 0.00 0.00 0.00 0.00 0.00 0.00 0.00 0.00 0.00 0.00 0.00 0.01 0.01 0.01 0.02 0.04 0.07 0.10
0.04 0.05 0.07 0.05 0.04 0.02 0.00 0.00 0.00 0.00 0.00 0.00 0.00 0.00 0.00 0.00 0.00 0.01 0.03 0.02 0.01 0.01 0.01 0.01 0.01 0.00 0.00 0.00 0.00 0.00 0.00 0.00 0.00 0.00 0.00 0.00 0.00 0.00 0.01 0.01 0.02 0.02 0.04 0.08
0.05 0.06 0.11 0.09 0.05 0.01 0.00 0.00 0.00 0.00 0.00 0.00 0.00 0.00 0.00 0.00 0.03 0.03 0.03 0.01 0.00 0.00 0.00 0.00 0.00 0.00 0.00 0.00 0.00 0.00 0.00 0.00 0.00 0.00 0.00 0.00 0.00 0.00 0.01 0.01 0.02 0.02 0.02 0.04
0.08 0.12 0.14 0.10 0.04 0.00 0.00 0.00 0.00 0.00 0.00 0.00 0.00 0.00 0.00 0.01 0.05 0.04 0.01 0.00 0.00 0.00 0.00 0.00 0.00 0.00 0.00 0.00 0.00 0.00 0.00 0.00 0.00 0.00 0.00 0.00 0.00 0.01 0.01 0.02 0.02 0.02 0.02 0.02
0.05 0.08 0.08 0.06 0.04 0.01 0.00 0.00 0.00 0.00 0.00 0.00 0.00 0.00 0.00 0.01 0.01 0.01 0.00 0.00 0.00 0.00 0.00 0.00 0.00 0.00 0.00 0.00 0.00 0.00 0.00 0.00 0.00 0.00 0.00 0.00 0.00 0.01 0.01 0.02 0.02 0.02 0.02 0.02
0.03 0.04 0.04 0.03 0.01 0.00 0.00 0.00 0.00 0.00 0.00 0.00 0.00 0.00 0.01 0.01 0.00 0.00 0.00 0.00 0.00 0.00 0.00 0.00 0.00 0.00 0.00 0.00 0.00 0.00 0.00 0.00 0.00 0.00 0.00 0.00 0.01 0.01 0.02 0.02 0.02 0.02 0.03 0.05
0.03 0.03 0.02 0.01 0.01 0.00 0.00 0.00 0.00 0.00 0.00 0.00 0.00 0.00 0.01 0.01 0.00 0.00 0.00 0.00 0.00 0.00 0.00 0.00 0.00 0.00 0.00 0.00 0.00 0.00 0.00 0.00 0.00 0.00 0.00 0.01 0.01 0.01 0.02 0.02 0.03 0.04 0.07 0.18
0.02 0.03 0.03 0.02 0.01 0.00 0.00 0.00 0.00 0.00 0.00 0.00 0.00 0.00 0.01 0.00 0.00 0.00 0.00 0.00 0.00 0.00 0.00 0.00 0.00 0.00 0.00 0.00 0.00 0.00 0.00 0.00 0.00 0.00 0.00 0.01 0.01 0.02 0.02 0.02 0.03 0.05 0.08 0.24
0.02 0.03 0.03 0.02 0.01 0.01 0.00 0.00 0.00 0.00 0.00 0.00 0.00 0.01 0.00 0.00 0.00 0.00 0.00 0.00 0.00 0.00 0.00 0.00 0.00 0.00 0.00 0.00 0.00 0.00 0.00 0.00 0.00 0.01 0.01 0.01 0.02 0.03 0.03 0.03 0.03 0.04 0.07 0.12

GEFSCGP_prec_meanprecacc_120.txt.gz
Total_Precipitation_Accumulation
0.00 0.00 0.00 0.00 0.00 0.00 0.00 0.00 0.00 0.00 0.00 0.00 0.00 0.00 0.00 0.00 0.00 0.00 0.00 0.00 0.00 0.00 0.00 0.00 0.00 0.00 0.00 0.00 0.00 0.00 0.00 0.00 0.01 0.01 0.02 0.02 0.02 0.02 0.02 0.01 0.01 0.01 0.01 0.01
0.00 0.00 0.00 0.00 0.00 0.00 0.00 0.00 0.00 0.00 0.00 0.00 0.00 0.00 0.00 0.00 0.00 0.00 0.00 0.00 0.00 0.00 0.00 0.00 0.00 0.00 0.00 0.00 0.00 0.00 0.00 0.00 0.00 0.01 0.01 0.01 0.01 0.01 0.01 0.01 0.01 0.01 0.01 0.00
0.00 0.00 0.00 0.00 0.00 0.00 0.00 0.00 0.00 0.00 0.00 0.00 0.00 0.00 0.00 0.00 0.00 0.00 0.00 0.00 0.00 0.00 0.00 0.00 0.00 0.00 0.00 0.00 0.00 0.00 0.00 0.00 0.00 0.00 0.01 0.01 0.01 0.01 0.01 0.01 0.01 0.00 0.00 0.00
0.00 0.00 0.00 0.00 0.00 0.00 0.00 0.00 0.00 0.00 0.00 0.00 0.00 0.00 0.00 0.00 0.00 0.00 0.00 0.00 0.00 0.00 0.00 0.00 0.00 0.00 0.00 0.00 0.00 0.00 0.00 0.00 0.00 0.00 0.01 0.01 0.01 0.01 0.01 0.00 0.00 0.00 0.00 0.00
0.00 0.00 0.00 0.00 0.00 0.00 0.00 0.00 0.00 0.00 0.00 0.00 0.00 0.00 0.00 0.00 0.00 0.00 0.00 0.00 0.00 0.00 0.00 0.00 0.00 0.00 0.00 0.00 0.00 0.00 0.00 0.00 0.00 0.00 0.00 0.01 0.01 0.00 0.00 0.00 0.00 0.00 0.00 0.00
0.00 0.00 0.00 0.00 0.00 0.00 0.00 0.00 0.00 0.00 0.00 0.00 0.00 0.00 0.00 0.00 0.00 0.00 0.00 0.00 0.00 0.00 0.00 0.00 0.00 0.00 0.00 0.00 0.00 0.00 0.00 0.00 0.00 0.00 0.00 0.00 0.00 0.00 0.00 0.00 0.00 0.00 0.00 0.00
0.00 0.00 0.00 0.00 0.00 0.00 0.00 0.00 0.01 0.01 0.01 0.00 0.00 0.00 0.00 0.00 0.00 0.00 0.00 0.00 0.00 0.00 0.00 0.00 0.00 0.00 0.00 0.00 0.00 0.00 0.00 0.00 0.00 0.00 0.00 0.00 0.00 0.00 0.00 0.00 0.00 0.01 0.01 0.01
0.00 0.00 0.00 0.00 0.00 0.00 0.00 0.00 0.01 0.01 0.00 0.00 0.00 0.00 0.00 0.00 0.00 0.00 0.00 0.00 0.00 0.00 0.00 0.00 0.00 0.00 0.00 0.00 0.00 0.00 0.00 0.00 0.00 0.00 0.00 0.00 0.00 0.00 0.00 0.00 0.01 0.01 0.02 0.01
0.01 0.00 0.00 0.00 0.00 0.00 0.00 0.00 0.00 0.00 0.01 0.00 0.00 0.00 0.00 0.00 0.00 0.00 0.00 0.00 0.00 0.00 0.00 0.00 0.00 0.00 0.00 0.00 0.00 0.00 0.00 0.00 0.00 0.00 0.00 0.00 0.00 0.00 0.00 0.00 0.01 0.01 0.01 0.01
0.01 0.00 0.00 0.00 0.00 0.00 0.00 0.00 0.01 0.02 0.02 0.01 0.00 0.00 0.00 0.00 0.00 0.00 0.00 0.00 0.00 0.00 0.00 0.00 0.00 0.00 0.00 0.00 0.00 0.00 0.00 0.00 0.00 0.00 0.00 0.00 0.00 0.00 0.00 0.01 0.01 0.01 0.01 0.01
0.01 0.01 0.01 0.00 0.00 0.01 0.00 0.01 0.01 0.02 0.01 0.00 0.00 0.00 0.00 0.00 0.00 0.00 0.00 0.00 0.00 0.00 0.00 0.00 0.00 0.00 0.00 0.00 0.00 0.00 0.00 0.00 0.00 0.00 0.00 0.00 0.00 0.00 0.00 0.01 0.01 0.02 0.02 0.02
0.02 0.03 0.03 0.01 0.00 0.00 0.00 0.00 0.01 0.01 0.01 0.00 0.00 0.00 0.00 0.00 0.00 0.00 0.00 0.00 0.00 0.00 0.00 0.00 0.00 0.00 0.00 0.00 0.00 0.00 0.00 0.00 0.00 0.00 0.00 0.00 0.00 0.00 0.01 0.02 0.01 0.02 0.03 0.05
0.04 0.09 0.09 0.07 0.02 0.01 0.01 0.01 0.01 0.01 0.00 0.00 0.00 0.00 0.00 0.00 0.00 0.00 0.00 0.00 0.00 0.00 0.00 0.00 0.00 0.00 0.00 0.00 0.00 0.00 0.00 0.00 0.00 0.00 0.00 0.00 0.00 0.01 0.02 0.02 0.03 0.03 0.05 0.09
0.05 0.08 0.07 0.05 0.02 0.01 0.01 0.00 0.00 0.01 0.01 0.01 0.00 0.00 0.00 0.00 0.00 0.00 0.00 0.00 0.00 0.00 0.00 0.00 0.00 0.00 0.00 0.00 0.00 0.00 0.00 0.00 0.00 0.00 0.00 0.00 0.00 0.01 0.03 0.03 0.03 0.05 0.12 0.19
0.06 0.09 0.04 0.01 0.00 0.00 0.01 0.01 0.00 0.00 0.01 0.00 0.00 0.00 0.00 0.00 0.00 0.00 0.00 0.00 0.00 0.00 0.00 0.00 0.00 0.01 0.01 0.00 0.00 0.00 0.00 0.00 0.00 0.00 0.00 0.00 0.00 0.01 0.01 0.02 0.05 0.08 0.16 0.26
0.08 0.08 0.03 0.01 0.00 0.01 0.01 0.01 0.01 0.01 0.00 0.00 0.00 0.00 0.00 0.00 0.00 0.00 0.00 0.00 0.00 0.00 0.00 0.00 0.00 0.01 0.01 0.00 0.00 0.00 0.00 0.00 0.00 0.00 0.00 0.00 0.00 0.01 0.01 0.02 0.06 0.08 0.11 0.19
0.11 0.09 0.07 0.03 0.01 0.03 0.03 0.01 0.00 0.00 0.00 0.00 0.00 0.00 0.00 0.00 0.00 0.00 0.00 0.01 0.01 0.01 0.01 0.01 0.01 0.01 0.01 0.00 0.00 0.00 0.00 0.00 0.00 0.00 0.00 0.00 0.00 0.01 0.01 0.02 0.03 0.07 0.10 0.12
0.10 0.09 0.11 0.06 0.05 0.12 0.04 0.00 0.00 0.00 0.00 0.00 0.00 0.00 0.00 0.00 0.00 0.00 0.01 0.02 0.02 0.02 0.01 0.01 0.01 0.01 0.00 0.00 0.00 0.00 0.00 0.00 0.00 0.00 0.00 0.00 0.00 0.01 0.01 0.01 0.02 0.04 0.07 0.10
0.06 0.09 0.17 0.14 0.10 0.06 0.01 0.00 0.00 0.00 0.00 0.00 0.00 0.00 0.00 0.00 0.00 0.01 0.03 0.02 0.01 0.01 0.01 0.01 0.01 0.00 0.00 0.00 0.00 0.00 0.00 0.00 0.00 0.00 0.00 0.00 0.00 0.00 0.01 0.01 0.02 0.02 0.04 0.08
0.07 0.11 0.21 0.20 0.13 0.04 0.00 0.00 0.00 0.00 0.00 0.00 0.00 0.00 0.00 0.00 0.03 0.03 0.03 0.01 0.00 0.00 0.00 0.00 0.00 0.00 0.00 0.00 0.00 0.00 0.00 0.00 0.00 0.00 0.00 0.00 0.00 0.00 0.01 0.01 0.02 0.02 0.02 0.04
0.13 0.21 0.26 0.19 0.10 0.02 0.00 0.00 0.00 0.01 0.00 0.00 0.00 0.00 0.00 0.01 0.05 0.04 0.01 0.00 0.00 0.00 0.00 0.00 0.00 0.00 0.00 0.00 0.00 0.00 0.00 0.00 0.00 0.00 0.00 0.00 0.00 0.01 0.01 0.02 0.02 0.02 0.02 0.02
0.11 0.19 0.19 0.14 0.09 0.02 0.01 0.01 0.01 0.01 0.00 0.00 0.00 0.00 0.00 0.01 0.01 0.01 0.00 0.00 0.00 0.00 0.00 0.00 0.00 0.00 0.00 0.00 0.00 0.00 0.00 0.00 0.00 0.00 0.00 0.00 0.00 0.01 0.01 0.02 0.02 0.02 0.02 0.03
0.09 0.13 0.12 0.09 0.04 0.01 0.01 0.01 0.02 0.01 0.01 0.00 0.00 0.00 0.01 0.01 0.00 0.00 0.00 0.00 0.00 0.00 0.00 0.00 0.00 0.00 0.00 0.00 0.00 0.00 0.00 0.00 0.00 0.00 0.00 0.00 0.01 0.01 0.02 0.02 0.02 0.02 0.03 0.05
0.06 0.07 0.08 0.06 0.02 0.01 0.01 0.01 0.01 0.01 0.00 0.00 0.00 0.00 0.01 0.01 0.00 0.00 0.00 0.00 0.00 0.00 0.00 0.00 0.00 0.00 0.00 0.00 0.00 0.00 0.00 0.00 0.00 0.00 0.00 0.01 0.01 0.01 0.02 0.02 0.03 0.04 0.07 0.18
0.06 0.06 0.07 0.05 0.02 0.01 0.01 0.01 0.01 0.01 0.00 0.00 0.00 0.00 0.01 0.00 0.00 0.00 0.00 0.00 0.00 0.00 0.00 0.00 0.00 0.00 0.00 0.00 0.00 0.00 0.00 0.00 0.00 0.00 0.00 0.01 0.01 0.02 0.02 0.02 0.03 0.05 0.08 0.24
0.04 0.05 0.06 0.04 0.02 0.03 0.02 0.01 0.01 0.01 0.01 0.00 0.00 0.01 0.00 0.00 0.00 0.00 0.00 0.00 0.00 0.00 0.00 0.00 0.00 0.00 0.00 0.00 0.00 0.00 0.00 0.00 0.00 0.01 0.01 0.01 0.02 0.03 0.03 0.03 0.03 0.04 0.07 0.12

GEFSCGP_prec_meanprecacc_126.txt.gz
Total_Precipitation_Accumulation
0.01 0.01 0.00 0.00 0.00 0.00 0.00 0.00 0.00 0.00 0.00 0.00 0.00 0.00 0.00 0.00 0.00 0.00 0.00 0.00 0.00 0.00 0.00 0.00 0.00 0.00 0.00 0.00 0.00 0.00 0.00 0.00 0.01 0.01 0.02 0.02 0.02 0.02 0.02 0.01 0.01 0.01 0.01 0.01
0.02 0.01 0.00 0.00 0.00 0.00 0.00 0.00 0.00 0.00 0.00 0.00 0.00 0.00 0.00 0.00 0.00 0.00 0.00 0.00 0.00 0.00 0.00 0.00 0.00 0.00 0.00 0.00 0.00 0.00 0.00 0.00 0.00 0.01 0.01 0.01 0.01 0.01 0.01 0.01 0.01 0.01 0.01 0.01
0.02 0.01 0.00 0.00 0.00 0.00 0.00 0.00 0.00 0.00 0.00 0.00 0.00 0.00 0.00 0.00 0.00 0.00 0.00 0.00 0.00 0.00 0.00 0.00 0.00 0.00 0.00 0.00 0.00 0.00 0.00 0.00 0.00 0.00 0.01 0.01 0.01 0.01 0.01 0.01 0.01 0.01 0.01 0.00
0.01 0.00 0.00 0.00 0.00 0.00 0.00 0.00 0.00 0.00 0.00 0.00 0.00 0.00 0.00 0.00 0.00 0.00 0.00 0.00 0.00 0.00 0.00 0.00 0.00 0.00 0.00 0.00 0.00 0.00 0.00 0.00 0.00 0.00 0.01 0.01 0.01 0.01 0.01 0.00 0.00 0.00 0.00 0.00
0.01 0.00 0.00 0.00 0.00 0.00 0.00 0.00 0.00 0.00 0.00 0.00 0.00 0.00 0.00 0.00 0.00 0.00 0.00 0.00 0.00 0.00 0.00 0.00 0.00 0.00 0.00 0.00 0.00 0.00 0.00 0.00 0.00 0.00 0.00 0.01 0.01 0.00 0.00 0.00 0.00 0.00 0.00 0.00
0.02 0.00 0.00 0.00 0.00 0.00 0.00 0.01 0.01 0.01 0.02 0.02 0.00 0.00 0.00 0.00 0.00 0.00 0.00 0.00 0.00 0.00 0.00 0.00 0.00 0.00 0.00 0.00 0.00 0.00 0.00 0.00 0.00 0.00 0.00 0.00 0.00 0.00 0.00 0.00 0.00 0.00 0.01 0.01
0.03 0.01 0.00 0.00 0.00 0.00 0.01 0.03 0.08 0.09 0.07 0.04 0.00 0.00 0.00 0.00 0.00 0.00 0.00 0.00 0.00 0.00 0.00 0.00 0.00 0.00 0.00 0.00 0.00 0.00 0.00 0.00 0.00 0.00 0.00 0.00 0.00 0.00 0.00 0.00 0.01 0.01 0.01 0.01
0.04 0.02 0.01 0.00 0.00 0.00 0.01 0.02 0.06 0.06 0.02 0.00 0.00 0.00 0.00 0.00 0.00 0.00 0.00 0.00 0.00 0.00 0.00 0.00 0.00 0.00 0.00 0.00 0.00 0.00 0.00 0.00 0.00 0.00 0.00 0.00 0.00 0.00 0.00 0.00 0.01 0.01 0.02 0.01
0.06 0.02 0.01 0.00 0.00 0.00 0.00 0.01 0.01 0.02 0.02 0.01 0.00 0.00 0.00 0.00 0.00 0.00 0.00 0.00 0.00 0.00 0.00 0.00 0.00 0.00 0.00 0.00 0.00 0.00 0.00 0.00 0.00 0.00 0.00 0.00 0.00 0.00 0.00 0.00 0.01 0.01 0.01 0.01
0.10 0.04 0.01 0.01 0.00 0.00 0.01 0.01 0.02 0.06 0.08 0.04 0.01 0.00 0.00 0.00 0.00 0.00 0.00 0.00 0.00 0.00 0.00 0.00 0.00 0.00 0.00 0.00 0.00 0.00 0.00 0.00 0.00 0.00 0.00 0.00 0.00 0.00 0.00 0.01 0.01 0.01 0.01 0.01
0.13 0.10 0.03 0.01 0.02 0.01 0.01 0.02 0.04 0.06 0.04 0.02 0.00 0.00 0.00 0.00 0.00 0.00 0.00 0.00 0.00 0.00 0.00 0.00 0.00 0.00 0.00 0.00 0.00 0.00 0.00 0.00 0.00 0.00 0.00 0.00 0.00 0.00 0.01 0.01 0.01 0.02 0.03 0.02
0.14 0.17 0.10 0.02 0.01 0.01 0.01 0.01 0.02 0.05 0.04 0.01 0.00 0.00 0.00 0.00 0.00 0.00 0.00 0.00 0.00 0.00 0.00 0.00 0.00 0.00 0.00 0.00 0.00 0.00 0.00 0.00 0.00 0.00 0.00 0.00 0.00 0.01 0.01 0.02 0.02 0.02 0.04 0.05
0.23 0.30 0.24 0.13 0.06 0.03 0.04 0.03 0.03 0.02 0.02 0.01 0.01 0.00 0.00 0.00 0.00 0.00 0.00 0.00 0.00 0.00 0.00 0.00 0.00 0.00 0.00 0.00 0.00 0.00 0.00 0.00 0.00 0.00 0.00 0.00 0.00 0.01 0.02 0.03 0.03 0.04 0.06 0.09
0.21 0.29 0.25 0.17 0.07 0.05 0.05 0.04 0.04 0.04 0.06 0.04 0.01 0.00 0.00 0.00 0.00 0.00 0.00 0.00 0.00 0.00 0.00 0.00 0.00 0.00 0.00 0.00 0.00 0.00 0.00 0.00 0.00 0.00 0.00 0.00 0.00 0.02 0.03 0.03 0.04 0.05 0.12 0.20
0.17 0.22 0.14 0.07 0.02 0.02 0.03 0.03 0.03 0.04 0.04 0.03 0.01 0.00 0.00 0.00 0.00 0.00 0.00 0.00 0.00 0.00 0.00 0.00 0.00 0.01 0.01 0.00 0.00 0.00 0.00 0.00 0.00 0.00 0.00 0.00 0.00 0.01 0.02 0.02 0.05 0.09 0.17 0.27
0.21 0.21 0.11 0.06 0.03 0.03 0.03 0.02 0.02 0.03 0.03 0.02 0.00 0.00 0.00 0.00 0.00 0.00 0.00 0.00 0.00 0.00 0.00 0.00 0.00 0.01 0.01 0.00 0.00 0.00 0.00 0.00 0.00 0.00 0.00 0.00 0.00 0.01 0.01 0.02 0.06 0.08 0.12 0.19
0.26 0.22 0.16 0.08 0.03 0.07 0.09 0.02 0.01 0.02 0.02 0.01 0.00 0.00 0.00 0.00 0.00 0.00 0.00 0.01 0.01 0.01 0.01 0.01 0.01 0.01 0.01 0.00 0.00 0.00 0.00 0.00 0.00 0.00 0.00 0.00 0.00 0.01 0.01 0.02 0.04 0.07 0.10 0.12
0.21 0.22 0.21 0.11 0.10 0.22 0.09 0.01 0.01 0.01 0.01 0.00 0.00 0.00 0.00 0.00 0.00 0.00 0.01 0.02 0.02 0.02 0.01 0.01 0.01 0.01 0.00 0.00 0.00 0.00 0.00 0.00 0.00 0.00 0.00 0.00 0.00 0.01 0.01 0.01 0.02 0.04 0.07 0.10
0.11 0.19 0.30 0.22 0.17 0.11 0.02 0.00 0.00 0.01 0.01 0.00 0.00 0.00 0.00 0.00 0.00 0.01 0.03 0.02 0.01 0.01 0.01 0.01 0.01 0.00 0.00 0.00 0.00 0.00 0.00 0.00 0.00 0.00 0.00 0.00 0.00 0.00 0.01 0.01 0.02 0.02 0.04 0.08
0.10 0.18 0.35 0.32 0.21 0.08 0.01 0.00 0.00 0.01 0.01 0.00 0.00 0.00 0.00 0.00 0.03 0.03 0.03 0.01 0.00 0.00 0.00 0.00 0.00 0.00 0.00 0.00 0.00 0.00 0.00 0.00 0.00 0.00 0.00 0.00 0.00 0.00 0.01 0.01 0.02 0.02 0.02 0.04
0.22 0.32 0.41 0.31 0.18 0.05 0.01 0.01 0.01 0.03 0.03 0.01 0.00 0.00 0.00 0.01 0.05 0.04 0.01 0.00 0.00 0.00 0.00 0.00 0.00 0.00 0.00 0.00 0.00 0.00 0.00 0.00 0.00 0.00 0.00 0.00 0.00 0.01 0.01 0.02 0.02 0.02 0.02 0.02
0.21 0.32 0.32 0.25 0.19 0.05 0.01 0.02 0.04 0.06 0.03 0.01 0.01 0.00 0.01 0.01 0.02 0.01 0.00 0.00 0.00 0.00 0.00 0.00 0.00 0.00 0.00 0.00 0.00 0.00 0.00 0.00 0.00 0.00 0.00 0.00 0.00 0.01 0.01 0.02 0.02 0.02 0.02 0.03
0.16 0.25 0.25 0.20 0.11 0.03 0.02 0.03 0.04 0.04 0.03 0.01 0.01 0.00 0.01 0.01 0.00 0.00 0.00 0.00 0.00 0.00 0.00 0.00 0.00 0.00 0.00 0.00 0.00 0.00 0.00 0.00 0.00 0.00 0.00 0.00 0.01 0.01 0.02 0.02 0.02 0.02 0.03 0.05
0.10 0.12 0.16 0.11 0.04 0.02 0.03 0.03 0.02 0.02 0.01 0.01 0.01 0.01 0.01 0.01 0.00 0.00 0.00 0.00 0.00 0.00 0.00 0.00 0.00 0.00 0.00 0.00 0.00 0.00 0.00 0.00 0.00 0.00 0.00 0.01 0.01 0.01 0.02 0.02 0.03 0.04 0.07 0.18
0.08 0.09 0.12 0.09 0.04 0.03 0.02 0.02 0.02 0.02 0.01 0.01 0.01 0.01 0.01 0.01 0.00 0.00 0.00 0.00 0.00 0.00 0.00 0.00 0.00 0.00 0.00 0.00 0.00 0.00 0.00 0.00 0.00 0.00 0.00 0.01 0.01 0.02 0.02 0.02 0.03 0.05 0.08 0.24
0.04 0.07 0.09 0.06 0.04 0.04 0.03 0.02 0.02 0.02 0.02 0.01 0.01 0.01 0.01 0.00 0.00 0.00 0.00 0.00 0.00 0.00 0.00 0.00 0.00 0.00 0.00 0.00 0.00 0.00 0.00 0.00 0.00 0.01 0.01 0.01 0.02 0.03 0.03 0.03 0.03 0.04 0.07 0.12

GEFSCGP_prec_meanprecacc_132.txt.gz
Total_Precipitation_Accumulation
0.04 0.05 0.04 0.02 0.01 0.00 0.00 0.00 0.00 0.00 0.00 0.00 0.00 0.00 0.00 0.00 0.00 0.00 0.00 0.00 0.00 0.00 0.00 0.00 0.00 0.00 0.00 0.00 0.00 0.00 0.00 0.00 0.01 0.02 0.02 0.02 0.02 0.02 0.02 0.01 0.01 0.01 0.01 0.01
0.09 0.06 0.01 0.00 0.00 0.00 0.00 0.00 0.00 0.00 0.00 0.00 0.00 0.00 0.00 0.00 0.00 0.00 0.00 0.00 0.00 0.00 0.00 0.00 0.00 0.00 0.00 0.00 0.00 0.00 0.00 0.00 0.00 0.01 0.01 0.01 0.01 0.01 0.01 0.01 0.01 0.01 0.01 0.01
0.08 0.05 0.01 0.01 0.01 0.01 0.01 0.00 0.00 0.00 0.00 0.00 0.00 0.00 0.00 0.00 0.00 0.00 0.00 0.00 0.00 0.00 0.00 0.00 0.00 0.00 0.00 0.00 0.00 0.00 0.00 0.00 0.00 0.00 0.01 0.01 0.01 0.01 0.01 0.01 0.01 0.01 0.01 0.00
0.05 0.02 0.02 0.02 0.02 0.02 0.01 0.00 0.00 0.00 0.00 0.00 0.00 0.00 0.00 0.00 0.00 0.00 0.00 0.00 0.00 0.00 0.00 0.00 0.00 0.00 0.00 0.00 0.00 0.00 0.00 0.00 0.00 0.00 0.01 0.01 0.01 0.01 0.01 0.01 0.00 0.00 0.01 0.00
0.08 0.03 0.02 0.03 0.03 0.02 0.01 0.01 0.01 0.01 0.01 0.01 0.01 0.00 0.00 0.00 0.00 0.00 0.00 0.00 0.00 0.00 0.00 0.00 0.00 0.00 0.00 0.00 0.00 0.00 0.00 0.00 0.00 0.00 0.00 0.01 0.01 0.00 0.00 0.00 0.00 0.01 0.01 0.01
0.08 0.03 0.02 0.02 0.01 0.01 0.02 0.03 0.04 0.05 0.07 0.11 0.03 0.01 0.00 0.00 0.00 0.00 0.00 0.00 0.00 0.00 0.00 0.00 0.00 0.00 0.00 0.00 0.00 0.00 0.00 0.00 0.00 0.00 0.00 0.01 0.00 0.00 0.00 0.00 0.01 0.01 0.01 0.01
0.13 0.06 0.04 0.03 0.03 0.03 0.06 0.11 0.24 0.27 0.26 0.16 0.02 0.00 0.00 0.00 0.00 0.00 0.00 0.00 0.00 0.00 0.00 0.00 0.00 0.00 0.00 0.00 0.00 0.00 0.00 0.00 0.00 0.00 0.00 0.00 0.00 0.00 0.01 0.01 0.01 0.01 0.01 0.01
0.17 0.09 0.04 0.04 0.03 0.04 0.05 0.09 0.17 0.18 0.09 0.02 0.00 0.00 0.00 0.00 0.00 0.00 0.00 0.00 0.00 0.00 0.00 0.00 0.00 0.00 0.00 0.00 0.00 0.00 0.00 0.00 0.00 0.00 0.00 0.00 0.00 0.00 0.01 0.01 0.01 0.02 0.02 0.02
0.21 0.09 0.03 0.02 0.02 0.02 0.04 0.05 0.04 0.06 0.07 0.03 0.01 0.00 0.00 0.00 0.00 0.00 0.00 0.00 0.00 0.00 0.00 0.00 0.00 0.00 0.00 0.00 0.00 0.00 0.00 0.00 0.00 0.00 0.00 0.00 0.00 0.00 0.00 0.01 0.01 0.02 0.02 0.02
0.29 0.14 0.03 0.02 0.02 0.03 0.03 0.04 0.08 0.17 0.21 0.10 0.03 0.00 0.00 0.00 0.00 0.00 0.00 0.00 0.00 0.00 0.00 0.00 0.00 0.00 0.00 0.00 0.00 0.00 0.00 0.00 0.00 0.00 0.00 0.00 0.00 0.00 0.00 0.01 0.01 0.01 0.02 0.02
0.30 0.24 0.10 0.04 0.05 0.06 0.06 0.08 0.13 0.17 0.12 0.05 0.02 0.00 0.00 0.00 0.00 0.00 0.00 0.00 0.00 0.00 0.00 0.00 0.00 0.00 0.00 0.00 0.00 0.00 0.00 0.00 0.00 0.00 0.00 0.00 0.00 0.00 0.01 0.01 0.01 0.02 0.03 0.03
0.30 0.33 0.21 0.09 0.05 0.04 0.06 0.08 0.10 0.15 0.13 0.04 0.01 0.00 0.00 0.00 0.00 0.00 0.00 0.00 0.00 0.00 0.00 0.00 0.00 0.00 0.00 0.00 0.00 0.00 0.00 0.00 0.00 0.00 0.00 0.00 0.00 0.01 0.02 0.02 0.02 0.02 0.04 0.05
0.42 0.51 0.42 0.25 0.15 0.11 0.14 0.13 0.11 0.09 0.07 0.05 0.02 0.00 0.00 0.00 0.00 0.00 0.00 0.00 0.00 0.00 0.00 0.00 0.00 0.00 0.00 0.00 0.00 0.00 0.00 0.00 0.00 0.00 0.00 0.00 0.00 0.01 0.03 0.03 0.03 0.04 0.06 0.10
0.36 0.47 0.42 0.33 0.22 0.16 0.15 0.13 0.12 0.11 0.12 0.07 0.02 0.00 0.00 0.00 0.00 0.00 0.00 0.00 0.00 0.00 0.00 0.00 0.00 0.00 0.00 0.00 0.00 0.00 0.00 0.00 0.00 0.00 0.00 0.00 0.01 0.02 0.03 0.03 0.04 0.06 0.12 0.20
0.29 0.36 0.23 0.12 0.08 0.09 0.08 0.06 0.07 0.09 0.09 0.06 0.02 0.00 0.00 0.00 0.00 0.00 0.00 0.00 0.00 0.00 0.00 0.00 0.00 0.01 0.01 0.00 0.00 0.00 0.00 0.00 0.00 0.00 0.00 0.00 0.00 0.01 0.02 0.03 0.05 0.09 0.17 0.27
0.33 0.32 0.18 0.08 0.05 0.07 0.07 0.04 0.04 0.05 0.05 0.03 0.01 0.00 0.00 0.00 0.00 0.00 0.00 0.00 0.00 0.00 0.00 0.00 0.00 0.01 0.01 0.00 0.00 0.00 0.00 0.00 0.00 0.00 0.00 0.00 0.00 0.01 0.01 0.03 0.06 0.09 0.12 0.20
0.36 0.32 0.23 0.12 0.06 0.12 0.15 0.05 0.03 0.03 0.03 0.03 0.02 0.00 0.00 0.00 0.00 0.00 0.00 0.01 0.01 0.01 0.01 0.01 0.01 0.01 0.01 0.00 0.00 0.00 0.00 0.00 0.00 0.00 0.00 0.00 0.01 0.01 0.01 0.02 0.04 0.07 0.10 0.13
0.28 0.29 0.29 0.17 0.15 0.32 0.13 0.02 0.02 0.02 0.03 0.03 0.02 0.01 0.00 0.00 0.00 0.00 0.01 0.02 0.02 0.02 0.01 0.01 0.01 0.01 0.00 0.00 0.00 0.00 0.00 0.00 0.00 0.00 0.00 0.00 0.00 0.01 0.01 0.02 0.03 0.05 0.08 0.11
0.15 0.25 0.37 0.28 0.23 0.16 0.03 0.01 0.02 0.03 0.04 0.04 0.02 0.01 0.00 0.00 0.00 0.01 0.03 0.02 0.01 0.01 0.01 0.01 0.01 0.00 0.00 0.00 0.00 0.00 0.00 0.00 0.00 0.00 0.00 0.00 0.00 0.01 0.01 0.02 0.02 0.02 0.05 0.09
0.15 0.24 0.43 0.39 0.27 0.11 0.03 0.02 0.01 0.03 0.05 0.03 0.02 0.01 0.00 0.01 0.03 0.03 0.04 0.01 0.00 0.00 0.00 0.00 0.00 0.00 0.00 0.00 0.00 0.00 0.00 0.00 0.00 0.00 0.00 0.00 0.00 0.00 0.01 0.01 0.02 0.02 0.02 0.04
0.30 0.44 0.52 0.39 0.23 0.06 0.02 0.02 0.02 0.07 0.08 0.03 0.02 0.01 0.01 0.02 0.05 0.05 0.02 0.00 0.00 0.00 0.00 0.00 0.00 0.00 0.00 0.00 0.00 0.00 0.00 0.00 0.00 0.00 0.00 0.00 0.00 0.01 0.01 0.02 0.02 0.02 0.02 0.02
0.29 0.42 0.42 0.33 0.24 0.07 0.03 0.04 0.09 0.11 0.05 0.02 0.02 0.01 0.01 0.02 0.02 0.01 0.00 0.00 0.00 0.00 0.00 0.00 0.00 0.00 0.00 0.00 0.00 0.00 0.00 0.00 0.00 0.00 0.00 0.00 0.00 0.01 0.01 0.02 0.02 0.02 0.02 0.03
0.21 0.31 0.32 0.27 0.15 0.04 0.04 0.07 0.07 0.06 0.04 0.02 0.01 0.01 0.01 0.02 0.01 0.00 0.00 0.00 0.00 0.00 0.00 0.00 0.00 0.00 0.00 0.00 0.00 0.00 0.00 0.00 0.00 0.00 0.00 0.00 0.01 0.01 0.02 0.02 0.03 0.03 0.03 0.06
0.12 0.15 0.19 0.14 0.06 0.03 0.03 0.05 0.04 0.02 0.02 0.02 0.01 0.01 0.02 0.01 0.01 0.01 0.00 0.00 0.00 0.00 0.00 0.00 0.00 0.00 0.00 0.00 0.00 0.00 0.00 0.00 0.00 0.00 0.00 0.01 0.01 0.01 0.02 0.02 0.03 0.04 0.07 0.18
0.10 0.11 0.14 0.11 0.06 0.04 0.03 0.03 0.03 0.02 0.02 0.01 0.01 0.01 0.02 0.01 0.01 0.00 0.00 0.00 0.00 0.00 0.00 0.00 0.00 0.00 0.00 0.00 0.00 0.00 0.00 0.00 0.00 0.00 0.00 0.01 0.01 0.02 0.02 0.03 0.03 0.05 0.08 0.24
0.05 0.08 0.10 0.08 0.05 0.05 0.04 0.03 0.03 0.02 0.02 0.01 0.01 0.01 0.01 0.01 0.01 0.01 0.01 0.00 0.00 0.00 0.00 0.00 0.00 0.00 0.00 0.00 0.00 0.00 0.00 0.00 0.00 0.01 0.01 0.01 0.02 0.03 0.03 0.03 0.03 0.04 0.07 0.12

GEFSCGP_prec_meanprecacc_138.txt.gz
Total_Precipitation_Accumulation
0.12 0.16 0.15 0.09 0.06 0.04 0.01 0.01 0.00 0.00 0.00 0.00 0.00 0.00 0.00 0.00 0.00 0.00 0.00 0.00 0.00 0.00 0.00 0.00 0.00 0.00 0.00 0.00 0.00 0.00 0.00 0.00 0.01 0.02 0.03 0.03 0.03 0.02 0.02 0.02 0.01 0.01 0.01 0.01
0.20 0.16 0.06 0.03 0.03 0.03 0.03 0.02 0.01 0.01 0.00 0.00 0.00 0.00 0.00 0.00 0.00 0.00 0.00 0.00 0.00 0.00 0.00 0.00 0.00 0.00 0.00 0.00 0.00 0.00 0.00 0.00 0.01 0.01 0.01 0.01 0.01 0.01 0.01 0.01 0.01 0.01 0.01 0.01
0.19 0.13 0.04 0.03 0.04 0.05 0.05 0.04 0.02 0.01 0.01 0.01 0.00 0.00 0.00 0.00 0.00 0.00 0.00 0.00 0.00 0.00 0.00 0.00 0.00 0.00 0.00 0.00 0.00 0.00 0.00 0.00 0.00 0.00 0.01 0.01 0.02 0.02 0.02 0.02 0.01 0.01 0.01 0.01
0.14 0.09 0.07 0.07 0.06 0.07 0.06 0.04 0.03 0.02 0.03 0.03 0.01 0.01 0.00 0.00 0.00 0.00 0.00 0.00 0.00 0.00 0.00 0.00 0.00 0.00 0.00 0.00 0.00 0.00 0.00 0.00 0.00 0.00 0.01 0.01 0.01 0.01 0.01 0.01 0.01 0.01 0.01 0.01
0.20 0.09 0.10 0.12 0.07 0.05 0.05 0.03 0.04 0.05 0.05 0.06 0.04 0.03 0.00 0.00 0.00 0.00 0.00 0.00 0.00 0.00 0.00 0.00 0.00 0.00 0.00 0.00 0.00 0.00 0.00 0.00 0.00 0.00 0.00 0.01 0.01 0.00 0.00 0.00 0.00 0.01 0.01 0.01
0.20 0.10 0.10 0.10 0.07 0.06 0.06 0.08 0.10 0.12 0.19 0.29 0.08 0.03 0.01 0.00 0.00 0.00 0.00 0.00 0.00 0.00 0.00 0.00 0.00 0.00 0.00 0.00 0.00 0.00 0.00 0.00 0.00 0.00 0.00 0.01 0.00 0.00 0.00 0.00 0.01 0.01 0.01 0.01
0.25 0.16 0.13 0.11 0.12 0.14 0.18 0.27 0.49 0.56 0.58 0.35 0.04 0.02 0.01 0.00 0.00 0.00 0.00 0.00 0.00 0.00 0.00 0.00 0.00 0.00 0.00 0.00 0.00 0.00 0.00 0.00 0.00 0.00 0.00 0.00 0.00 0.00 0.01 0.01 0.01 0.01 0.02 0.01
0.31 0.21 0.14 0.13 0.14 0.18 0.20 0.24 0.37 0.37 0.22 0.06 0.01 0.01 0.00 0.00 0.00 0.00 0.00 0.00 0.00 0.00 0.00 0.00 0.00 0.00 0.00 0.00 0.00 0.00 0.00 0.00 0.00 0.00 0.00 0.00 0.00 0.00 0.01 0.01 0.01 0.02 0.02 0.02
0.34 0.21 0.11 0.09 0.07 0.10 0.18 0.18 0.13 0.15 0.13 0.07 0.03 0.01 0.00 0.00 0.00 0.00 0.00 0.00 0.00 0.00 0.00 0.00 0.00 0.00 0.00 0.00 0.00 0.00 0.00 0.00 0.00 0.00 0.00 0.00 0.00 0.00 0.00 0.01 0.01 0.02 0.02 0.02
0.46 0.26 0.13 0.11 0.10 0.11 0.14 0.17 0.19 0.33 0.35 0.17 0.06 0.01 0.00 0.00 0.00 0.00 0.00 0.00 0.00 0.00 0.00 0.00 0.00 0.00 0.00 0.00 0.00 0.00 0.00 0.00 0.00 0.00 0.00 0.00 0.00 0.00 0.00 0.01 0.01 0.01 0.02 0.02
0.45 0.40 0.22 0.19 0.23 0.22 0.17 0.23 0.32 0.33 0.23 0.12 0.06 0.01 0.00 0.00 0.00 0.00 0.00 0.00 0.00 0.00 0.00 0.00 0.00 0.00 0.00 0.00 0.00 0.00 0.00 0.00 0.00 0.00 0.00 0.00 0.00 0.00 0.01 0.02 0.02 0.02 0.03 0.03
0.40 0.47 0.34 0.23 0.20 0.20 0.20 0.20 0.26 0.31 0.25 0.09 0.04 0.02 0.00 0.00 0.00 0.00 0.00 0.00 0.00 0.00 0.00 0.00 0.00 0.00 0.00 0.00 0.00 0.00 0.00 0.00 0.00 0.00 0.00 0.00 0.00 0.01 0.02 0.02 0.02 0.02 0.04 0.06
0.53 0.62 0.52 0.38 0.31 0.27 0.34 0.30 0.23 0.19 0.15 0.10 0.05 0.01 0.00 0.00 0.00 0.00 0.00 0.00 0.00 0.00 0.00 0.00 0.00 0.00 0.00 0.00 0.00 0.00 0.00 0.00 0.00 0.00 0.00 0.00 0.01 0.01 0.03 0.03 0.03 0.04 0.06 0.10
0.47 0.57 0.50 0.46 0.40 0.36 0.34 0.28 0.24 0.22 0.23 0.13 0.04 0.01 0.00 0.00 0.00 0.00 0.00 0.00 0.00 0.00 0.00 0.00 0.00 0.00 0.00 0.00 0.00 0.00 0.00 0.00 0.00 0.00 0.00 0.00 0.01 0.02 0.03 0.03 0.04 0.06 0.13 0.21
0.38 0.43 0.27 0.15 0.12 0.16 0.17 0.15 0.14 0.17 0.15 0.09 0.03 0.01 0.00 0.00 0.00 0.00 0.00 0.00 0.00 0.00 0.00 0.00 0.00 0.01 0.01 0.00 0.00 0.00 0.00 0.00 0.00 0.00 0.00 0.00 0.01 0.01 0.02 0.03 0.06 0.09 0.17 0.28
0.41 0.39 0.21 0.10 0.07 0.09 0.10 0.08 0.08 0.08 0.07 0.04 0.02 0.01 0.00 0.00 0.00 0.00 0.00 0.00 0.00 0.00 0.00 0.00 0.00 0.01 0.01 0.00 0.00 0.00 0.00 0.00 0.00 0.00 0.00 0.00 0.01 0.01 0.02 0.03 0.07 0.09 0.13 0.20
0.41 0.38 0.28 0.15 0.07 0.15 0.19 0.09 0.07 0.05 0.05 0.04 0.03 0.02 0.01 0.00 0.00 0.00 0.00 0.01 0.01 0.01 0.01 0.01 0.01 0.01 0.01 0.00 0.00 0.00 0.00 0.00 0.00 0.00 0.00 0.00 0.01 0.01 0.02 0.02 0.04 0.08 0.11 0.14
0.31 0.34 0.35 0.21 0.19 0.37 0.17 0.04 0.05 0.06 0.06 0.05 0.03 0.02 0.01 0.00 0.00 0.00 0.01 0.02 0.02 0.02 0.01 0.01 0.01 0.01 0.00 0.00 0.00 0.00 0.00 0.00 0.00 0.00 0.00 0.00 0.00 0.01 0.01 0.02 0.03 0.05 0.08 0.12
0.18 0.30 0.43 0.34 0.28 0.19 0.05 0.03 0.04 0.08 0.10 0.08 0.04 0.01 0.01 0.00 0.00 0.02 0.03 0.02 0.01 0.01 0.01 0.01 0.01 0.00 0.00 0.00 0.00 0.00 0.00 0.00 0.00 0.00 0.00 0.00 0.00 0.01 0.01 0.02 0.02 0.03 0.05 0.09
0.19 0.30 0.51 0.46 0.31 0.14 0.06 0.03 0.03 0.07 0.12 0.07 0.03 0.02 0.01 0.01 0.04 0.04 0.04 0.01 0.00 0.00 0.00 0.00 0.00 0.00 0.00 0.00 0.00 0.00 0.00 0.00 0.00 0.00 0.00 0.00 0.00 0.01 0.01 0.02 0.02 0.02 0.03 0.05
0.36 0.51 0.59 0.45 0.28 0.08 0.04 0.04 0.05 0.14 0.16 0.07 0.03 0.02 0.01 0.03 0.06 0.05 0.02 0.00 0.00 0.00 0.00 0.00 0.00 0.00 0.00 0.00 0.00 0.00 0.00 0.00 0.00 0.00 0.00 0.00 0.00 0.01 0.01 0.02 0.02 0.02 0.03 0.03
0.35 0.48 0.47 0.38 0.29 0.11 0.05 0.06 0.14 0.17 0.08 0.04 0.03 0.02 0.01 0.02 0.02 0.01 0.01 0.00 0.00 0.00 0.00 0.00 0.00 0.00 0.00 0.00 0.00 0.00 0.00 0.00 0.00 0.00 0.00 0.00 0.01 0.01 0.01 0.02 0.02 0.03 0.03 0.03
0.24 0.37 0.37 0.31 0.19 0.08 0.07 0.09 0.10 0.08 0.05 0.03 0.02 0.01 0.02 0.02 0.01 0.00 0.00 0.00 0.00 0.00 0.00 0.00 0.00 0.00 0.00 0.00 0.00 0.00 0.00 0.00 0.00 0.00 0.00 0.00 0.01 0.01 0.02 0.02 0.03 0.03 0.04 0.06
0.14 0.17 0.23 0.17 0.09 0.07 0.06 0.07 0.05 0.03 0.02 0.02 0.02 0.02 0.02 0.02 0.01 0.01 0.00 0.00 0.00 0.00 0.00 0.00 0.00 0.00 0.00 0.00 0.00 0.00 0.00 0.00 0.00 0.00 0.00 0.01 0.01 0.02 0.02 0.02 0.03 0.04 0.08 0.18
0.10 0.12 0.16 0.14 0.09 0.07 0.05 0.04 0.03 0.02 0.02 0.01 0.01 0.02 0.02 0.01 0.01 0.01 0.00 0.00 0.00 0.00 0.00 0.00 0.00 0.00 0.00 0.00 0.00 0.00 0.00 0.00 0.00 0.00 0.00 0.01 0.01 0.02 0.02 0.03 0.03 0.06 0.09 0.24
0.06 0.10 0.13 0.10 0.07 0.08 0.05 0.03 0.03 0.03 0.02 0.02 0.02 0.02 0.01 0.01 0.01 0.01 0.01 0.00 0.00 0.00 0.00 0.00 0.00 0.00 0.00 0.00 0.00 0.00 0.00 0.00 0.00 0.01 0.01 0.01 0.02 0.03 0.03 0.04 0.03 0.04 0.07 0.12

GEFSCGP_prec_meanprecacc_144.txt.gz
Total_Precipitation_Accumulation
0.17 0.26 0.25 0.15 0.13 0.09 0.05 0.03 0.02 0.01 0.00 0.01 0.01 0.00 0.00 0.00 0.00 0.00 0.00 0.00 0.00 0.00 0.00 0.00 0.00 0.00 0.00 0.00 0.00 0.00 0.00 0.00 0.01 0.02 0.03 0.03 0.03 0.03 0.02 0.02 0.01 0.01 0.01 0.01
0.27 0.25 0.11 0.06 0.06 0.07 0.08 0.08 0.05 0.02 0.01 0.02 0.02 0.01 0.00 0.00 0.00 0.00 0.00 0.00 0.00 0.00 0.00 0.00 0.00 0.00 0.00 0.00 0.00 0.00 0.00 0.00 0.01 0.01 0.01 0.01 0.01 0.01 0.01 0.01 0.01 0.01 0.01 0.01
0.25 0.17 0.06 0.07 0.09 0.11 0.12 0.10 0.07 0.04 0.03 0.03 0.03 0.02 0.00 0.00 0.00 0.00 0.00 0.00 0.00 0.00 0.00 0.00 0.00 0.00 0.00 0.00 0.00 0.00 0.00 0.00 0.00 0.00 0.01 0.01 0.02 0.02 0.02 0.02 0.01 0.01 0.01 0.01
0.18 0.11 0.09 0.12 0.13 0.14 0.14 0.07 0.07 0.07 0.08 0.09 0.06 0.05 0.01 0.00 0.00 0.00 0.00 0.00 0.00 0.00 0.00 0.00 0.00 0.00 0.00 0.00 0.00 0.00 0.00 0.00 0.00 0.00 0.01 0.01 0.01 0.01 0.01 0.01 0.01 0.01 0.01 0.01
0.28 0.12 0.13 0.17 0.12 0.11 0.11 0.06 0.08 0.11 0.15 0.17 0.10 0.09 0.02 0.00 0.00 0.00 0.00 0.00 0.00 0.00 0.00 0.00 0.00 0.00 0.00 0.00 0.00 0.00 0.00 0.00 0.00 0.00 0.00 0.01 0.01 0.00 0.00 0.00 0.01 0.01 0.01 0.01
0.27 0.15 0.15 0.13 0.09 0.10 0.12 0.14 0.19 0.24 0.38 0.53 0.16 0.09 0.04 0.00 0.00 0.00 0.00 0.00 0.00 0.00 0.00 0.00 0.00 0.00 0.00 0.00 0.00 0.00 0.00 0.00 0.00 0.00 0.00 0.01 0.00 0.00 0.00 0.00 0.01 0.01 0.01 0.01
0.30 0.20 0.18 0.14 0.17 0.19 0.28 0.46 0.77 0.86 0.91 0.58 0.09 0.06 0.03 0.00 0.00 0.00 0.00 0.00 0.00 0.00 0.00 0.00 0.00 0.00 0.00 0.00 0.00 0.00 0.00 0.00 0.00 0.00 0.00 0.00 0.00 0.00 0.01 0.01 0.01 0.01 0.02 0.01
0.38 0.26 0.19 0.18 0.20 0.28 0.32 0.43 0.61 0.57 0.35 0.11 0.03 0.04 0.01 0.00 0.00 0.00 0.00 0.00 0.00 0.00 0.00 0.00 0.00 0.00 0.00 0.00 0.00 0.00 0.00 0.00 0.00 0.00 0.00 0.00 0.00 0.00 0.01 0.01 0.01 0.02 0.02 0.02
0.44 0.26 0.14 0.12 0.10 0.17 0.29 0.30 0.24 0.29 0.22 0.11 0.06 0.02 0.00 0.00 0.00 0.00 0.00 0.00 0.00 0.00 0.00 0.00 0.00 0.00 0.00 0.00 0.00 0.00 0.00 0.00 0.00 0.01 0.00 0.00 0.00 0.00 0.00 0.01 0.01 0.02 0.02 0.02
0.55 0.33 0.17 0.15 0.15 0.16 0.23 0.27 0.31 0.51 0.51 0.27 0.11 0.02 0.01 0.00 0.00 0.00 0.00 0.00 0.00 0.00 0.00 0.00 0.00 0.00 0.00 0.00 0.00 0.00 0.00 0.00 0.00 0.00 0.01 0.01 0.00 0.00 0.00 0.01 0.01 0.01 0.02 0.02
0.52 0.48 0.28 0.26 0.33 0.32 0.25 0.36 0.49 0.50 0.35 0.22 0.13 0.04 0.01 0.00 0.00 0.00 0.00 0.00 0.00 0.00 0.00 0.00 0.00 0.00 0.00 0.00 0.00 0.00 0.00 0.00 0.00 0.00 0.00 0.01 0.01 0.00 0.01 0.02 0.02 0.02 0.03 0.03
0.46 0.55 0.41 0.30 0.29 0.28 0.31 0.33 0.40 0.49 0.37 0.15 0.11 0.06 0.01 0.01 0.00 0.00 0.00 0.00 0.00 0.00 0.00 0.00 0.00 0.00 0.00 0.00 0.00 0.00 0.00 0.00 0.00 0.00 0.00 0.00 0.01 0.01 0.02 0.02 0.02 0.03 0.04 0.06
0.63 0.72 0.61 0.47 0.41 0.36 0.47 0.43 0.36 0.31 0.25 0.17 0.12 0.05 0.02 0.01 0.00 0.00 0.00 0.00 0.00 0.00 0.00 0.00 0.00 0.00 0.00 0.00 0.00 0.00 0.00 0.00 0.00 0.00 0.00 0.01 0.01 0.01 0.03 0.03 0.04 0.04 0.06 0.10
0.56 0.65 0.58 0.57 0.54 0.47 0.46 0.40 0.34 0.33 0.36 0.22 0.09 0.05 0.04 0.03 0.02 0.01 0.01 0.00 0.00 0.00 0.00 0.00 0.00 0.00 0.00 0.00 0.00 0.00 0.00 0.00 0.00 0.00 0.00 0.00 0.01 0.02 0.03 0.03 0.04 0.06 0.13 0.21
0.42 0.47 0.29 0.17 0.14 0.20 0.23 0.22 0.22 0.26 0.24 0.16 0.08 0.05 0.05 0.04 0.03 0.02 0.02 0.01 0.00 0.00 0.00 0.00 0.00 0.01 0.01 0.00 0.00 0.00 0.00 0.00 0.00 0.00 0.00 0.00 0.01 0.01 0.02 0.03 0.06 0.09 0.18 0.28
0.44 0.41 0.22 0.11 0.08 0.11 0.13 0.11 0.13 0.14 0.13 0.09 0.05 0.06 0.05 0.04 0.03 0.02 0.02 0.01 0.01 0.01 0.00 0.00 0.00 0.01 0.01 0.00 0.00 0.00 0.00 0.00 0.00 0.00 0.00 0.00 0.01 0.01 0.02 0.03 0.07 0.10 0.13 0.20
0.45 0.41 0.31 0.16 0.08 0.17 0.22 0.12 0.11 0.10 0.10 0.10 0.09 0.08 0.06 0.05 0.04 0.03 0.02 0.01 0.02 0.01 0.01 0.01 0.01 0.01 0.01 0.00 0.00 0.00 0.00 0.00 0.00 0.00 0.00 0.00 0.01 0.01 0.02 0.02 0.05 0.08 0.11 0.14
0.34 0.37 0.39 0.24 0.22 0.43 0.23 0.07 0.09 0.10 0.12 0.12 0.11 0.08 0.06 0.05 0.05 0.03 0.02 0.03 0.03 0.02 0.02 0.01 0.01 0.01 0.00 0.00 0.00 0.00 0.00 0.00 0.00 0.00 0.00 0.00 0.01 0.01 0.02 0.02 0.03 0.05 0.09 0.12
0.20 0.34 0.49 0.39 0.33 0.24 0.10 0.05 0.08 0.14 0.17 0.12 0.09 0.06 0.06 0.05 0.04 0.05 0.05 0.03 0.02 0.02 0.01 0.01 0.01 0.01 0.00 0.00 0.00 0.00 0.00 0.00 0.00 0.00 0.00 0.00 0.00 0.01 0.01 0.02 0.02 0.03 0.05 0.10
0.21 0.35 0.57 0.51 0.37 0.20 0.12 0.05 0.05 0.13 0.22 0.11 0.07 0.05 0.05 0.06 0.10 0.09 0.06 0.02 0.01 0.01 0.00 0.00 0.00 0.00 0.00 0.00 0.00 0.00 0.00 0.00 0.00 0.00 0.00 0.00 0.00 0.01 0.01 0.02 0.02 0.02 0.03 0.05
0.40 0.57 0.66 0.50 0.33 0.13 0.08 0.06 0.08 0.22 0.25 0.11 0.06 0.04 0.04 0.07 0.10 0.07 0.03 0.02 0.01 0.00 0.00 0.00 0.00 0.00 0.00 0.00 0.00 0.00 0.00 0.00 0.00 0.00 0.00 0.00 0.00 0.01 0.01 0.02 0.02 0.03 0.03 0.03
0.39 0.54 0.52 0.43 0.35 0.17 0.08 0.09 0.20 0.25 0.11 0.06 0.04 0.03 0.02 0.03 0.03 0.02 0.01 0.01 0.01 0.01 0.00 0.00 0.00 0.00 0.00 0.00 0.00 0.00 0.00 0.00 0.00 0.00 0.00 0.00 0.01 0.01 0.01 0.02 0.03 0.03 0.03 0.04
0.27 0.41 0.42 0.35 0.24 0.13 0.10 0.13 0.13 0.10 0.07 0.04 0.03 0.02 0.02 0.02 0.01 0.01 0.01 0.01 0.01 0.00 0.00 0.00 0.00 0.00 0.00 0.00 0.00 0.00 0.00 0.00 0.00 0.00 0.00 0.00 0.01 0.01 0.02 0.02 0.03 0.03 0.04 0.07
0.15 0.19 0.25 0.19 0.11 0.09 0.09 0.09 0.07 0.04 0.03 0.03 0.02 0.02 0.03 0.02 0.01 0.01 0.00 0.01 0.01 0.01 0.00 0.00 0.00 0.00 0.00 0.00 0.00 0.00 0.00 0.00 0.00 0.00 0.00 0.01 0.01 0.02 0.02 0.03 0.03 0.04 0.08 0.18
0.11 0.14 0.18 0.16 0.10 0.08 0.06 0.06 0.05 0.03 0.02 0.02 0.02 0.02 0.02 0.02 0.01 0.01 0.00 0.00 0.00 0.01 0.00 0.00 0.00 0.00 0.00 0.00 0.00 0.00 0.00 0.00 0.00 0.00 0.00 0.01 0.01 0.02 0.03 0.03 0.03 0.06 0.09 0.24
0.07 0.11 0.14 0.12 0.08 0.09 0.06 0.04 0.04 0.04 0.02 0.02 0.02 0.02 0.01 0.01 0.01 0.01 0.01 0.01 0.00 0.00 0.00 0.00 0.00 0.00 0.00 0.00 0.00 0.00 0.00 0.00 0.01 0.01 0.01 0.02 0.02 0.03 0.03 0.04 0.04 0.05 0.07 0.13

GEFSCGP_prec_meanprecacc_150.txt.gz
Total_Precipitation_Accumulation
0.22 0.36 0.34 0.21 0.19 0.15 0.11 0.10 0.07 0.03 0.02 0.05 0.04 0.02 0.01 0.00 0.00 0.00 0.00 0.00 0.00 0.00 0.00 0.00 0.00 0.00 0.01 0.01 0.02 0.02 0.02 0.03 0.04 0.04 0.05 0.04 0.04 0.03 0.02 0.02 0.01 0.01 0.01 0.01
0.32 0.32 0.16 0.10 0.11 0.13 0.15 0.16 0.12 0.06 0.03 0.07 0.06 0.03 0.01 0.01 0.01 0.00 0.00 0.00 0.00 0.00 0.00 0.00 0.00 0.00 0.00 0.01 0.01 0.02 0.02 0.02 0.02 0.02 0.02 0.02 0.02 0.02 0.02 0.01 0.01 0.01 0.01 0.01
0.29 0.19 0.09 0.12 0.17 0.21 0.20 0.18 0.13 0.09 0.06 0.09 0.10 0.07 0.01 0.01 0.01 0.00 0.00 0.00 0.00 0.00 0.00 0.00 0.00 0.00 0.00 0.01 0.01 0.01 0.02 0.02 0.01 0.01 0.02 0.03 0.03 0.03 0.03 0.02 0.01 0.01 0.01 0.01
0.21 0.12 0.12 0.18 0.21 0.25 0.24 0.11 0.11 0.13 0.19 0.20 0.15 0.15 0.03 0.00 0.00 0.00 0.00 0.00 0.00 0.00 0.00 0.00 0.00 0.00 0.00 0.00 0.00 0.01 0.01 0.02 0.02 0.02 0.02 0.02 0.02 0.02 0.01 0.01 0.01 0.01 0.01 0.01
0.32 0.15 0.17 0.22 0.15 0.17 0.18 0.11 0.13 0.18 0.27 0.33 0.21 0.23 0.06 0.00 0.00 0.00 0.00 0.00 0.00 0.00 0.00 0.00 0.00 0.00 0.00 0.00 0.00 0.01 0.01 0.02 0.02 0.02 0.02 0.01 0.01 0.00 0.00 0.00 0.01 0.01 0.01 0.01
0.28 0.17 0.19 0.18 0.12 0.13 0.16 0.20 0.28 0.33 0.53 0.75 0.26 0.20 0.09 0.01 0.00 0.00 0.00 0.00 0.00 0.00 0.00 0.00 0.00 0.00 0.01 0.01 0.00 0.01 0.01 0.02 0.02 0.02 0.02 0.01 0.01 0.00 0.00 0.00 0.01 0.01 0.01 0.01
0.31 0.21 0.20 0.17 0.21 0.22 0.33 0.57 0.93 1.03 1.13 0.74 0.13 0.13 0.08 0.01 0.00 0.00 0.00 0.00 0.00 0.00 0.00 0.00 0.00 0.00 0.00 0.01 0.01 0.01 0.02 0.02 0.02 0.03 0.02 0.01 0.01 0.01 0.01 0.01 0.01 0.01 0.02 0.01
0.41 0.28 0.23 0.21 0.24 0.32 0.37 0.53 0.76 0.70 0.44 0.14 0.05 0.08 0.03 0.00 0.00 0.00 0.00 0.00 0.00 0.00 0.00 0.00 0.00 0.00 0.00 0.01 0.01 0.02 0.02 0.02 0.02 0.02 0.02 0.02 0.01 0.01 0.01 0.01 0.01 0.02 0.02 0.02
0.48 0.29 0.16 0.14 0.13 0.21 0.35 0.36 0.31 0.43 0.32 0.16 0.08 0.03 0.01 0.00 0.00 0.00 0.00 0.00 0.00 0.00 0.00 0.00 0.00 0.00 0.00 0.00 0.01 0.01 0.02 0.02 0.02 0.02 0.02 0.02 0.02 0.01 0.01 0.01 0.01 0.02 0.02 0.02
0.61 0.37 0.18 0.16 0.18 0.21 0.29 0.35 0.38 0.63 0.63 0.35 0.14 0.04 0.03 0.01 0.01 0.00 0.00 0.00 0.00 0.00 0.00 0.00 0.00 0.00 0.00 0.00 0.00 0.00 0.01 0.01 0.01 0.02 0.02 0.02 0.02 0.02 0.01 0.01 0.01 0.01 0.02 0.02
0.58 0.54 0.31 0.28 0.38 0.42 0.36 0.46 0.59 0.61 0.44 0.30 0.19 0.08 0.05 0.03 0.02 0.01 0.01 0.00 0.00 0.00 0.00 0.00 0.00 0.00 0.00 0.00 0.01 0.01 0.01 0.01 0.01 0.01 0.02 0.02 0.02 0.02 0.02 0.02 0.02 0.02 0.03 0.03
0.49 0.59 0.45 0.32 0.32 0.34 0.41 0.45 0.52 0.61 0.47 0.21 0.17 0.11 0.05 0.03 0.02 0.02 0.01 0.01 0.00 0.00 0.00 0.00 0.00 0.00 0.00 0.00 0.01 0.01 0.01 0.02 0.01 0.01 0.01 0.01 0.01 0.02 0.03 0.03 0.03 0.03 0.04 0.06
0.68 0.78 0.66 0.51 0.47 0.40 0.53 0.51 0.46 0.41 0.33 0.25 0.19 0.11 0.06 0.04 0.03 0.03 0.02 0.01 0.00 0.00 0.00 0.01 0.01 0.00 0.00 0.01 0.01 0.01 0.01 0.01 0.01 0.02 0.02 0.02 0.01 0.02 0.04 0.04 0.04 0.05 0.07 0.10
0.61 0.71 0.62 0.62 0.58 0.52 0.51 0.45 0.39 0.41 0.44 0.27 0.13 0.08 0.08 0.06 0.05 0.05 0.03 0.02 0.01 0.01 0.00 0.01 0.01 0.01 0.01 0.01 0.00 0.01 0.01 0.01 0.02 0.02 0.02 0.02 0.02 0.03 0.04 0.04 0.05 0.07 0.13 0.21
0.45 0.49 0.30 0.18 0.15 0.22 0.27 0.26 0.27 0.31 0.30 0.21 0.12 0.09 0.11 0.09 0.07 0.07 0.06 0.04 0.02 0.01 0.01 0.01 0.01 0.01 0.01 0.01 0.00 0.01 0.01 0.01 0.01 0.01 0.02 0.02 0.02 0.03 0.03 0.04 0.07 0.10 0.18 0.28
0.45 0.43 0.23 0.11 0.08 0.12 0.15 0.14 0.16 0.17 0.17 0.14 0.10 0.12 0.11 0.11 0.08 0.07 0.07 0.07 0.05 0.03 0.01 0.01 0.01 0.01 0.01 0.01 0.01 0.01 0.01 0.00 0.01 0.01 0.01 0.02 0.02 0.03 0.03 0.05 0.09 0.11 0.14 0.21
0.46 0.43 0.33 0.17 0.09 0.19 0.27 0.18 0.16 0.15 0.15 0.15 0.15 0.15 0.11 0.11 0.10 0.09 0.08 0.08 0.08 0.06 0.04 0.02 0.02 0.02 0.01 0.01 0.00 0.00 0.00 0.00 0.01 0.01 0.01 0.01 0.02 0.02 0.03 0.04 0.06 0.09 0.12 0.15
0.36 0.40 0.42 0.25 0.24 0.48 0.32 0.14 0.14 0.17 0.18 0.17 0.16 0.13 0.11 0.11 0.11 0.10 0.08 0.09 0.09 0.08 0.06 0.04 0.02 0.01 0.01 0.00 0.00 0.00 0.00 0.00 0.00 0.00 0.00 0.01 0.01 0.02 0.02 0.03 0.04 0.06 0.09 0.13
0.21 0.36 0.52 0.42 0.35 0.27 0.15 0.09 0.14 0.22 0.25 0.17 0.13 0.10 0.11 0.10 0.10 0.11 0.10 0.07 0.07 0.08 0.07 0.05 0.03 0.02 0.01 0.00 0.00 0.00 0.00 0.00 0.00 0.00 0.00 0.00 0.00 0.01 0.02 0.02 0.03 0.03 0.06 0.10
0.23 0.36 0.61 0.55 0.41 0.26 0.18 0.08 0.09 0.19 0.30 0.15 0.10 0.08 0.09 0.12 0.15 0.14 0.10 0.06 0.04 0.04 0.05 0.04 0.02 0.02 0.01 0.01 0.00 0.00 0.00 0.00 0.00 0.00 0.00 0.00 0.00 0.01 0.01 0.02 0.02 0.03 0.03 0.05
0.42 0.60 0.70 0.54 0.38 0.18 0.12 0.08 0.11 0.29 0.33 0.14 0.09 0.07 0.08 0.13 0.16 0.11 0.06 0.05 0.03 0.03 0.03 0.03 0.02 0.01 0.01 0.01 0.01 0.00 0.00 0.00 0.00 0.00 0.00 0.00 0.01 0.01 0.01 0.02 0.02 0.03 0.03 0.04
0.40 0.56 0.55 0.46 0.39 0.20 0.11 0.12 0.27 0.31 0.14 0.08 0.06 0.05 0.05 0.07 0.07 0.05 0.04 0.04 0.03 0.03 0.02 0.02 0.02 0.02 0.01 0.01 0.01 0.00 0.00 0.00 0.00 0.00 0.00 0.00 0.01 0.01 0.02 0.02 0.03 0.03 0.04 0.04
0.28 0.43 0.45 0.38 0.28 0.16 0.13 0.17 0.18 0.13 0.09 0.06 0.04 0.03 0.03 0.04 0.05 0.05 0.05 0.04 0.03 0.02 0.02 0.02 0.02 0.02 0.01 0.00 0.01 0.01 0.00 0.00 0.00 0.00 0.00 0.01 0.01 0.02 0.02 0.03 0.03 0.04 0.05 0.07
0.16 0.20 0.26 0.21 0.13 0.12 0.11 0.12 0.10 0.06 0.04 0.04 0.04 0.03 0.04 0.03 0.03 0.04 0.04 0.04 0.03 0.03 0.02 0.01 0.02 0.02 0.01 0.00 0.00 0.00 0.00 0.00 0.00 0.00 0.01 0.01 0.02 0.02 0.03 0.03 0.03 0.05 0.08 0.19
0.12 0.14 0.19 0.17 0.11 0.09 0.07 0.07 0.08 0.06 0.04 0.03 0.02 0.03 0.03 0.02 0.03 0.03 0.03 0.03 0.03 0.03 0.02 0.01 0.01 0.03 0.02 0.01 0.00 0.00 0.00 0.00 0.01 0.01 0.01 0.01 0.02 0.03 0.03 0.03 0.04 0.06 0.09 0.25
0.07 0.12 0.15 0.12 0.08 0.10 0.07 0.05 0.06 0.06 0.05 0.03 0.02 0.02 0.02 0.02 0.02 0.02 0.02 0.02 0.02 0.03 0.03 0.01 0.01 0.01 0.02 0.02 0.01 0.00 0.00 0.01 0.01 0.01 0.02 0.02 0.03 0.03 0.04 0.04 0.04 0.05 0.08 0.13

GEFSCGP_prec_meanprecacc_156.txt.gz
Total_Precipitation_Accumulation
0.25 0.44 0.41 0.24 0.23 0.21 0.16 0.17 0.12 0.05 0.04 0.10 0.10 0.06 0.02 0.01 0.02 0.02 0.01 0.03 0.02 0.00 0.00 0.01 0.04 0.06 0.07 0.07 0.07 0.07 0.09 0.10 0.11 0.10 0.10 0.09 0.07 0.04 0.03 0.02 0.01 0.01 0.01 0.01
0.36 0.38 0.20 0.13 0.14 0.17 0.21 0.24 0.18 0.09 0.06 0.11 0.11 0.05 0.02 0.02 0.02 0.02 0.01 0.03 0.03 0.01 0.00 0.01 0.02 0.06 0.08 0.07 0.07 0.06 0.07 0.08 0.08 0.07 0.05 0.05 0.05 0.04 0.03 0.02 0.01 0.01 0.01 0.01
0.32 0.22 0.12 0.16 0.22 0.27 0.26 0.24 0.18 0.13 0.10 0.14 0.16 0.10 0.02 0.01 0.01 0.02 0.02 0.02 0.03 0.02 0.01 0.01 0.01 0.03 0.05 0.06 0.06 0.05 0.06 0.06 0.07 0.07 0.07 0.07 0.08 0.08 0.06 0.03 0.02 0.01 0.01 0.01
0.23 0.14 0.15 0.21 0.24 0.30 0.30 0.15 0.15 0.17 0.25 0.27 0.22 0.22 0.04 0.00 0.01 0.01 0.01 0.01 0.01 0.02 0.01 0.01 0.01 0.02 0.03 0.03 0.05 0.06 0.06 0.05 0.06 0.08 0.07 0.06 0.06 0.05 0.04 0.02 0.01 0.01 0.01 0.01
0.34 0.16 0.21 0.25 0.17 0.20 0.22 0.16 0.19 0.23 0.35 0.43 0.29 0.31 0.08 0.01 0.01 0.00 0.00 0.00 0.00 0.01 0.01 0.01 0.01 0.02 0.02 0.02 0.03 0.05 0.07 0.07 0.07 0.07 0.07 0.05 0.05 0.03 0.02 0.03 0.02 0.01 0.01 0.01
0.28 0.18 0.22 0.21 0.14 0.15 0.19 0.25 0.33 0.41 0.66 0.88 0.31 0.26 0.11 0.01 0.01 0.01 0.00 0.00 0.00 0.01 0.01 0.01 0.01 0.02 0.02 0.03 0.04 0.04 0.06 0.06 0.06 0.07 0.06 0.05 0.05 0.04 0.03 0.02 0.02 0.02 0.01 0.01
0.32 0.22 0.22 0.21 0.23 0.24 0.37 0.67 1.04 1.14 1.24 0.80 0.14 0.16 0.10 0.01 0.01 0.01 0.01 0.00 0.00 0.00 0.01 0.01 0.01 0.01 0.02 0.04 0.05 0.04 0.06 0.06 0.06 0.06 0.06 0.06 0.05 0.05 0.04 0.03 0.02 0.02 0.02 0.02
0.42 0.30 0.24 0.24 0.29 0.36 0.42 0.62 0.86 0.80 0.51 0.17 0.06 0.10 0.05 0.02 0.01 0.01 0.01 0.00 0.00 0.00 0.00 0.01 0.00 0.00 0.01 0.02 0.04 0.04 0.05 0.06 0.06 0.05 0.06 0.07 0.08 0.07 0.05 0.03 0.03 0.03 0.02 0.02
0.51 0.30 0.16 0.15 0.16 0.26 0.40 0.42 0.37 0.53 0.41 0.21 0.11 0.06 0.03 0.01 0.01 0.01 0.01 0.01 0.01 0.00 0.00 0.01 0.00 0.00 0.00 0.01 0.02 0.03 0.03 0.05 0.06 0.06 0.05 0.06 0.07 0.07 0.06 0.04 0.03 0.03 0.02 0.02
0.64 0.39 0.19 0.17 0.19 0.25 0.35 0.42 0.45 0.72 0.71 0.41 0.18 0.07 0.06 0.04 0.03 0.02 0.02 0.02 0.01 0.01 0.01 0.01 0.01 0.00 0.00 0.01 0.01 0.02 0.02 0.03 0.04 0.05 0.06 0.05 0.06 0.07 0.07 0.07 0.05 0.03 0.03 0.02
0.59 0.56 0.31 0.29 0.39 0.44 0.41 0.53 0.68 0.69 0.51 0.38 0.26 0.15 0.13 0.08 0.05 0.03 0.02 0.01 0.02 0.01 0.01 0.01 0.01 0.01 0.00 0.01 0.01 0.03 0.03 0.03 0.04 0.04 0.05 0.06 0.05 0.06 0.08 0.08 0.06 0.06 0.05 0.04
0.50 0.61 0.46 0.32 0.33 0.36 0.45 0.52 0.60 0.70 0.54 0.26 0.24 0.20 0.13 0.08 0.05 0.04 0.03 0.02 0.01 0.01 0.01 0.01 0.01 0.01 0.01 0.01 0.01 0.02 0.04 0.04 0.03 0.03 0.03 0.04 0.05 0.06 0.08 0.08 0.07 0.07 0.08 0.08
0.70 0.82 0.68 0.52 0.48 0.42 0.56 0.54 0.51 0.48 0.39 0.30 0.25 0.17 0.11 0.07 0.05 0.05 0.04 0.03 0.02 0.01 0.01 0.02 0.02 0.01 0.01 0.01 0.01 0.02 0.03 0.03 0.04 0.05 0.05 0.04 0.04 0.05 0.07 0.08 0.08 0.09 0.11 0.13
0.65 0.75 0.64 0.63 0.60 0.53 0.51 0.46 0.41 0.46 0.50 0.32 0.19 0.13 0.12 0.10 0.09 0.07 0.05 0.03 0.03 0.02 0.01 0.01 0.02 0.02 0.02 0.01 0.01 0.01 0.02 0.03 0.04 0.05 0.07 0.06 0.06 0.06 0.06 0.06 0.08 0.10 0.17 0.25
0.47 0.51 0.30 0.18 0.16 0.23 0.27 0.27 0.28 0.34 0.33 0.25 0.15 0.12 0.15 0.13 0.12 0.11 0.09 0.06 0.04 0.03 0.02 0.02 0.02 0.03 0.03 0.02 0.01 0.01 0.01 0.02 0.03 0.05 0.06 0.07 0.08 0.08 0.08 0.08 0.10 0.13 0.22 0.32
0.46 0.44 0.23 0.12 0.09 0.13 0.16 0.15 0.18 0.19 0.19 0.16 0.12 0.14 0.13 0.13 0.11 0.10 0.10 0.09 0.07 0.05 0.04 0.03 0.03 0.03 0.03 0.03 0.02 0.01 0.01 0.01 0.02 0.04 0.05 0.06 0.08 0.11 0.11 0.12 0.14 0.16 0.18 0.25
0.48 0.44 0.35 0.18 0.09 0.21 0.30 0.21 0.20 0.18 0.18 0.18 0.18 0.18 0.13 0.13 0.12 0.12 0.11 0.10 0.11 0.09 0.06 0.05 0.04 0.04 0.04 0.03 0.02 0.02 0.01 0.01 0.01 0.02 0.04 0.05 0.06 0.08 0.10 0.11 0.13 0.16 0.18 0.20
0.38 0.42 0.45 0.27 0.25 0.50 0.35 0.16 0.17 0.21 0.22 0.20 0.20 0.17 0.14 0.13 0.14 0.12 0.11 0.11 0.12 0.10 0.08 0.06 0.05 0.04 0.03 0.03 0.02 0.02 0.01 0.01 0.01 0.01 0.02 0.03 0.04 0.05 0.07 0.08 0.10 0.11 0.15 0.18
0.22 0.39 0.55 0.44 0.37 0.29 0.17 0.10 0.17 0.26 0.29 0.20 0.16 0.12 0.12 0.12 0.12 0.13 0.11 0.09 0.09 0.10 0.08 0.06 0.05 0.04 0.03 0.03 0.02 0.02 0.01 0.01 0.01 0.01 0.01 0.01 0.02 0.04 0.05 0.06 0.07 0.07 0.10 0.14
0.24 0.38 0.64 0.57 0.44 0.28 0.19 0.08 0.10 0.22 0.34 0.18 0.12 0.10 0.11 0.14 0.17 0.15 0.12 0.07 0.05 0.06 0.06 0.06 0.04 0.03 0.03 0.03 0.02 0.01 0.01 0.01 0.01 0.01 0.01 0.01 0.01 0.02 0.03 0.04 0.05 0.05 0.06 0.08
0.43 0.62 0.72 0.56 0.40 0.19 0.13 0.08 0.12 0.32 0.36 0.16 0.10 0.09 0.10 0.16 0.18 0.13 0.08 0.06 0.04 0.03 0.04 0.04 0.04 0.03 0.03 0.03 0.03 0.02 0.01 0.01 0.01 0.01 0.01 0.01 0.01 0.01 0.02 0.03 0.04 0.05 0.06 0.06
0.41 0.57 0.55 0.47 0.41 0.21 0.11 0.13 0.28 0.33 0.15 0.09 0.07 0.06 0.06 0.08 0.08 0.07 0.06 0.06 0.05 0.04 0.03 0.03 0.03 0.03 0.02 0.03 0.03 0.03 0.02 0.01 0.01 0.01 0.01 0.01 0.01 0.01 0.02 0.03 0.04 0.04 0.05 0.06
0.29 0.44 0.45 0.39 0.28 0.16 0.13 0.18 0.19 0.14 0.10 0.06 0.05 0.04 0.04 0.05 0.06 0.06 0.06 0.05 0.05 0.04 0.03 0.03 0.03 0.03 0.02 0.02 0.02 0.02 0.02 0.01 0.01 0.01 0.01 0.02 0.02 0.02 0.03 0.03 0.04 0.04 0.05 0.08
0.16 0.20 0.27 0.21 0.14 0.12 0.12 0.12 0.10 0.07 0.05 0.04 0.04 0.04 0.04 0.04 0.04 0.05 0.05 0.05 0.05 0.04 0.03 0.02 0.03 0.04 0.03 0.02 0.01 0.02 0.02 0.01 0.01 0.01 0.01 0.02 0.02 0.03 0.03 0.03 0.04 0.05 0.08 0.19
0.12 0.14 0.19 0.17 0.12 0.09 0.07 0.08 0.08 0.07 0.04 0.03 0.03 0.03 0.03 0.03 0.03 0.03 0.04 0.04 0.04 0.04 0.03 0.03 0.02 0.04 0.04 0.03 0.02 0.01 0.01 0.01 0.01 0.01 0.02 0.02 0.03 0.03 0.04 0.04 0.04 0.07 0.09 0.25
0.07 0.12 0.15 0.13 0.09 0.10 0.07 0.05 0.07 0.07 0.06 0.05 0.04 0.03 0.02 0.02 0.02 0.02 0.03 0.03 0.03 0.04 0.04 0.03 0.02 0.02 0.04 0.04 0.03 0.02 0.01 0.01 0.02 0.02 0.03 0.04 0.04 0.04 0.05 0.05 0.05 0.07 0.09 0.14

GEFSCGP_prec_meanprecacc_162.txt.gz
Total_Precipitation_Accumulation
0.28 0.47 0.44 0.28 0.28 0.27 0.22 0.22 0.15 0.06 0.05 0.12 0.11 0.07 0.03 0.02 0.03 0.03 0.03 0.04 0.03 0.02 0.01 0.03 0.08 0.13 0.17 0.20 0.21 0.20 0.22 0.23 0.25 0.25 0.25 0.23 0.19 0.13 0.08 0.06 0.04 0.03 0.02 0.01
0.37 0.40 0.22 0.15 0.17 0.20 0.25 0.28 0.20 0.11 0.06 0.14 0.13 0.06 0.03 0.02 0.03 0.03 0.03 0.04 0.05 0.02 0.02 0.02 0.05 0.12 0.18 0.21 0.21 0.19 0.19 0.21 0.21 0.20 0.19 0.18 0.16 0.13 0.07 0.05 0.04 0.03 0.02 0.01
0.33 0.23 0.14 0.18 0.25 0.31 0.29 0.26 0.20 0.16 0.13 0.17 0.18 0.12 0.02 0.02 0.02 0.03 0.02 0.03 0.04 0.03 0.02 0.02 0.02 0.07 0.14 0.19 0.21 0.18 0.16 0.17 0.19 0.20 0.22 0.21 0.22 0.20 0.13 0.07 0.04 0.02 0.02 0.01
0.24 0.15 0.17 0.23 0.26 0.33 0.32 0.17 0.17 0.20 0.30 0.32 0.26 0.27 0.04 0.01 0.01 0.01 0.02 0.01 0.02 0.03 0.02 0.02 0.02 0.04 0.08 0.12 0.19 0.21 0.16 0.15 0.16 0.20 0.22 0.20 0.19 0.18 0.12 0.06 0.03 0.02 0.02 0.01
0.34 0.17 0.22 0.26 0.18 0.21 0.24 0.17 0.21 0.25 0.39 0.48 0.32 0.35 0.10 0.01 0.02 0.01 0.01 0.01 0.01 0.02 0.03 0.02 0.02 0.03 0.06 0.09 0.15 0.22 0.21 0.17 0.16 0.18 0.20 0.20 0.18 0.15 0.13 0.09 0.05 0.03 0.02 0.02
0.29 0.19 0.24 0.23 0.14 0.16 0.20 0.27 0.35 0.43 0.70 0.92 0.33 0.29 0.13 0.03 0.03 0.03 0.01 0.01 0.01 0.01 0.03 0.02 0.02 0.03 0.06 0.11 0.15 0.20 0.24 0.21 0.18 0.17 0.17 0.18 0.18 0.17 0.15 0.12 0.06 0.04 0.02 0.02
0.32 0.22 0.24 0.22 0.23 0.25 0.39 0.71 1.08 1.18 1.28 0.82 0.16 0.18 0.13 0.04 0.03 0.03 0.03 0.02 0.01 0.01 0.02 0.03 0.02 0.03 0.05 0.10 0.16 0.17 0.21 0.21 0.19 0.17 0.17 0.16 0.16 0.16 0.16 0.13 0.08 0.05 0.03 0.02
0.43 0.30 0.24 0.26 0.30 0.37 0.44 0.67 0.93 0.85 0.54 0.18 0.08 0.12 0.08 0.06 0.04 0.02 0.02 0.02 0.02 0.02 0.02 0.03 0.03 0.03 0.03 0.06 0.12 0.15 0.18 0.18 0.19 0.17 0.15 0.15 0.17 0.16 0.15 0.15 0.12 0.07 0.04 0.03
0.52 0.30 0.16 0.15 0.17 0.27 0.42 0.45 0.42 0.59 0.44 0.24 0.14 0.09 0.07 0.04 0.03 0.02 0.02 0.02 0.03 0.03 0.02 0.03 0.03 0.03 0.03 0.04 0.09 0.12 0.14 0.15 0.16 0.17 0.15 0.14 0.15 0.16 0.15 0.16 0.17 0.11 0.06 0.04
0.64 0.40 0.19 0.17 0.20 0.26 0.36 0.45 0.48 0.77 0.75 0.45 0.24 0.12 0.12 0.09 0.06 0.04 0.03 0.03 0.04 0.04 0.03 0.03 0.03 0.03 0.03 0.03 0.06 0.10 0.10 0.11 0.13 0.15 0.15 0.13 0.14 0.15 0.15 0.16 0.17 0.16 0.10 0.07
0.60 0.57 0.32 0.29 0.40 0.45 0.42 0.54 0.70 0.72 0.55 0.44 0.33 0.23 0.21 0.16 0.11 0.08 0.05 0.04 0.04 0.04 0.04 0.04 0.04 0.04 0.03 0.03 0.05 0.09 0.10 0.10 0.12 0.13 0.13 0.11 0.12 0.13 0.15 0.16 0.16 0.18 0.17 0.13
0.51 0.62 0.46 0.32 0.34 0.36 0.45 0.52 0.62 0.73 0.57 0.30 0.29 0.25 0.20 0.14 0.11 0.10 0.07 0.04 0.03 0.03 0.04 0.04 0.04 0.04 0.03 0.03 0.03 0.06 0.10 0.10 0.11 0.13 0.12 0.09 0.10 0.13 0.15 0.15 0.15 0.16 0.18 0.19
0.72 0.84 0.69 0.52 0.48 0.42 0.56 0.54 0.52 0.51 0.43 0.33 0.29 0.20 0.14 0.11 0.10 0.10 0.09 0.06 0.04 0.03 0.03 0.03 0.04 0.04 0.04 0.03 0.03 0.03 0.05 0.08 0.10 0.15 0.16 0.12 0.10 0.11 0.14 0.14 0.14 0.17 0.19 0.22
0.70 0.79 0.65 0.64 0.60 0.53 0.52 0.46 0.42 0.49 0.53 0.34 0.21 0.16 0.14 0.13 0.13 0.11 0.10 0.09 0.07 0.05 0.03 0.03 0.04 0.05 0.05 0.04 0.03 0.03 0.04 0.06 0.09 0.13 0.18 0.15 0.12 0.11 0.12 0.12 0.12 0.15 0.23 0.31
0.50 0.53 0.31 0.18 0.16 0.23 0.28 0.27 0.28 0.36 0.36 0.28 0.17 0.14 0.17 0.16 0.17 0.16 0.14 0.11 0.08 0.06 0.04 0.03 0.04 0.05 0.05 0.04 0.03 0.02 0.02 0.04 0.07 0.11 0.16 0.15 0.14 0.14 0.13 0.13 0.15 0.18 0.26 0.36
0.49 0.46 0.24 0.12 0.09 0.13 0.16 0.16 0.19 0.20 0.21 0.18 0.14 0.16 0.15 0.15 0.14 0.14 0.14 0.12 0.11 0.08 0.06 0.04 0.04 0.05 0.05 0.04 0.04 0.03 0.02 0.02 0.04 0.07 0.12 0.12 0.13 0.18 0.18 0.18 0.20 0.21 0.22 0.29
0.50 0.47 0.37 0.19 0.09 0.21 0.31 0.22 0.20 0.19 0.19 0.20 0.21 0.20 0.15 0.14 0.14 0.14 0.13 0.13 0.13 0.11 0.08 0.06 0.05 0.05 0.05 0.04 0.04 0.04 0.03 0.02 0.03 0.04 0.08 0.09 0.10 0.13 0.15 0.18 0.21 0.23 0.24 0.25
0.41 0.44 0.49 0.29 0.26 0.51 0.35 0.16 0.18 0.21 0.22 0.22 0.21 0.18 0.15 0.14 0.15 0.14 0.12 0.13 0.13 0.12 0.10 0.08 0.06 0.04 0.04 0.04 0.03 0.03 0.03 0.03 0.03 0.03 0.05 0.07 0.08 0.09 0.11 0.13 0.15 0.18 0.23 0.26
0.24 0.42 0.59 0.47 0.39 0.29 0.18 0.10 0.17 0.27 0.29 0.21 0.17 0.13 0.13 0.13 0.13 0.14 0.12 0.09 0.10 0.11 0.10 0.08 0.07 0.05 0.04 0.04 0.03 0.03 0.03 0.03 0.03 0.03 0.03 0.05 0.06 0.07 0.08 0.09 0.10 0.12 0.15 0.20
0.25 0.41 0.68 0.60 0.45 0.28 0.19 0.08 0.11 0.23 0.35 0.18 0.12 0.10 0.12 0.14 0.18 0.16 0.12 0.07 0.05 0.06 0.07 0.06 0.05 0.04 0.04 0.04 0.04 0.03 0.03 0.03 0.03 0.03 0.02 0.03 0.05 0.06 0.06 0.06 0.08 0.09 0.10 0.12
0.44 0.65 0.75 0.58 0.41 0.19 0.13 0.08 0.12 0.32 0.37 0.16 0.11 0.09 0.10 0.17 0.20 0.14 0.08 0.07 0.04 0.03 0.04 0.05 0.05 0.04 0.04 0.04 0.05 0.04 0.03 0.03 0.03 0.03 0.02 0.02 0.03 0.04 0.05 0.05 0.07 0.08 0.09 0.10
0.41 0.58 0.56 0.48 0.42 0.22 0.11 0.13 0.28 0.34 0.15 0.09 0.07 0.06 0.07 0.09 0.09 0.08 0.07 0.06 0.05 0.04 0.03 0.04 0.04 0.04 0.03 0.03 0.04 0.05 0.04 0.03 0.03 0.02 0.02 0.02 0.03 0.04 0.05 0.05 0.06 0.07 0.09 0.10
0.29 0.44 0.45 0.39 0.29 0.17 0.13 0.18 0.19 0.15 0.11 0.06 0.05 0.04 0.05 0.06 0.06 0.07 0.07 0.06 0.06 0.04 0.03 0.03 0.04 0.04 0.04 0.03 0.03 0.04 0.05 0.04 0.03 0.03 0.03 0.03 0.04 0.04 0.05 0.06 0.06 0.07 0.08 0.11
0.16 0.20 0.27 0.22 0.14 0.12 0.12 0.12 0.10 0.07 0.06 0.05 0.05 0.05 0.05 0.04 0.05 0.06 0.06 0.05 0.05 0.05 0.03 0.03 0.04 0.05 0.04 0.03 0.02 0.03 0.04 0.04 0.05 0.04 0.03 0.04 0.04 0.05 0.06 0.06 0.06 0.07 0.10 0.21
0.12 0.15 0.20 0.17 0.12 0.09 0.07 0.08 0.09 0.07 0.05 0.04 0.04 0.05 0.05 0.04 0.05 0.05 0.05 0.05 0.05 0.04 0.04 0.03 0.04 0.05 0.05 0.04 0.03 0.02 0.03 0.04 0.06 0.05 0.05 0.05 0.06 0.06 0.07 0.07 0.07 0.09 0.11 0.26
0.07 0.12 0.16 0.13 0.09 0.10 0.07 0.05 0.07 0.08 0.07 0.06 0.06 0.05 0.04 0.04 0.04 0.04 0.04 0.04 0.04 0.04 0.04 0.04 0.03 0.04 0.05 0.05 0.05 0.03 0.03 0.05 0.06 0.07 0.07 0.07 0.07 0.08 0.08 0.08 0.08 0.10 0.12 0.17

GEFSCGP_prec_meanprecacc_168.txt.gz
Total_Precipitation_Accumulation
0.28 0.48 0.45 0.29 0.29 0.28 0.24 0.24 0.17 0.07 0.06 0.14 0.14 0.09 0.05 0.04 0.05 0.05 0.06 0.08 0.07 0.05 0.04 0.06 0.11 0.17 0.22 0.24 0.28 0.32 0.38 0.44 0.52 0.60 0.70 0.60 0.51 0.41 0.34 0.29 0.23 0.17 0.12 0.07
0.38 0.41 0.22 0.15 0.18 0.22 0.26 0.31 0.22 0.12 0.08 0.17 0.16 0.09 0.05 0.04 0.05 0.06 0.06 0.09 0.09 0.05 0.05 0.05 0.08 0.17 0.24 0.27 0.29 0.32 0.37 0.41 0.46 0.50 0.55 0.59 0.47 0.42 0.33 0.28 0.26 0.20 0.15 0.10
0.34 0.24 0.14 0.19 0.26 0.32 0.30 0.28 0.22 0.17 0.14 0.19 0.22 0.14 0.04 0.03 0.04 0.05 0.06 0.07 0.08 0.07 0.06 0.05 0.06 0.12 0.21 0.26 0.29 0.31 0.34 0.38 0.41 0.48 0.54 0.65 0.64 0.54 0.44 0.32 0.26 0.20 0.16 0.13
0.24 0.15 0.17 0.23 0.27 0.34 0.34 0.19 0.19 0.21 0.33 0.34 0.29 0.30 0.06 0.03 0.03 0.04 0.05 0.05 0.06 0.07 0.06 0.05 0.05 0.09 0.15 0.18 0.26 0.33 0.34 0.36 0.39 0.47 0.51 0.55 0.60 0.53 0.38 0.28 0.24 0.22 0.17 0.14
0.35 0.18 0.23 0.27 0.19 0.22 0.25 0.18 0.22 0.26 0.41 0.49 0.34 0.38 0.12 0.04 0.05 0.04 0.04 0.05 0.04 0.06 0.07 0.06 0.05 0.07 0.11 0.15 0.23 0.35 0.41 0.41 0.39 0.41 0.47 0.49 0.54 0.53 0.43 0.33 0.26 0.23 0.20 0.16
0.29 0.19 0.24 0.23 0.15 0.16 0.21 0.27 0.36 0.44 0.72 0.95 0.34 0.31 0.17 0.07 0.09 0.08 0.06 0.05 0.04 0.05 0.07 0.07 0.06 0.06 0.11 0.19 0.25 0.35 0.47 0.45 0.41 0.39 0.41 0.43 0.46 0.56 0.54 0.43 0.32 0.24 0.21 0.19
0.32 0.23 0.24 0.22 0.23 0.25 0.39 0.72 1.11 1.21 1.32 0.84 0.17 0.20 0.18 0.08 0.06 0.08 0.09 0.07 0.05 0.04 0.06 0.06 0.06 0.06 0.09 0.18 0.25 0.33 0.46 0.44 0.40 0.38 0.39 0.38 0.39 0.47 0.55 0.48 0.36 0.29 0.22 0.18
0.43 0.30 0.25 0.26 0.31 0.38 0.44 0.68 0.98 0.90 0.58 0.21 0.09 0.16 0.14 0.08 0.05 0.04 0.05 0.06 0.06 0.05 0.05 0.07 0.07 0.06 0.07 0.12 0.21 0.29 0.44 0.42 0.37 0.36 0.36 0.35 0.41 0.41 0.47 0.50 0.41 0.32 0.24 0.17
0.52 0.31 0.16 0.15 0.18 0.27 0.42 0.45 0.43 0.63 0.47 0.27 0.18 0.13 0.10 0.06 0.04 0.03 0.04 0.05 0.06 0.06 0.05 0.06 0.07 0.07 0.06 0.08 0.16 0.23 0.38 0.41 0.34 0.34 0.34 0.31 0.37 0.40 0.40 0.44 0.43 0.36 0.28 0.22
0.65 0.41 0.19 0.17 0.20 0.26 0.36 0.45 0.49 0.80 0.79 0.49 0.28 0.16 0.16 0.11 0.07 0.05 0.05 0.05 0.06 0.06 0.05 0.05 0.07 0.07 0.06 0.07 0.11 0.19 0.28 0.39 0.34 0.32 0.34 0.31 0.31 0.35 0.37 0.42 0.43 0.39 0.34 0.28
0.60 0.58 0.32 0.29 0.40 0.45 0.42 0.54 0.71 0.74 0.58 0.48 0.38 0.27 0.24 0.17 0.13 0.10 0.07 0.06 0.06 0.06 0.06 0.06 0.07 0.07 0.06 0.06 0.09 0.18 0.25 0.34 0.37 0.33 0.31 0.31 0.30 0.31 0.34 0.36 0.37 0.42 0.42 0.36
0.51 0.65 0.48 0.32 0.34 0.36 0.45 0.53 0.63 0.76 0.58 0.32 0.32 0.30 0.21 0.15 0.13 0.11 0.09 0.06 0.05 0.05 0.06 0.06 0.07 0.08 0.07 0.06 0.07 0.13 0.24 0.31 0.33 0.35 0.33 0.28 0.30 0.30 0.31 0.30 0.29 0.32 0.41 0.43
0.74 0.88 0.72 0.53 0.49 0.42 0.56 0.54 0.53 0.53 0.45 0.36 0.31 0.23 0.15 0.12 0.11 0.11 0.10 0.08 0.06 0.05 0.04 0.05 0.07 0.08 0.08 0.07 0.07 0.09 0.16 0.27 0.31 0.36 0.40 0.32 0.32 0.31 0.29 0.29 0.27 0.29 0.33 0.43
0.74 0.83 0.67 0.64 0.60 0.54 0.52 0.46 0.42 0.50 0.55 0.35 0.22 0.17 0.15 0.14 0.13 0.12 0.12 0.10 0.09 0.06 0.04 0.04 0.06 0.08 0.09 0.07 0.06 0.07 0.10 0.19 0.29 0.33 0.40 0.36 0.32 0.31 0.28 0.26 0.26 0.28 0.36 0.46
0.55 0.58 0.31 0.18 0.16 0.23 0.28 0.27 0.29 0.36 0.37 0.29 0.18 0.15 0.18 0.17 0.18 0.17 0.15 0.13 0.09 0.08 0.05 0.04 0.05 0.08 0.09 0.08 0.06 0.07 0.08 0.12 0.21 0.28 0.34 0.34 0.32 0.33 0.30 0.28 0.28 0.30 0.38 0.48
0.53 0.50 0.25 0.13 0.09 0.13 0.17 0.16 0.19 0.20 0.21 0.19 0.14 0.16 0.15 0.16 0.15 0.15 0.15 0.14 0.12 0.10 0.08 0.05 0.05 0.06 0.08 0.08 0.08 0.07 0.07 0.09 0.14 0.20 0.26 0.29 0.30 0.36 0.36 0.33 0.32 0.31 0.34 0.42
0.54 0.50 0.40 0.20 0.09 0.22 0.32 0.22 0.20 0.19 0.19 0.20 0.21 0.21 0.15 0.15 0.15 0.15 0.14 0.14 0.15 0.13 0.10 0.08 0.06 0.06 0.07 0.07 0.08 0.08 0.07 0.07 0.09 0.12 0.18 0.24 0.25 0.28 0.32 0.32 0.32 0.31 0.33 0.36
0.43 0.48 0.54 0.32 0.28 0.52 0.36 0.16 0.18 0.22 0.23 0.22 0.22 0.18 0.15 0.15 0.16 0.14 0.13 0.14 0.15 0.14 0.11 0.09 0.08 0.06 0.05 0.05 0.06 0.07 0.08 0.07 0.08 0.09 0.11 0.18 0.21 0.22 0.26 0.26 0.25 0.26 0.31 0.36
0.25 0.46 0.66 0.52 0.41 0.30 0.18 0.10 0.17 0.27 0.29 0.21 0.17 0.13 0.13 0.13 0.13 0.14 0.13 0.10 0.10 0.12 0.11 0.09 0.08 0.07 0.05 0.05 0.05 0.06 0.07 0.07 0.06 0.08 0.08 0.12 0.17 0.19 0.21 0.22 0.19 0.19 0.23 0.29
0.27 0.46 0.75 0.65 0.49 0.29 0.19 0.08 0.11 0.23 0.35 0.18 0.12 0.11 0.12 0.15 0.19 0.16 0.12 0.08 0.06 0.07 0.08 0.07 0.06 0.05 0.05 0.05 0.05 0.05 0.06 0.06 0.05 0.07 0.07 0.08 0.13 0.15 0.15 0.16 0.16 0.16 0.16 0.19
0.47 0.70 0.81 0.61 0.45 0.20 0.13 0.08 0.13 0.33 0.37 0.16 0.11 0.09 0.11 0.17 0.21 0.14 0.09 0.08 0.05 0.05 0.05 0.06 0.05 0.05 0.05 0.05 0.06 0.05 0.06 0.06 0.05 0.05 0.06 0.06 0.08 0.12 0.13 0.14 0.14 0.15 0.15 0.15
0.42 0.60 0.59 0.51 0.46 0.23 0.11 0.13 0.28 0.34 0.15 0.09 0.07 0.07 0.07 0.09 0.10 0.08 0.07 0.07 0.06 0.04 0.04 0.05 0.05 0.05 0.04 0.04 0.05 0.06 0.06 0.06 0.05 0.04 0.06 0.06 0.06 0.10 0.12 0.13 0.14 0.14 0.16 0.16
0.29 0.44 0.46 0.40 0.30 0.17 0.13 0.19 0.19 0.15 0.11 0.07 0.06 0.05 0.06 0.06 0.07 0.08 0.08 0.06 0.06 0.05 0.04 0.04 0.05 0.05 0.04 0.03 0.04 0.05 0.06 0.06 0.05 0.05 0.06 0.07 0.07 0.10 0.12 0.13 0.14 0.15 0.16 0.19
0.17 0.21 0.28 0.22 0.14 0.12 0.12 0.12 0.11 0.07 0.07 0.06 0.06 0.06 0.06 0.05 0.05 0.07 0.07 0.08 0.08 0.07 0.05 0.04 0.04 0.05 0.05 0.04 0.03 0.04 0.05 0.06 0.07 0.06 0.07 0.08 0.08 0.09 0.11 0.13 0.14 0.14 0.17 0.27
0.12 0.15 0.20 0.18 0.12 0.09 0.07 0.08 0.09 0.07 0.06 0.05 0.05 0.06 0.06 0.05 0.05 0.05 0.06 0.07 0.07 0.06 0.05 0.04 0.04 0.05 0.05 0.05 0.04 0.03 0.04 0.06 0.08 0.08 0.09 0.09 0.10 0.10 0.11 0.13 0.14 0.16 0.17 0.33
0.07 0.12 0.16 0.13 0.09 0.10 0.07 0.05 0.07 0.08 0.07 0.07 0.07 0.06 0.05 0.05 0.04 0.05 0.06 0.06 0.05 0.06 0.05 0.05 0.04 0.05 0.06 0.06 0.05 0.04 0.04 0.06 0.09 0.10 0.12 0.12 0.11 0.12 0.12 0.13 0.14 0.18 0.19 0.24

GEFSCGP_prec_meanprecacc_174.txt.gz
Total_Precipitation_Accumulation
0.29 0.48 0.46 0.30 0.30 0.28 0.24 0.24 0.17 0.07 0.06 0.15 0.14 0.10 0.07 0.07 0.10 0.10 0.09 0.11 0.10 0.07 0.07 0.08 0.12 0.19 0.25 0.28 0.33 0.38 0.46 0.57 0.70 0.78 0.90 0.89 0.83 0.69 0.63 0.55 0.47 0.40 0.34 0.29
0.39 0.41 0.23 0.16 0.18 0.22 0.27 0.31 0.22 0.12 0.08 0.17 0.16 0.10 0.07 0.07 0.10 0.11 0.10 0.12 0.13 0.08 0.08 0.08 0.10 0.20 0.28 0.31 0.34 0.36 0.45 0.53 0.65 0.71 0.77 0.87 0.83 0.74 0.65 0.60 0.52 0.43 0.37 0.34
0.35 0.25 0.15 0.19 0.26 0.32 0.31 0.29 0.22 0.18 0.15 0.19 0.23 0.16 0.06 0.05 0.07 0.09 0.09 0.10 0.11 0.10 0.10 0.09 0.09 0.15 0.26 0.32 0.35 0.37 0.42 0.48 0.58 0.73 0.84 1.00 1.08 0.97 0.80 0.70 0.60 0.45 0.38 0.35
0.25 0.15 0.18 0.24 0.27 0.34 0.34 0.19 0.19 0.22 0.34 0.36 0.31 0.33 0.08 0.04 0.05 0.06 0.08 0.08 0.08 0.10 0.10 0.08 0.08 0.12 0.19 0.24 0.34 0.42 0.42 0.47 0.56 0.71 0.85 0.95 1.07 1.01 0.78 0.63 0.61 0.53 0.42 0.36
0.35 0.18 0.23 0.28 0.19 0.23 0.25 0.18 0.22 0.27 0.42 0.51 0.35 0.39 0.13 0.05 0.06 0.05 0.06 0.07 0.07 0.09 0.10 0.09 0.09 0.11 0.15 0.22 0.31 0.43 0.50 0.52 0.56 0.65 0.77 0.87 1.00 1.00 0.90 0.78 0.68 0.60 0.52 0.43
0.29 0.19 0.24 0.23 0.15 0.17 0.21 0.27 0.36 0.44 0.73 0.96 0.34 0.33 0.19 0.10 0.12 0.09 0.07 0.08 0.09 0.10 0.11 0.10 0.09 0.11 0.16 0.26 0.32 0.44 0.55 0.56 0.59 0.63 0.71 0.77 0.89 1.03 1.02 0.94 0.83 0.68 0.57 0.48
0.32 0.23 0.24 0.22 0.24 0.25 0.40 0.73 1.12 1.21 1.32 0.85 0.17 0.23 0.21 0.10 0.09 0.11 0.13 0.11 0.10 0.09 0.10 0.10 0.09 0.10 0.15 0.26 0.34 0.43 0.56 0.57 0.58 0.61 0.69 0.72 0.75 0.87 0.99 0.93 0.83 0.74 0.64 0.50
0.43 0.30 0.25 0.26 0.31 0.38 0.44 0.69 0.98 0.90 0.58 0.22 0.11 0.18 0.16 0.09 0.06 0.05 0.07 0.09 0.10 0.09 0.09 0.11 0.11 0.10 0.12 0.18 0.28 0.37 0.54 0.54 0.55 0.57 0.61 0.68 0.74 0.76 0.84 0.89 0.80 0.72 0.65 0.53
0.52 0.31 0.16 0.15 0.18 0.27 0.42 0.46 0.43 0.63 0.47 0.28 0.20 0.15 0.11 0.06 0.04 0.03 0.04 0.06 0.08 0.10 0.09 0.09 0.11 0.11 0.11 0.13 0.22 0.31 0.50 0.53 0.49 0.51 0.54 0.62 0.68 0.74 0.76 0.79 0.77 0.71 0.63 0.57
0.65 0.41 0.19 0.17 0.20 0.26 0.36 0.45 0.49 0.81 0.81 0.50 0.29 0.17 0.17 0.11 0.08 0.06 0.06 0.06 0.08 0.08 0.08 0.08 0.10 0.10 0.10 0.11 0.16 0.25 0.39 0.51 0.48 0.47 0.49 0.57 0.60 0.69 0.73 0.78 0.79 0.72 0.66 0.61
0.61 0.60 0.33 0.29 0.40 0.45 0.42 0.54 0.71 0.75 0.59 0.50 0.39 0.28 0.25 0.18 0.14 0.11 0.08 0.07 0.08 0.08 0.08 0.09 0.10 0.11 0.09 0.10 0.14 0.23 0.32 0.45 0.50 0.49 0.47 0.54 0.57 0.63 0.69 0.66 0.71 0.78 0.74 0.68
0.53 0.68 0.50 0.33 0.34 0.36 0.45 0.53 0.63 0.77 0.59 0.33 0.34 0.31 0.22 0.15 0.13 0.12 0.10 0.07 0.06 0.07 0.08 0.08 0.09 0.11 0.10 0.10 0.11 0.18 0.30 0.41 0.46 0.51 0.51 0.48 0.54 0.61 0.65 0.62 0.58 0.63 0.74 0.75
0.76 0.93 0.76 0.54 0.49 0.42 0.56 0.54 0.53 0.54 0.47 0.38 0.33 0.24 0.16 0.12 0.11 0.11 0.10 0.08 0.07 0.06 0.06 0.08 0.09 0.10 0.11 0.10 0.10 0.13 0.21 0.35 0.45 0.53 0.61 0.52 0.53 0.58 0.59 0.59 0.58 0.56 0.62 0.73
0.78 0.89 0.70 0.65 0.60 0.54 0.52 0.46 0.42 0.51 0.58 0.37 0.22 0.17 0.15 0.14 0.13 0.12 0.12 0.11 0.09 0.07 0.05 0.06 0.08 0.10 0.11 0.09 0.09 0.11 0.16 0.26 0.42 0.52 0.63 0.56 0.51 0.55 0.54 0.52 0.54 0.58 0.61 0.71
0.60 0.65 0.34 0.19 0.16 0.23 0.28 0.27 0.29 0.37 0.38 0.30 0.18 0.15 0.18 0.17 0.18 0.18 0.15 0.13 0.10 0.08 0.06 0.05 0.07 0.10 0.11 0.10 0.08 0.09 0.13 0.19 0.33 0.47 0.60 0.57 0.51 0.53 0.54 0.54 0.54 0.59 0.65 0.71
0.57 0.55 0.28 0.14 0.09 0.13 0.17 0.16 0.19 0.20 0.21 0.19 0.14 0.16 0.15 0.16 0.15 0.15 0.15 0.14 0.13 0.10 0.08 0.06 0.07 0.08 0.09 0.10 0.09 0.09 0.11 0.15 0.23 0.36 0.50 0.52 0.50 0.55 0.58 0.56 0.58 0.59 0.61 0.66
0.58 0.55 0.45 0.23 0.10 0.23 0.33 0.22 0.20 0.19 0.19 0.20 0.21 0.21 0.15 0.15 0.15 0.15 0.15 0.14 0.15 0.14 0.11 0.09 0.08 0.08 0.08 0.08 0.09 0.10 0.11 0.13 0.17 0.26 0.39 0.45 0.45 0.47 0.52 0.53 0.56 0.58 0.59 0.59
0.47 0.54 0.62 0.38 0.30 0.55 0.37 0.16 0.18 0.22 0.23 0.22 0.22 0.18 0.15 0.15 0.16 0.14 0.13 0.14 0.15 0.14 0.12 0.10 0.09 0.07 0.06 0.06 0.07 0.09 0.11 0.12 0.14 0.21 0.31 0.39 0.40 0.41 0.43 0.46 0.46 0.49 0.55 0.59
0.27 0.50 0.74 0.59 0.46 0.32 0.18 0.10 0.17 0.27 0.29 0.21 0.17 0.13 0.13 0.13 0.14 0.14 0.13 0.10 0.11 0.13 0.12 0.10 0.09 0.08 0.06 0.06 0.06 0.07 0.10 0.11 0.12 0.19 0.27 0.31 0.36 0.36 0.37 0.39 0.39 0.39 0.43 0.52
0.27 0.49 0.83 0.73 0.54 0.31 0.20 0.08 0.11 0.23 0.35 0.18 0.12 0.11 0.12 0.15 0.20 0.17 0.12 0.08 0.06 0.08 0.09 0.08 0.06 0.06 0.06 0.06 0.06 0.07 0.10 0.11 0.11 0.16 0.23 0.25 0.29 0.30 0.30 0.31 0.34 0.35 0.34 0.38
0.48 0.74 0.88 0.66 0.50 0.22 0.13 0.08 0.13 0.33 0.37 0.16 0.11 0.10 0.11 0.18 0.21 0.15 0.09 0.08 0.06 0.06 0.06 0.06 0.06 0.06 0.05 0.06 0.06 0.07 0.09 0.12 0.10 0.12 0.18 0.21 0.23 0.25 0.25 0.27 0.27 0.32 0.34 0.33
0.42 0.61 0.61 0.53 0.52 0.25 0.11 0.13 0.29 0.34 0.15 0.09 0.08 0.07 0.08 0.10 0.10 0.08 0.08 0.08 0.07 0.05 0.05 0.05 0.05 0.05 0.05 0.05 0.06 0.07 0.08 0.11 0.10 0.10 0.13 0.18 0.21 0.23 0.22 0.25 0.26 0.28 0.32 0.34
0.30 0.45 0.47 0.41 0.31 0.17 0.14 0.19 0.19 0.15 0.11 0.07 0.06 0.05 0.06 0.07 0.07 0.08 0.08 0.08 0.08 0.06 0.04 0.04 0.05 0.05 0.04 0.04 0.04 0.06 0.08 0.10 0.11 0.11 0.12 0.16 0.20 0.23 0.22 0.23 0.26 0.28 0.30 0.35
0.17 0.21 0.29 0.23 0.14 0.12 0.12 0.12 0.11 0.08 0.07 0.06 0.07 0.07 0.07 0.06 0.06 0.08 0.08 0.09 0.10 0.08 0.05 0.04 0.05 0.06 0.05 0.04 0.03 0.04 0.07 0.10 0.12 0.11 0.13 0.15 0.18 0.21 0.22 0.22 0.24 0.28 0.32 0.42
0.13 0.16 0.21 0.19 0.12 0.09 0.07 0.08 0.09 0.07 0.06 0.05 0.05 0.06 0.07 0.07 0.06 0.07 0.08 0.09 0.09 0.09 0.06 0.05 0.05 0.06 0.06 0.05 0.04 0.04 0.06 0.10 0.11 0.13 0.13 0.15 0.16 0.19 0.19 0.21 0.23 0.28 0.30 0.46
0.08 0.13 0.17 0.14 0.09 0.11 0.08 0.05 0.07 0.09 0.08 0.07 0.07 0.06 0.05 0.06 0.06 0.07 0.08 0.08 0.08 0.08 0.06 0.06 0.05 0.06 0.07 0.06 0.06 0.05 0.07 0.10 0.12 0.14 0.16 0.16 0.17 0.20 0.20 0.20 0.23 0.28 0.30 0.35

GEFSCGP_prec_meanprecacc_180.txt.gz
Total_Precipitation_Accumulation
0.31 0.51 0.48 0.31 0.31 0.29 0.24 0.24 0.17 0.07 0.06 0.15 0.14 0.10 0.08 0.08 0.10 0.11 0.11 0.14 0.14 0.13 0.14 0.14 0.18 0.23 0.28 0.32 0.38 0.47 0.59 0.73 0.86 0.93 1.02 0.97 0.90 0.77 0.74 0.73 0.67 0.60 0.54 0.52
0.40 0.43 0.24 0.16 0.18 0.22 0.27 0.31 0.22 0.12 0.08 0.17 0.16 0.10 0.07 0.08 0.11 0.12 0.13 0.16 0.18 0.14 0.15 0.15 0.16 0.24 0.32 0.35 0.38 0.43 0.55 0.65 0.80 0.88 0.91 0.97 0.91 0.82 0.74 0.74 0.72 0.64 0.56 0.57
0.36 0.26 0.16 0.19 0.26 0.32 0.31 0.29 0.22 0.18 0.15 0.20 0.23 0.16 0.06 0.05 0.07 0.10 0.10 0.13 0.15 0.16 0.16 0.16 0.17 0.22 0.31 0.36 0.39 0.41 0.49 0.55 0.67 0.88 1.02 1.14 1.19 1.06 0.90 0.82 0.76 0.65 0.59 0.54
0.25 0.16 0.19 0.25 0.28 0.35 0.34 0.19 0.19 0.23 0.35 0.37 0.32 0.34 0.08 0.04 0.05 0.06 0.08 0.09 0.10 0.13 0.14 0.14 0.17 0.20 0.25 0.29 0.38 0.47 0.48 0.53 0.63 0.82 1.03 1.13 1.22 1.11 0.87 0.73 0.75 0.71 0.63 0.57
0.35 0.18 0.23 0.28 0.20 0.23 0.26 0.18 0.22 0.28 0.44 0.53 0.37 0.41 0.14 0.05 0.07 0.06 0.06 0.08 0.08 0.12 0.14 0.12 0.14 0.17 0.21 0.28 0.37 0.48 0.54 0.57 0.64 0.76 0.92 1.06 1.18 1.15 1.01 0.88 0.81 0.77 0.73 0.66
0.29 0.19 0.24 0.23 0.15 0.17 0.22 0.28 0.37 0.44 0.74 0.98 0.36 0.34 0.19 0.10 0.12 0.10 0.08 0.08 0.10 0.12 0.14 0.12 0.12 0.15 0.21 0.31 0.38 0.49 0.60 0.61 0.65 0.72 0.84 0.94 1.07 1.21 1.19 1.09 0.98 0.87 0.81 0.75
0.32 0.23 0.24 0.22 0.24 0.25 0.41 0.74 1.12 1.22 1.33 0.86 0.18 0.23 0.21 0.11 0.09 0.11 0.14 0.12 0.11 0.11 0.12 0.12 0.11 0.13 0.18 0.31 0.40 0.50 0.63 0.62 0.65 0.71 0.81 0.87 0.93 1.05 1.17 1.13 1.04 0.96 0.90 0.81
0.43 0.30 0.25 0.26 0.31 0.38 0.44 0.69 0.99 0.91 0.59 0.22 0.11 0.18 0.16 0.09 0.06 0.05 0.08 0.10 0.11 0.11 0.10 0.12 0.12 0.12 0.14 0.21 0.32 0.42 0.59 0.62 0.64 0.68 0.74 0.83 0.90 0.94 1.03 1.09 1.03 0.98 0.91 0.80
0.52 0.31 0.16 0.15 0.18 0.27 0.42 0.46 0.43 0.64 0.48 0.29 0.20 0.15 0.11 0.06 0.04 0.03 0.04 0.06 0.09 0.11 0.10 0.10 0.13 0.13 0.13 0.17 0.27 0.37 0.56 0.61 0.59 0.63 0.68 0.76 0.85 0.92 0.94 0.99 1.01 0.98 0.93 0.87
0.65 0.41 0.19 0.17 0.20 0.26 0.36 0.45 0.49 0.82 0.82 0.51 0.29 0.17 0.17 0.11 0.08 0.06 0.06 0.07 0.08 0.09 0.09 0.09 0.11 0.12 0.13 0.15 0.22 0.32 0.47 0.60 0.60 0.60 0.66 0.72 0.75 0.85 0.90 0.96 1.02 1.00 0.97 0.92
0.61 0.60 0.33 0.29 0.40 0.45 0.42 0.54 0.71 0.75 0.60 0.51 0.40 0.28 0.25 0.18 0.14 0.11 0.08 0.07 0.08 0.09 0.10 0.10 0.11 0.12 0.12 0.14 0.19 0.29 0.40 0.54 0.61 0.62 0.62 0.70 0.74 0.81 0.86 0.86 0.92 1.02 1.05 1.00
0.53 0.69 0.51 0.33 0.34 0.36 0.45 0.53 0.63 0.77 0.61 0.35 0.36 0.32 0.22 0.15 0.13 0.12 0.10 0.07 0.07 0.08 0.09 0.10 0.10 0.11 0.12 0.14 0.17 0.25 0.38 0.51 0.57 0.61 0.63 0.63 0.71 0.80 0.83 0.80 0.78 0.86 0.99 1.05
0.77 0.97 0.79 0.55 0.49 0.42 0.56 0.54 0.53 0.54 0.49 0.40 0.35 0.24 0.16 0.12 0.11 0.11 0.10 0.09 0.07 0.07 0.07 0.09 0.10 0.11 0.12 0.14 0.17 0.21 0.29 0.43 0.53 0.61 0.70 0.63 0.67 0.73 0.74 0.76 0.78 0.76 0.83 1.00
0.82 0.94 0.73 0.66 0.60 0.54 0.53 0.46 0.42 0.52 0.61 0.38 0.23 0.17 0.15 0.14 0.13 0.12 0.12 0.11 0.10 0.08 0.07 0.08 0.10 0.11 0.12 0.12 0.13 0.16 0.22 0.34 0.49 0.61 0.73 0.66 0.64 0.69 0.69 0.69 0.75 0.77 0.81 0.94
0.67 0.72 0.36 0.19 0.16 0.24 0.29 0.28 0.29 0.38 0.39 0.31 0.18 0.15 0.18 0.17 0.18 0.18 0.15 0.13 0.10 0.09 0.07 0.07 0.09 0.11 0.12 0.12 0.11 0.12 0.18 0.25 0.40 0.57 0.72 0.72 0.65 0.66 0.69 0.70 0.75 0.81 0.86 0.92
0.62 0.60 0.30 0.15 0.09 0.13 0.18 0.16 0.19 0.20 0.21 0.19 0.15 0.16 0.15 0.16 0.15 0.15 0.15 0.14 0.13 0.11 0.09 0.07 0.08 0.10 0.11 0.11 0.11 0.12 0.14 0.21 0.31 0.44 0.60 0.69 0.67 0.67 0.71 0.70 0.76 0.82 0.86 0.90
0.63 0.60 0.50 0.26 0.10 0.24 0.35 0.23 0.20 0.19 0.19 0.20 0.21 0.21 0.15 0.15 0.15 0.15 0.15 0.14 0.15 0.14 0.12 0.10 0.09 0.09 0.09 0.10 0.11 0.12 0.14 0.16 0.22 0.33 0.48 0.61 0.63 0.61 0.64 0.66 0.73 0.80 0.86 0.85
0.51 0.58 0.69 0.43 0.33 0.58 0.37 0.16 0.18 0.22 0.23 0.22 0.22 0.18 0.15 0.15 0.16 0.14 0.13 0.14 0.16 0.15 0.13 0.12 0.10 0.08 0.07 0.07 0.08 0.11 0.13 0.15 0.18 0.26 0.39 0.53 0.60 0.58 0.57 0.59 0.62 0.69 0.79 0.85
0.28 0.53 0.80 0.65 0.49 0.33 0.18 0.10 0.17 0.27 0.29 0.21 0.17 0.13 0.13 0.13 0.14 0.14 0.13 0.10 0.11 0.13 0.13 0.11 0.11 0.09 0.07 0.06 0.07 0.09 0.13 0.14 0.16 0.25 0.35 0.44 0.55 0.55 0.52 0.55 0.55 0.59 0.65 0.75
0.29 0.52 0.89 0.78 0.58 0.32 0.20 0.08 0.11 0.23 0.35 0.18 0.12 0.11 0.12 0.15 0.20 0.17 0.12 0.08 0.06 0.08 0.09 0.09 0.08 0.08 0.07 0.07 0.07 0.09 0.13 0.14 0.15 0.24 0.34 0.37 0.44 0.48 0.46 0.49 0.52 0.55 0.56 0.59
0.50 0.78 0.93 0.71 0.54 0.23 0.13 0.08 0.13 0.33 0.38 0.16 0.11 0.10 0.11 0.18 0.22 0.15 0.09 0.08 0.06 0.06 0.07 0.07 0.08 0.07 0.07 0.08 0.09 0.10 0.14 0.16 0.16 0.21 0.29 0.33 0.36 0.39 0.40 0.44 0.44 0.49 0.52 0.52
0.43 0.63 0.63 0.56 0.56 0.27 0.11 0.13 0.29 0.34 0.15 0.09 0.08 0.07 0.08 0.10 0.10 0.08 0.08 0.08 0.07 0.06 0.06 0.06 0.07 0.07 0.07 0.07 0.09 0.11 0.14 0.17 0.17 0.19 0.23 0.30 0.33 0.34 0.35 0.40 0.40 0.41 0.47 0.49
0.30 0.45 0.47 0.42 0.31 0.17 0.14 0.19 0.20 0.16 0.11 0.07 0.07 0.06 0.07 0.08 0.08 0.08 0.09 0.08 0.08 0.07 0.05 0.05 0.06 0.07 0.06 0.06 0.07 0.09 0.12 0.15 0.18 0.18 0.22 0.28 0.34 0.36 0.35 0.37 0.40 0.41 0.42 0.47
0.17 0.21 0.29 0.24 0.15 0.13 0.13 0.13 0.11 0.08 0.08 0.07 0.07 0.07 0.08 0.07 0.07 0.08 0.09 0.10 0.10 0.10 0.07 0.05 0.06 0.07 0.07 0.06 0.06 0.07 0.09 0.14 0.18 0.19 0.21 0.27 0.31 0.36 0.36 0.36 0.38 0.40 0.42 0.52
0.13 0.16 0.22 0.19 0.12 0.09 0.08 0.08 0.09 0.07 0.06 0.05 0.05 0.06 0.07 0.07 0.08 0.07 0.09 0.10 0.11 0.10 0.07 0.06 0.05 0.07 0.08 0.07 0.06 0.06 0.09 0.14 0.17 0.19 0.21 0.25 0.27 0.34 0.35 0.35 0.36 0.38 0.37 0.53
0.08 0.13 0.18 0.15 0.10 0.11 0.08 0.06 0.07 0.09 0.08 0.07 0.08 0.07 0.06 0.07 0.07 0.08 0.10 0.11 0.10 0.09 0.07 0.06 0.05 0.06 0.08 0.08 0.08 0.07 0.09 0.13 0.17 0.21 0.23 0.25 0.28 0.34 0.37 0.35 0.36 0.39 0.39 0.43

GEFSCGP_prec_meanprecacc_186.txt.gz
Total_Precipitation_Accumulation
0.31 0.52 0.48 0.33 0.34 0.31 0.25 0.25 0.17 0.07 0.06 0.15 0.14 0.10 0.08 0.08 0.10 0.11 0.11 0.14 0.15 0.16 0.19 0.21 0.26 0.32 0.34 0.37 0.42 0.50 0.64 0.81 0.96 1.05 1.11 1.06 0.99 0.86 0.83 0.81 0.75 0.66 0.60 0.60
0.40 0.44 0.24 0.18 0.21 0.24 0.27 0.31 0.23 0.12 0.08 0.17 0.16 0.10 0.07 0.08 0.11 0.13 0.13 0.16 0.18 0.16 0.18 0.19 0.24 0.34 0.39 0.42 0.45 0.49 0.61 0.72 0.90 1.01 1.02 1.07 1.00 0.92 0.83 0.82 0.79 0.71 0.62 0.63
0.36 0.27 0.16 0.20 0.28 0.34 0.31 0.29 0.22 0.18 0.15 0.20 0.23 0.16 0.06 0.05 0.07 0.10 0.11 0.13 0.16 0.17 0.18 0.19 0.23 0.31 0.40 0.43 0.46 0.50 0.56 0.64 0.76 1.00 1.18 1.27 1.30 1.18 1.01 0.90 0.84 0.73 0.65 0.60
0.27 0.18 0.20 0.26 0.29 0.35 0.35 0.19 0.19 0.23 0.36 0.37 0.32 0.34 0.08 0.04 0.05 0.07 0.09 0.10 0.11 0.14 0.15 0.16 0.20 0.27 0.34 0.40 0.48 0.56 0.57 0.64 0.74 0.92 1.20 1.31 1.36 1.24 0.98 0.83 0.82 0.78 0.70 0.64
0.36 0.20 0.24 0.29 0.20 0.23 0.26 0.19 0.22 0.28 0.44 0.53 0.37 0.42 0.14 0.06 0.07 0.06 0.06 0.08 0.09 0.12 0.14 0.13 0.16 0.21 0.28 0.40 0.49 0.59 0.65 0.69 0.79 0.88 1.07 1.26 1.37 1.30 1.16 1.01 0.90 0.85 0.81 0.75
0.30 0.20 0.25 0.24 0.15 0.17 0.22 0.28 0.37 0.45 0.75 0.98 0.37 0.34 0.20 0.11 0.13 0.10 0.08 0.09 0.10 0.12 0.15 0.13 0.13 0.16 0.25 0.37 0.46 0.58 0.70 0.72 0.81 0.87 0.97 1.11 1.27 1.39 1.36 1.25 1.10 0.97 0.91 0.85
0.32 0.23 0.24 0.22 0.24 0.26 0.41 0.74 1.13 1.22 1.33 0.86 0.18 0.24 0.22 0.12 0.09 0.12 0.14 0.12 0.12 0.12 0.13 0.13 0.12 0.14 0.19 0.33 0.44 0.56 0.71 0.70 0.77 0.84 0.92 1.00 1.13 1.28 1.40 1.32 1.17 1.08 1.04 0.94
0.43 0.30 0.25 0.26 0.31 0.38 0.45 0.69 1.00 0.92 0.59 0.22 0.11 0.18 0.17 0.10 0.06 0.06 0.08 0.11 0.12 0.11 0.11 0.13 0.13 0.14 0.16 0.24 0.35 0.44 0.64 0.68 0.71 0.77 0.82 0.93 1.05 1.16 1.27 1.32 1.22 1.13 1.06 0.95
0.52 0.31 0.16 0.15 0.18 0.27 0.42 0.46 0.44 0.64 0.48 0.29 0.20 0.15 0.11 0.06 0.04 0.03 0.04 0.06 0.09 0.12 0.11 0.11 0.14 0.15 0.16 0.20 0.30 0.39 0.60 0.67 0.66 0.70 0.75 0.84 0.95 1.07 1.14 1.20 1.23 1.16 1.09 1.03
0.65 0.41 0.19 0.17 0.20 0.26 0.36 0.45 0.49 0.82 0.82 0.51 0.29 0.17 0.17 0.12 0.08 0.06 0.06 0.07 0.08 0.10 0.10 0.09 0.13 0.13 0.14 0.17 0.25 0.35 0.51 0.66 0.67 0.68 0.72 0.79 0.83 0.96 1.05 1.13 1.19 1.16 1.13 1.08
0.61 0.60 0.33 0.29 0.40 0.45 0.42 0.54 0.71 0.75 0.61 0.51 0.40 0.28 0.25 0.18 0.14 0.11 0.09 0.07 0.08 0.09 0.10 0.10 0.12 0.12 0.13 0.15 0.21 0.32 0.45 0.60 0.69 0.71 0.70 0.77 0.82 0.90 0.97 0.99 1.06 1.16 1.18 1.14
0.53 0.70 0.51 0.33 0.34 0.36 0.45 0.53 0.63 0.78 0.61 0.35 0.36 0.32 0.22 0.15 0.13 0.12 0.10 0.07 0.07 0.08 0.09 0.10 0.11 0.12 0.12 0.15 0.19 0.27 0.42 0.57 0.65 0.70 0.73 0.73 0.82 0.92 0.95 0.92 0.91 0.99 1.11 1.16
0.79 0.99 0.81 0.56 0.49 0.43 0.56 0.54 0.53 0.54 0.51 0.41 0.36 0.24 0.16 0.12 0.11 0.11 0.11 0.09 0.07 0.07 0.08 0.10 0.11 0.12 0.13 0.15 0.18 0.22 0.32 0.49 0.60 0.67 0.77 0.71 0.79 0.88 0.88 0.88 0.89 0.88 0.96 1.10
0.88 1.01 0.76 0.68 0.61 0.54 0.53 0.46 0.42 0.54 0.64 0.39 0.23 0.17 0.15 0.14 0.13 0.12 0.12 0.11 0.10 0.08 0.07 0.09 0.11 0.11 0.12 0.13 0.15 0.18 0.24 0.37 0.54 0.67 0.79 0.73 0.74 0.83 0.82 0.80 0.85 0.88 0.93 1.06
0.72 0.78 0.39 0.20 0.17 0.25 0.30 0.29 0.30 0.39 0.40 0.32 0.19 0.15 0.18 0.17 0.18 0.18 0.16 0.13 0.10 0.09 0.08 0.08 0.10 0.12 0.13 0.13 0.13 0.15 0.19 0.28 0.45 0.64 0.80 0.80 0.75 0.77 0.78 0.78 0.84 0.92 0.98 1.05
0.68 0.66 0.33 0.17 0.10 0.15 0.19 0.17 0.19 0.21 0.22 0.20 0.15 0.16 0.15 0.16 0.15 0.15 0.15 0.14 0.13 0.11 0.10 0.08 0.09 0.11 0.12 0.13 0.13 0.15 0.17 0.23 0.36 0.52 0.70 0.79 0.76 0.76 0.80 0.77 0.82 0.90 0.96 1.02
0.68 0.65 0.54 0.28 0.10 0.25 0.36 0.23 0.21 0.19 0.19 0.20 0.21 0.21 0.15 0.15 0.15 0.15 0.15 0.14 0.16 0.15 0.13 0.11 0.10 0.11 0.11 0.11 0.13 0.16 0.16 0.18 0.27 0.41 0.58 0.71 0.71 0.69 0.73 0.74 0.79 0.87 0.95 0.95
0.55 0.62 0.74 0.47 0.34 0.59 0.38 0.16 0.18 0.22 0.23 0.22 0.22 0.18 0.15 0.15 0.16 0.15 0.13 0.14 0.16 0.16 0.14 0.13 0.12 0.11 0.10 0.10 0.11 0.13 0.15 0.17 0.22 0.32 0.47 0.63 0.68 0.66 0.66 0.68 0.69 0.76 0.87 0.94
0.30 0.57 0.87 0.70 0.51 0.34 0.18 0.10 0.17 0.27 0.30 0.21 0.17 0.13 0.13 0.13 0.14 0.14 0.13 0.10 0.11 0.14 0.14 0.13 0.14 0.13 0.12 0.11 0.11 0.13 0.16 0.17 0.21 0.32 0.42 0.53 0.63 0.64 0.60 0.64 0.64 0.67 0.72 0.83
0.32 0.57 0.97 0.84 0.61 0.33 0.20 0.08 0.11 0.23 0.36 0.18 0.12 0.11 0.12 0.15 0.20 0.17 0.12 0.08 0.06 0.08 0.10 0.11 0.11 0.11 0.12 0.12 0.12 0.14 0.17 0.19 0.22 0.34 0.43 0.48 0.55 0.58 0.56 0.59 0.62 0.64 0.64 0.68
0.53 0.84 0.99 0.75 0.58 0.24 0.13 0.08 0.13 0.34 0.38 0.16 0.11 0.10 0.11 0.18 0.22 0.15 0.09 0.08 0.06 0.06 0.08 0.09 0.09 0.10 0.10 0.11 0.13 0.14 0.17 0.22 0.24 0.32 0.39 0.44 0.49 0.52 0.51 0.56 0.56 0.60 0.63 0.63
0.44 0.64 0.64 0.58 0.61 0.28 0.11 0.13 0.29 0.35 0.15 0.09 0.08 0.07 0.08 0.10 0.10 0.08 0.08 0.08 0.08 0.06 0.06 0.07 0.08 0.09 0.08 0.09 0.11 0.13 0.18 0.24 0.26 0.28 0.32 0.40 0.46 0.48 0.47 0.55 0.53 0.52 0.59 0.61
0.30 0.46 0.48 0.43 0.32 0.17 0.14 0.19 0.20 0.16 0.12 0.07 0.07 0.06 0.07 0.08 0.08 0.08 0.09 0.08 0.09 0.07 0.05 0.06 0.07 0.08 0.07 0.07 0.10 0.11 0.16 0.22 0.28 0.28 0.31 0.38 0.45 0.49 0.48 0.52 0.53 0.53 0.53 0.56
0.18 0.22 0.30 0.24 0.15 0.13 0.13 0.13 0.11 0.08 0.08 0.07 0.07 0.08 0.08 0.08 0.07 0.09 0.09 0.10 0.10 0.10 0.07 0.06 0.07 0.08 0.08 0.08 0.09 0.11 0.14 0.19 0.26 0.28 0.30 0.36 0.41 0.48 0.47 0.48 0.49 0.50 0.51 0.60
0.14 0.16 0.22 0.20 0.12 0.10 0.08 0.08 0.09 0.08 0.06 0.05 0.05 0.06 0.07 0.08 0.08 0.08 0.09 0.10 0.11 0.11 0.08 0.07 0.06 0.08 0.09 0.09 0.09 0.09 0.13 0.19 0.24 0.27 0.29 0.33 0.37 0.46 0.47 0.47 0.48 0.47 0.45 0.61
0.08 0.13 0.18 0.16 0.10 0.12 0.08 0.06 0.07 0.09 0.08 0.07 0.08 0.07 0.06 0.07 0.08 0.08 0.11 0.11 0.10 0.10 0.08 0.07 0.07 0.07 0.09 0.10 0.10 0.10 0.13 0.18 0.23 0.28 0.31 0.33 0.36 0.45 0.47 0.47 0.50 0.51 0.49 0.51

GEFSCGP_prec_meanprecacc_192.txt.gz
Total_Precipitation_Accumulation
0.31 0.52 0.48 0.33 0.34 0.31 0.25 0.25 0.18 0.07 0.06 0.15 0.15 0.10 0.08 0.08 0.10 0.11 0.11 0.14 0.15 0.16 0.19 0.21 0.26 0.32 0.35 0.37 0.42 0.51 0.65 0.81 0.98 1.08 1.16 1.12 1.06 0.93 0.88 0.86 0.81 0.71 0.66 0.67
0.41 0.44 0.24 0.18 0.21 0.24 0.28 0.32 0.23 0.13 0.08 0.17 0.17 0.10 0.07 0.08 0.11 0.13 0.13 0.16 0.18 0.16 0.18 0.19 0.24 0.35 0.41 0.43 0.46 0.50 0.61 0.73 0.91 1.03 1.08 1.14 1.08 1.00 0.91 0.87 0.85 0.78 0.68 0.71
0.37 0.27 0.16 0.21 0.28 0.34 0.32 0.29 0.23 0.18 0.15 0.20 0.23 0.16 0.06 0.05 0.07 0.10 0.11 0.13 0.16 0.17 0.18 0.19 0.23 0.32 0.41 0.44 0.49 0.53 0.58 0.65 0.77 1.02 1.24 1.35 1.39 1.27 1.10 0.98 0.89 0.80 0.72 0.67
0.27 0.18 0.20 0.26 0.29 0.36 0.35 0.19 0.19 0.23 0.36 0.37 0.32 0.34 0.08 0.04 0.05 0.07 0.09 0.10 0.11 0.14 0.15 0.16 0.20 0.28 0.36 0.43 0.53 0.62 0.61 0.67 0.77 0.94 1.25 1.41 1.45 1.33 1.07 0.90 0.86 0.84 0.78 0.71
0.37 0.20 0.25 0.29 0.21 0.24 0.26 0.19 0.23 0.28 0.45 0.54 0.37 0.42 0.14 0.06 0.07 0.06 0.06 0.08 0.09 0.12 0.14 0.13 0.16 0.21 0.31 0.44 0.55 0.67 0.72 0.77 0.85 0.93 1.12 1.35 1.46 1.38 1.23 1.08 0.96 0.90 0.88 0.83
0.31 0.21 0.26 0.24 0.16 0.18 0.23 0.29 0.37 0.45 0.75 0.99 0.37 0.35 0.20 0.11 0.13 0.10 0.08 0.09 0.10 0.12 0.15 0.13 0.13 0.17 0.27 0.42 0.50 0.64 0.76 0.81 0.92 0.98 1.09 1.21 1.38 1.48 1.44 1.32 1.18 1.04 0.99 0.94
0.34 0.24 0.25 0.23 0.24 0.26 0.41 0.75 1.14 1.24 1.34 0.86 0.18 0.24 0.22 0.12 0.09 0.12 0.14 0.12 0.12 0.12 0.14 0.13 0.12 0.14 0.21 0.39 0.49 0.60 0.75 0.78 0.88 0.95 1.03 1.14 1.28 1.44 1.54 1.43 1.26 1.17 1.13 1.04
0.45 0.31 0.26 0.26 0.31 0.38 0.45 0.70 1.00 0.93 0.59 0.22 0.11 0.18 0.17 0.10 0.06 0.06 0.08 0.11 0.12 0.12 0.12 0.14 0.14 0.14 0.18 0.27 0.39 0.51 0.69 0.74 0.77 0.85 0.92 1.05 1.22 1.38 1.47 1.48 1.33 1.23 1.16 1.06
0.53 0.31 0.17 0.16 0.18 0.27 0.43 0.46 0.44 0.65 0.48 0.29 0.20 0.15 0.11 0.06 0.04 0.03 0.04 0.06 0.09 0.12 0.11 0.12 0.15 0.15 0.18 0.23 0.32 0.43 0.64 0.72 0.70 0.75 0.82 0.93 1.07 1.24 1.33 1.40 1.38 1.27 1.21 1.15
0.66 0.42 0.20 0.17 0.20 0.26 0.36 0.45 0.49 0.83 0.83 0.51 0.29 0.17 0.17 0.12 0.08 0.06 0.06 0.07 0.08 0.10 0.10 0.10 0.13 0.14 0.17 0.21 0.29 0.38 0.55 0.70 0.71 0.72 0.78 0.87 0.93 1.07 1.20 1.33 1.43 1.34 1.28 1.23
0.62 0.62 0.34 0.29 0.40 0.45 0.42 0.55 0.71 0.76 0.61 0.52 0.40 0.28 0.25 0.18 0.14 0.11 0.09 0.08 0.08 0.09 0.10 0.10 0.12 0.12 0.15 0.18 0.24 0.36 0.49 0.63 0.72 0.75 0.75 0.84 0.92 1.03 1.10 1.14 1.24 1.35 1.35 1.29
0.55 0.73 0.53 0.33 0.34 0.36 0.46 0.53 0.63 0.78 0.62 0.35 0.36 0.32 0.22 0.15 0.13 0.12 0.10 0.08 0.07 0.08 0.09 0.10 0.11 0.12 0.13 0.16 0.21 0.30 0.45 0.60 0.68 0.74 0.78 0.79 0.90 1.03 1.06 1.03 1.03 1.13 1.25 1.28
0.81 1.03 0.84 0.58 0.50 0.43 0.57 0.55 0.53 0.55 0.51 0.42 0.36 0.24 0.16 0.12 0.11 0.11 0.11 0.09 0.08 0.07 0.08 0.10 0.11 0.12 0.13 0.16 0.20 0.24 0.34 0.51 0.63 0.72 0.83 0.78 0.87 0.97 0.97 0.97 0.99 1.01 1.10 1.24
0.93 1.06 0.79 0.70 0.63 0.56 0.55 0.47 0.43 0.54 0.65 0.40 0.23 0.17 0.15 0.14 0.13 0.12 0.12 0.11 0.10 0.09 0.07 0.09 0.11 0.12 0.13 0.14 0.16 0.19 0.26 0.39 0.58 0.72 0.85 0.79 0.82 0.92 0.91 0.90 0.95 0.98 1.03 1.17
0.78 0.84 0.41 0.21 0.18 0.26 0.31 0.29 0.30 0.40 0.40 0.32 0.19 0.15 0.18 0.17 0.18 0.18 0.16 0.13 0.10 0.10 0.08 0.08 0.10 0.13 0.14 0.14 0.14 0.16 0.21 0.29 0.47 0.68 0.85 0.86 0.81 0.86 0.89 0.89 0.95 1.01 1.06 1.14
0.73 0.72 0.36 0.18 0.10 0.15 0.21 0.18 0.20 0.22 0.22 0.20 0.15 0.16 0.15 0.16 0.15 0.16 0.15 0.14 0.13 0.12 0.11 0.08 0.09 0.12 0.14 0.14 0.14 0.16 0.18 0.24 0.37 0.54 0.73 0.83 0.81 0.83 0.88 0.86 0.92 1.00 1.06 1.11
0.72 0.70 0.59 0.31 0.12 0.27 0.38 0.23 0.21 0.20 0.20 0.21 0.22 0.21 0.15 0.15 0.15 0.15 0.15 0.15 0.16 0.15 0.13 0.11 0.11 0.12 0.13 0.13 0.14 0.17 0.17 0.19 0.28 0.43 0.61 0.75 0.76 0.75 0.79 0.80 0.86 0.94 1.04 1.04
0.59 0.66 0.80 0.51 0.37 0.62 0.38 0.16 0.18 0.22 0.23 0.22 0.23 0.19 0.17 0.16 0.17 0.15 0.13 0.14 0.16 0.16 0.15 0.14 0.14 0.14 0.13 0.12 0.13 0.14 0.16 0.18 0.24 0.34 0.50 0.68 0.72 0.70 0.70 0.73 0.76 0.82 0.92 0.99
0.32 0.62 0.95 0.76 0.55 0.35 0.18 0.10 0.17 0.27 0.30 0.21 0.17 0.13 0.13 0.14 0.14 0.14 0.13 0.10 0.11 0.14 0.14 0.14 0.16 0.17 0.15 0.13 0.13 0.16 0.18 0.18 0.22 0.34 0.45 0.57 0.68 0.68 0.65 0.69 0.71 0.73 0.78 0.88
0.35 0.63 1.07 0.92 0.67 0.35 0.20 0.08 0.11 0.23 0.36 0.18 0.12 0.11 0.12 0.16 0.20 0.17 0.12 0.08 0.06 0.08 0.10 0.11 0.12 0.14 0.15 0.16 0.16 0.17 0.22 0.23 0.25 0.37 0.47 0.52 0.59 0.63 0.60 0.65 0.69 0.71 0.70 0.73
0.57 0.90 1.06 0.79 0.61 0.25 0.13 0.08 0.13 0.34 0.39 0.17 0.11 0.10 0.11 0.18 0.22 0.15 0.09 0.08 0.06 0.06 0.08 0.09 0.10 0.12 0.14 0.16 0.17 0.18 0.21 0.25 0.28 0.36 0.43 0.48 0.53 0.56 0.55 0.62 0.63 0.67 0.69 0.68
0.45 0.66 0.67 0.60 0.65 0.30 0.11 0.13 0.29 0.35 0.16 0.10 0.08 0.07 0.08 0.10 0.10 0.08 0.08 0.08 0.08 0.06 0.06 0.07 0.09 0.10 0.11 0.13 0.15 0.18 0.22 0.27 0.30 0.33 0.36 0.44 0.51 0.52 0.51 0.61 0.60 0.59 0.65 0.68
0.31 0.46 0.49 0.44 0.33 0.17 0.14 0.19 0.21 0.16 0.12 0.08 0.07 0.06 0.07 0.08 0.08 0.08 0.09 0.08 0.09 0.07 0.05 0.06 0.08 0.10 0.10 0.10 0.13 0.15 0.20 0.26 0.34 0.33 0.35 0.42 0.49 0.54 0.55 0.60 0.59 0.59 0.61 0.64
0.19 0.23 0.31 0.25 0.15 0.13 0.13 0.13 0.11 0.08 0.08 0.07 0.07 0.08 0.08 0.08 0.07 0.09 0.09 0.10 0.10 0.10 0.07 0.06 0.07 0.10 0.11 0.12 0.12 0.14 0.18 0.25 0.33 0.34 0.35 0.40 0.45 0.52 0.53 0.56 0.56 0.58 0.60 0.69
0.15 0.18 0.24 0.22 0.13 0.10 0.08 0.08 0.09 0.08 0.06 0.05 0.06 0.06 0.07 0.08 0.08 0.08 0.09 0.10 0.11 0.11 0.08 0.07 0.07 0.10 0.12 0.13 0.14 0.13 0.17 0.24 0.31 0.35 0.35 0.38 0.42 0.52 0.53 0.54 0.55 0.56 0.55 0.71
0.09 0.14 0.20 0.18 0.11 0.13 0.09 0.06 0.08 0.09 0.08 0.07 0.08 0.07 0.06 0.07 0.08 0.08 0.11 0.11 0.10 0.10 0.08 0.07 0.07 0.08 0.12 0.14 0.14 0.14 0.17 0.23 0.30 0.35 0.38 0.39 0.42 0.51 0.53 0.54 0.58 0.60 0.59 0.60

GEFSCGP_prec_meanprecacc_198.txt.gz
Total_Precipitation_Accumulation
0.31 0.52 0.49 0.33 0.34 0.31 0.25 0.25 0.18 0.07 0.06 0.15 0.15 0.10 0.08 0.08 0.10 0.11 0.11 0.14 0.15 0.16 0.19 0.21 0.26 0.32 0.35 0.37 0.42 0.51 0.65 0.81 0.98 1.11 1.18 1.14 1.09 0.94 0.88 0.87 0.82 0.72 0.68 0.70
0.41 0.44 0.24 0.18 0.21 0.24 0.28 0.32 0.23 0.13 0.08 0.17 0.17 0.10 0.07 0.08 0.11 0.13 0.13 0.16 0.18 0.16 0.18 0.19 0.24 0.35 0.41 0.43 0.46 0.50 0.61 0.73 0.91 1.04 1.09 1.15 1.09 1.01 0.91 0.88 0.86 0.79 0.70 0.73
0.37 0.27 0.16 0.21 0.28 0.34 0.32 0.29 0.23 0.19 0.16 0.20 0.24 0.17 0.06 0.05 0.07 0.10 0.11 0.13 0.16 0.17 0.18 0.19 0.23 0.32 0.41 0.44 0.49 0.53 0.58 0.65 0.77 1.02 1.24 1.36 1.40 1.28 1.12 1.00 0.92 0.81 0.74 0.68
0.27 0.18 0.20 0.26 0.29 0.36 0.35 0.19 0.20 0.24 0.37 0.38 0.33 0.35 0.08 0.04 0.05 0.07 0.09 0.10 0.11 0.14 0.15 0.16 0.20 0.28 0.36 0.43 0.53 0.62 0.61 0.67 0.77 0.94 1.25 1.41 1.46 1.34 1.08 0.92 0.89 0.86 0.80 0.73
0.38 0.20 0.25 0.30 0.21 0.24 0.26 0.19 0.23 0.28 0.45 0.54 0.38 0.42 0.14 0.06 0.07 0.06 0.06 0.08 0.09 0.12 0.14 0.13 0.16 0.21 0.31 0.44 0.55 0.67 0.72 0.77 0.86 0.93 1.12 1.35 1.46 1.39 1.25 1.10 0.99 0.92 0.90 0.86
0.32 0.22 0.26 0.24 0.16 0.18 0.23 0.29 0.37 0.45 0.76 1.00 0.37 0.35 0.20 0.11 0.13 0.10 0.08 0.09 0.10 0.12 0.15 0.13 0.13 0.17 0.27 0.42 0.50 0.64 0.77 0.81 0.93 0.98 1.09 1.22 1.39 1.49 1.46 1.35 1.22 1.07 1.01 0.96
0.35 0.25 0.26 0.23 0.24 0.26 0.42 0.75 1.15 1.24 1.35 0.87 0.18 0.24 0.22 0.12 0.09 0.12 0.14 0.12 0.12 0.12 0.14 0.13 0.12 0.14 0.21 0.39 0.49 0.60 0.76 0.79 0.88 0.95 1.04 1.16 1.30 1.45 1.56 1.47 1.31 1.20 1.16 1.07
0.46 0.32 0.26 0.27 0.32 0.39 0.46 0.71 1.01 0.93 0.60 0.22 0.11 0.19 0.17 0.10 0.06 0.06 0.08 0.11 0.12 0.12 0.12 0.14 0.14 0.14 0.18 0.27 0.40 0.51 0.70 0.74 0.78 0.86 0.95 1.09 1.26 1.44 1.53 1.56 1.39 1.27 1.19 1.08
0.54 0.32 0.17 0.17 0.19 0.28 0.43 0.47 0.45 0.66 0.49 0.29 0.20 0.15 0.11 0.06 0.04 0.03 0.04 0.06 0.09 0.12 0.11 0.12 0.15 0.15 0.18 0.24 0.33 0.44 0.66 0.73 0.70 0.77 0.86 0.98 1.13 1.34 1.44 1.48 1.46 1.34 1.26 1.19
0.66 0.43 0.20 0.18 0.20 0.26 0.37 0.46 0.51 0.85 0.84 0.51 0.29 0.17 0.17 0.12 0.08 0.06 0.06 0.07 0.08 0.10 0.10 0.10 0.13 0.14 0.17 0.21 0.30 0.41 0.57 0.73 0.73 0.74 0.81 0.90 0.98 1.15 1.30 1.42 1.51 1.40 1.34 1.30
0.63 0.63 0.35 0.30 0.41 0.46 0.43 0.56 0.73 0.78 0.62 0.52 0.40 0.28 0.25 0.18 0.14 0.11 0.09 0.08 0.08 0.09 0.10 0.10 0.12 0.12 0.15 0.18 0.25 0.38 0.50 0.65 0.78 0.81 0.79 0.88 0.96 1.08 1.18 1.23 1.31 1.40 1.40 1.36
0.58 0.76 0.56 0.34 0.34 0.37 0.46 0.54 0.64 0.80 0.62 0.36 0.37 0.32 0.22 0.15 0.13 0.12 0.10 0.08 0.07 0.08 0.09 0.10 0.11 0.12 0.13 0.16 0.21 0.31 0.46 0.61 0.72 0.81 0.85 0.87 0.95 1.08 1.14 1.11 1.11 1.18 1.29 1.32
0.84 1.07 0.87 0.60 0.52 0.45 0.58 0.56 0.54 0.56 0.53 0.42 0.37 0.24 0.16 0.12 0.11 0.11 0.11 0.09 0.08 0.07 0.08 0.10 0.11 0.12 0.13 0.16 0.20 0.25 0.35 0.52 0.65 0.75 0.86 0.83 0.94 1.03 1.05 1.06 1.08 1.07 1.14 1.28
0.97 1.10 0.83 0.72 0.65 0.59 0.57 0.50 0.45 0.56 0.67 0.41 0.23 0.17 0.15 0.14 0.13 0.12 0.12 0.11 0.10 0.09 0.07 0.09 0.11 0.12 0.13 0.14 0.16 0.19 0.26 0.39 0.59 0.75 0.89 0.82 0.86 0.98 0.98 0.99 1.05 1.06 1.09 1.22
0.83 0.88 0.43 0.23 0.19 0.27 0.32 0.30 0.32 0.42 0.42 0.34 0.19 0.15 0.18 0.17 0.18 0.18 0.16 0.13 0.10 0.10 0.08 0.08 0.10 0.13 0.14 0.14 0.14 0.16 0.21 0.30 0.48 0.70 0.88 0.89 0.85 0.92 0.97 0.97 1.04 1.10 1.14 1.21
0.78 0.76 0.38 0.19 0.11 0.16 0.22 0.18 0.20 0.22 0.23 0.21 0.15 0.17 0.15 0.16 0.15 0.16 0.15 0.14 0.13 0.12 0.11 0.08 0.09 0.12 0.14 0.14 0.14 0.16 0.18 0.24 0.37 0.55 0.75 0.86 0.84 0.88 0.96 0.95 1.01 1.08 1.14 1.19
0.76 0.74 0.62 0.32 0.12 0.29 0.40 0.24 0.21 0.20 0.20 0.21 0.23 0.21 0.15 0.15 0.15 0.16 0.15 0.15 0.16 0.15 0.13 0.11 0.11 0.13 0.14 0.14 0.15 0.17 0.18 0.19 0.28 0.43 0.62 0.76 0.79 0.79 0.84 0.87 0.95 1.03 1.12 1.11
0.61 0.69 0.84 0.54 0.38 0.65 0.39 0.16 0.18 0.22 0.23 0.23 0.23 0.20 0.17 0.17 0.17 0.15 0.13 0.15 0.16 0.16 0.15 0.14 0.14 0.14 0.14 0.13 0.14 0.15 0.17 0.19 0.24 0.35 0.51 0.69 0.74 0.73 0.73 0.77 0.81 0.89 0.99 1.06
0.35 0.66 1.01 0.81 0.58 0.36 0.18 0.10 0.17 0.27 0.30 0.22 0.18 0.14 0.14 0.14 0.15 0.15 0.13 0.10 0.11 0.14 0.14 0.14 0.16 0.18 0.16 0.14 0.14 0.16 0.18 0.19 0.23 0.35 0.47 0.60 0.71 0.70 0.67 0.72 0.74 0.78 0.83 0.93
0.38 0.68 1.14 0.99 0.72 0.37 0.20 0.08 0.11 0.24 0.36 0.19 0.13 0.11 0.12 0.16 0.21 0.17 0.12 0.08 0.06 0.08 0.10 0.11 0.13 0.15 0.17 0.17 0.16 0.18 0.22 0.23 0.26 0.38 0.49 0.54 0.62 0.65 0.62 0.67 0.73 0.74 0.75 0.79
0.61 0.97 1.13 0.83 0.65 0.26 0.13 0.08 0.13 0.34 0.40 0.17 0.12 0.10 0.11 0.19 0.22 0.15 0.09 0.08 0.06 0.06 0.08 0.09 0.11 0.13 0.16 0.17 0.18 0.19 0.22 0.26 0.28 0.37 0.45 0.50 0.55 0.58 0.57 0.65 0.67 0.71 0.74 0.74
0.46 0.68 0.68 0.62 0.68 0.31 0.12 0.14 0.30 0.35 0.16 0.10 0.08 0.07 0.08 0.10 0.10 0.08 0.08 0.08 0.08 0.06 0.06 0.07 0.09 0.11 0.13 0.14 0.16 0.18 0.23 0.28 0.31 0.34 0.38 0.46 0.52 0.54 0.54 0.64 0.64 0.64 0.70 0.73
0.32 0.48 0.50 0.46 0.35 0.18 0.15 0.20 0.21 0.16 0.12 0.08 0.07 0.06 0.07 0.08 0.08 0.08 0.09 0.08 0.09 0.07 0.05 0.06 0.08 0.10 0.11 0.13 0.14 0.16 0.21 0.27 0.35 0.34 0.36 0.43 0.51 0.56 0.58 0.63 0.64 0.65 0.66 0.70
0.21 0.24 0.33 0.26 0.16 0.13 0.13 0.14 0.11 0.08 0.08 0.07 0.07 0.08 0.08 0.08 0.07 0.09 0.09 0.10 0.10 0.10 0.07 0.06 0.07 0.10 0.13 0.14 0.15 0.16 0.20 0.27 0.36 0.37 0.37 0.42 0.47 0.55 0.56 0.60 0.61 0.64 0.67 0.76
0.17 0.19 0.25 0.23 0.14 0.11 0.09 0.09 0.09 0.08 0.06 0.06 0.06 0.06 0.07 0.08 0.08 0.08 0.09 0.10 0.11 0.11 0.08 0.07 0.07 0.10 0.13 0.16 0.16 0.15 0.19 0.27 0.35 0.39 0.39 0.41 0.44 0.55 0.57 0.59 0.60 0.62 0.61 0.78
0.09 0.14 0.21 0.19 0.12 0.14 0.10 0.07 0.08 0.09 0.08 0.08 0.08 0.07 0.06 0.07 0.08 0.08 0.11 0.11 0.10 0.10 0.08 0.07 0.07 0.09 0.13 0.16 0.18 0.17 0.20 0.26 0.34 0.40 0.42 0.43 0.45 0.55 0.57 0.59 0.63 0.66 0.66 0.68

GEFSCGP_prec_meanprecacc_204.txt.gz
Total_Precipitation_Accumulation
0.31 0.52 0.49 0.33 0.34 0.31 0.25 0.25 0.18 0.07 0.06 0.15 0.15 0.10 0.08 0.08 0.10 0.11 0.12 0.14 0.15 0.16 0.19 0.21 0.26 0.32 0.35 0.37 0.42 0.51 0.65 0.81 0.98 1.11 1.19 1.16 1.10 0.95 0.89 0.87 0.82 0.72 0.69 0.71
0.41 0.44 0.24 0.18 0.21 0.24 0.28 0.32 0.23 0.13 0.08 0.17 0.17 0.10 0.07 0.08 0.11 0.13 0.13 0.16 0.18 0.16 0.18 0.19 0.24 0.35 0.41 0.43 0.46 0.50 0.61 0.73 0.91 1.04 1.09 1.15 1.10 1.01 0.91 0.89 0.87 0.79 0.70 0.73
0.37 0.27 0.16 0.21 0.28 0.34 0.32 0.29 0.23 0.19 0.16 0.20 0.24 0.17 0.06 0.05 0.07 0.10 0.11 0.13 0.16 0.17 0.18 0.19 0.23 0.32 0.41 0.44 0.49 0.53 0.58 0.65 0.77 1.02 1.24 1.36 1.40 1.29 1.12 1.00 0.92 0.82 0.74 0.68
0.27 0.18 0.20 0.26 0.29 0.36 0.35 0.19 0.20 0.24 0.37 0.38 0.33 0.35 0.08 0.04 0.05 0.07 0.09 0.10 0.11 0.14 0.15 0.16 0.20 0.28 0.36 0.43 0.53 0.62 0.61 0.67 0.77 0.94 1.25 1.41 1.46 1.34 1.08 0.93 0.90 0.87 0.81 0.73
0.38 0.21 0.25 0.30 0.21 0.24 0.27 0.19 0.23 0.28 0.45 0.55 0.38 0.43 0.14 0.06 0.07 0.06 0.06 0.08 0.09 0.12 0.14 0.13 0.16 0.21 0.31 0.44 0.55 0.67 0.72 0.77 0.86 0.93 1.12 1.35 1.46 1.39 1.25 1.11 0.99 0.93 0.91 0.86
0.32 0.22 0.27 0.25 0.16 0.18 0.23 0.29 0.37 0.45 0.76 1.00 0.37 0.35 0.20 0.11 0.13 0.10 0.08 0.09 0.10 0.13 0.15 0.13 0.13 0.17 0.27 0.42 0.50 0.64 0.77 0.81 0.93 0.98 1.09 1.22 1.39 1.49 1.46 1.35 1.22 1.07 1.01 0.96
0.35 0.26 0.26 0.23 0.25 0.26 0.42 0.76 1.15 1.25 1.35 0.87 0.18 0.24 0.22 0.12 0.09 0.12 0.14 0.12 0.12 0.12 0.14 0.13 0.12 0.14 0.21 0.39 0.49 0.60 0.76 0.79 0.88 0.95 1.04 1.16 1.30 1.45 1.56 1.47 1.31 1.20 1.16 1.07
0.46 0.33 0.27 0.27 0.32 0.39 0.46 0.71 1.02 0.94 0.60 0.22 0.11 0.19 0.17 0.10 0.06 0.06 0.08 0.11 0.12 0.12 0.12 0.14 0.14 0.14 0.18 0.27 0.40 0.51 0.70 0.74 0.78 0.86 0.95 1.09 1.26 1.44 1.53 1.56 1.39 1.28 1.20 1.09
0.55 0.33 0.17 0.17 0.19 0.28 0.44 0.48 0.46 0.67 0.49 0.29 0.20 0.16 0.12 0.07 0.04 0.03 0.04 0.06 0.09 0.12 0.11 0.12 0.15 0.15 0.18 0.24 0.33 0.44 0.66 0.73 0.70 0.77 0.86 0.98 1.13 1.34 1.44 1.48 1.46 1.34 1.27 1.20
0.68 0.44 0.20 0.18 0.21 0.27 0.37 0.47 0.51 0.85 0.84 0.52 0.29 0.18 0.18 0.12 0.08 0.06 0.06 0.07 0.08 0.10 0.10 0.10 0.13 0.14 0.17 0.21 0.30 0.41 0.57 0.73 0.73 0.74 0.81 0.90 0.98 1.15 1.30 1.42 1.51 1.40 1.34 1.30
0.64 0.64 0.35 0.30 0.41 0.46 0.44 0.56 0.74 0.78 0.63 0.53 0.40 0.29 0.25 0.18 0.14 0.11 0.09 0.08 0.08 0.09 0.10 0.10 0.12 0.12 0.15 0.18 0.25 0.38 0.50 0.65 0.78 0.81 0.79 0.88 0.96 1.09 1.18 1.23 1.31 1.40 1.41 1.36
0.60 0.78 0.57 0.34 0.34 0.37 0.47 0.55 0.65 0.81 0.63 0.36 0.37 0.32 0.22 0.15 0.13 0.12 0.10 0.08 0.07 0.08 0.09 0.10 0.11 0.12 0.13 0.16 0.21 0.31 0.46 0.61 0.72 0.81 0.85 0.87 0.95 1.09 1.15 1.12 1.11 1.18 1.30 1.33
0.86 1.10 0.89 0.61 0.53 0.47 0.61 0.58 0.56 0.58 0.54 0.43 0.37 0.25 0.16 0.12 0.11 0.11 0.11 0.09 0.08 0.07 0.08 0.10 0.11 0.12 0.13 0.16 0.20 0.25 0.35 0.52 0.65 0.76 0.87 0.83 0.94 1.03 1.05 1.06 1.09 1.09 1.15 1.29
1.01 1.13 0.85 0.74 0.67 0.61 0.60 0.52 0.46 0.59 0.69 0.42 0.24 0.17 0.15 0.14 0.13 0.12 0.12 0.11 0.10 0.09 0.07 0.09 0.11 0.12 0.13 0.14 0.16 0.19 0.26 0.39 0.59 0.75 0.89 0.82 0.86 0.99 0.98 0.99 1.06 1.08 1.11 1.24
0.87 0.91 0.45 0.24 0.20 0.28 0.34 0.32 0.34 0.45 0.45 0.35 0.20 0.15 0.18 0.17 0.18 0.18 0.16 0.13 0.10 0.10 0.08 0.08 0.10 0.13 0.14 0.14 0.14 0.16 0.21 0.30 0.48 0.70 0.88 0.90 0.85 0.93 0.98 0.98 1.05 1.12 1.17 1.25
0.81 0.79 0.39 0.20 0.11 0.17 0.23 0.19 0.20 0.23 0.24 0.22 0.16 0.17 0.16 0.16 0.15 0.16 0.15 0.14 0.13 0.12 0.11 0.08 0.09 0.12 0.14 0.14 0.14 0.16 0.18 0.24 0.37 0.55 0.75 0.87 0.85 0.90 0.98 0.97 1.03 1.10 1.17 1.22
0.79 0.77 0.64 0.34 0.13 0.30 0.41 0.24 0.21 0.20 0.20 0.21 0.23 0.22 0.16 0.16 0.16 0.16 0.15 0.15 0.16 0.15 0.13 0.11 0.11 0.13 0.14 0.14 0.15 0.18 0.18 0.20 0.28 0.43 0.62 0.77 0.79 0.80 0.85 0.89 0.97 1.07 1.16 1.15
0.64 0.72 0.88 0.57 0.40 0.67 0.40 0.16 0.18 0.22 0.23 0.23 0.24 0.20 0.18 0.17 0.18 0.16 0.14 0.15 0.16 0.16 0.15 0.14 0.14 0.14 0.14 0.13 0.14 0.16 0.17 0.19 0.24 0.35 0.51 0.70 0.75 0.73 0.74 0.79 0.83 0.93 1.05 1.11
0.36 0.69 1.06 0.86 0.61 0.37 0.18 0.10 0.17 0.27 0.30 0.22 0.18 0.14 0.14 0.15 0.15 0.15 0.13 0.11 0.12 0.14 0.14 0.14 0.16 0.18 0.16 0.15 0.15 0.17 0.18 0.19 0.23 0.35 0.47 0.60 0.71 0.71 0.67 0.73 0.76 0.81 0.88 0.98
0.42 0.73 1.22 1.05 0.76 0.38 0.20 0.08 0.11 0.24 0.37 0.19 0.13 0.11 0.12 0.16 0.21 0.17 0.13 0.08 0.06 0.08 0.10 0.11 0.13 0.15 0.17 0.17 0.17 0.19 0.23 0.23 0.26 0.39 0.49 0.55 0.63 0.65 0.63 0.68 0.75 0.77 0.78 0.84
0.67 1.04 1.20 0.88 0.69 0.28 0.13 0.08 0.13 0.35 0.40 0.17 0.12 0.10 0.12 0.19 0.22 0.15 0.09 0.08 0.06 0.06 0.08 0.09 0.11 0.13 0.16 0.18 0.19 0.19 0.22 0.26 0.29 0.38 0.45 0.50 0.56 0.59 0.58 0.66 0.69 0.74 0.77 0.77
0.47 0.71 0.71 0.65 0.71 0.33 0.12 0.14 0.30 0.36 0.16 0.10 0.09 0.08 0.09 0.10 0.10 0.08 0.08 0.08 0.08 0.06 0.06 0.07 0.09 0.11 0.13 0.15 0.17 0.19 0.23 0.28 0.32 0.35 0.38 0.46 0.53 0.55 0.56 0.67 0.67 0.67 0.73 0.76
0.33 0.49 0.51 0.47 0.36 0.19 0.15 0.20 0.21 0.17 0.13 0.08 0.07 0.06 0.07 0.08 0.08 0.09 0.09 0.08 0.09 0.07 0.05 0.06 0.08 0.10 0.12 0.14 0.15 0.17 0.22 0.28 0.36 0.35 0.37 0.43 0.51 0.58 0.60 0.66 0.68 0.68 0.69 0.73
0.22 0.25 0.34 0.27 0.16 0.13 0.14 0.14 0.12 0.09 0.08 0.08 0.08 0.08 0.09 0.08 0.08 0.09 0.09 0.10 0.10 0.10 0.07 0.06 0.07 0.10 0.13 0.15 0.16 0.18 0.21 0.28 0.37 0.37 0.37 0.42 0.48 0.56 0.58 0.63 0.65 0.67 0.70 0.80
0.18 0.21 0.27 0.24 0.14 0.11 0.09 0.09 0.09 0.08 0.06 0.06 0.06 0.06 0.07 0.08 0.08 0.08 0.09 0.10 0.11 0.11 0.08 0.07 0.07 0.10 0.14 0.17 0.18 0.17 0.21 0.28 0.36 0.39 0.39 0.42 0.46 0.57 0.59 0.62 0.64 0.66 0.65 0.83
0.11 0.16 0.22 0.20 0.12 0.14 0.11 0.07 0.08 0.09 0.08 0.08 0.08 0.08 0.06 0.07 0.08 0.09 0.11 0.11 0.10 0.10 0.08 0.08 0.07 0.09 0.13 0.17 0.19 0.19 0.22 0.27 0.35 0.41 0.44 0.44 0.47 0.57 0.60 0.62 0.66 0.69 0.69 0.72

GEFSCGP_prec_meanprecacc_210.txt.gz
Total_Precipitation_Accumulation
0.31 0.52 0.49 0.33 0.34 0.31 0.25 0.25 0.18 0.07 0.06 0.15 0.15 0.10 0.08 0.08 0.10 0.11 0.12 0.14 0.15 0.16 0.19 0.21 0.26 0.32 0.35 0.37 0.43 0.51 0.65 0.82 0.98 1.11 1.19 1.16 1.10 0.95 0.89 0.87 0.82 0.72 0.69 0.71
0.41 0.44 0.24 0.18 0.21 0.24 0.28 0.32 0.23 0.13 0.08 0.17 0.17 0.10 0.07 0.08 0.11 0.13 0.13 0.16 0.18 0.16 0.18 0.19 0.24 0.35 0.41 0.43 0.46 0.50 0.62 0.73 0.91 1.04 1.09 1.15 1.10 1.02 0.92 0.89 0.87 0.79 0.70 0.73
0.37 0.27 0.16 0.21 0.28 0.34 0.32 0.29 0.23 0.19 0.16 0.20 0.24 0.17 0.06 0.05 0.07 0.10 0.11 0.13 0.16 0.18 0.18 0.19 0.23 0.32 0.41 0.45 0.49 0.54 0.58 0.66 0.77 1.02 1.24 1.36 1.41 1.29 1.12 1.01 0.92 0.82 0.74 0.68
0.28 0.18 0.20 0.26 0.29 0.36 0.35 0.19 0.20 0.24 0.37 0.38 0.33 0.35 0.08 0.04 0.05 0.07 0.09 0.10 0.11 0.15 0.15 0.16 0.20 0.28 0.36 0.43 0.54 0.62 0.61 0.68 0.77 0.94 1.25 1.41 1.46 1.34 1.08 0.93 0.90 0.87 0.81 0.73
0.38 0.21 0.25 0.30 0.21 0.24 0.27 0.19 0.23 0.28 0.46 0.55 0.38 0.43 0.14 0.06 0.07 0.06 0.06 0.08 0.09 0.12 0.14 0.14 0.17 0.22 0.31 0.44 0.56 0.67 0.72 0.77 0.86 0.93 1.12 1.35 1.46 1.39 1.25 1.11 0.99 0.93 0.91 0.86
0.33 0.22 0.27 0.25 0.16 0.18 0.23 0.29 0.37 0.45 0.76 1.00 0.37 0.35 0.20 0.12 0.13 0.10 0.08 0.09 0.10 0.13 0.15 0.13 0.14 0.17 0.27 0.42 0.51 0.65 0.77 0.81 0.93 0.98 1.09 1.22 1.39 1.49 1.46 1.35 1.22 1.07 1.01 0.96
0.36 0.26 0.26 0.24 0.25 0.27 0.42 0.76 1.16 1.25 1.35 0.87 0.18 0.25 0.23 0.12 0.09 0.12 0.14 0.12 0.12 0.12 0.14 0.14 0.13 0.14 0.22 0.39 0.50 0.61 0.76 0.79 0.88 0.95 1.04 1.16 1.30 1.45 1.56 1.47 1.31 1.20 1.16 1.07
0.48 0.34 0.27 0.28 0.32 0.40 0.46 0.72 1.02 0.94 0.60 0.23 0.11 0.19 0.18 0.11 0.06 0.06 0.08 0.11 0.12 0.12 0.12 0.14 0.14 0.14 0.18 0.28 0.40 0.52 0.70 0.74 0.78 0.86 0.95 1.09 1.26 1.44 1.53 1.56 1.40 1.28 1.20 1.09
0.56 0.33 0.18 0.17 0.19 0.29 0.44 0.48 0.46 0.67 0.49 0.29 0.20 0.17 0.13 0.07 0.04 0.04 0.05 0.06 0.09 0.12 0.11 0.12 0.15 0.15 0.19 0.24 0.33 0.44 0.66 0.73 0.70 0.77 0.86 0.98 1.13 1.34 1.44 1.48 1.47 1.34 1.27 1.20
0.70 0.46 0.21 0.19 0.21 0.27 0.38 0.47 0.51 0.85 0.85 0.52 0.29 0.18 0.19 0.13 0.08 0.06 0.06 0.07 0.09 0.10 0.10 0.10 0.13 0.14 0.17 0.22 0.30 0.41 0.57 0.73 0.73 0.74 0.81 0.90 0.98 1.15 1.30 1.42 1.52 1.40 1.34 1.30
0.67 0.67 0.37 0.31 0.43 0.47 0.45 0.57 0.74 0.79 0.63 0.53 0.40 0.29 0.25 0.19 0.14 0.11 0.09 0.08 0.08 0.09 0.10 0.10 0.12 0.12 0.15 0.18 0.25 0.38 0.50 0.66 0.78 0.81 0.79 0.88 0.96 1.09 1.19 1.23 1.31 1.40 1.41 1.36
0.63 0.82 0.59 0.36 0.35 0.38 0.48 0.56 0.66 0.82 0.64 0.37 0.37 0.32 0.22 0.15 0.13 0.12 0.10 0.08 0.07 0.08 0.09 0.10 0.11 0.12 0.13 0.16 0.21 0.31 0.46 0.62 0.72 0.81 0.86 0.88 0.96 1.09 1.15 1.12 1.11 1.18 1.30 1.33
0.90 1.15 0.93 0.64 0.55 0.48 0.62 0.58 0.57 0.59 0.55 0.43 0.37 0.25 0.16 0.12 0.11 0.11 0.11 0.09 0.08 0.07 0.08 0.10 0.11 0.12 0.13 0.16 0.20 0.25 0.35 0.52 0.66 0.76 0.87 0.83 0.94 1.04 1.06 1.06 1.09 1.09 1.15 1.29
1.05 1.18 0.89 0.76 0.69 0.63 0.62 0.53 0.47 0.60 0.71 0.42 0.24 0.17 0.15 0.14 0.13 0.12 0.12 0.11 0.10 0.09 0.07 0.09 0.11 0.12 0.13 0.14 0.16 0.19 0.26 0.40 0.59 0.75 0.89 0.82 0.87 0.99 0.99 0.99 1.06 1.08 1.12 1.24
0.94 0.96 0.47 0.25 0.21 0.29 0.35 0.33 0.35 0.46 0.46 0.36 0.20 0.15 0.18 0.18 0.18 0.18 0.16 0.13 0.10 0.10 0.08 0.08 0.10 0.13 0.14 0.14 0.14 0.16 0.21 0.30 0.48 0.70 0.89 0.90 0.85 0.93 0.98 0.98 1.05 1.12 1.18 1.25
0.85 0.84 0.41 0.21 0.12 0.18 0.24 0.19 0.21 0.24 0.25 0.22 0.17 0.18 0.16 0.16 0.15 0.16 0.15 0.14 0.13 0.12 0.11 0.08 0.09 0.12 0.14 0.14 0.14 0.16 0.18 0.25 0.38 0.55 0.75 0.87 0.85 0.90 0.98 0.97 1.03 1.11 1.17 1.23
0.82 0.79 0.66 0.35 0.13 0.31 0.42 0.25 0.22 0.21 0.21 0.22 0.24 0.23 0.16 0.16 0.16 0.16 0.15 0.15 0.16 0.16 0.13 0.11 0.11 0.13 0.14 0.14 0.15 0.18 0.18 0.20 0.29 0.43 0.62 0.77 0.79 0.80 0.86 0.89 0.98 1.07 1.17 1.16
0.68 0.76 0.92 0.59 0.42 0.70 0.41 0.16 0.18 0.23 0.24 0.23 0.24 0.21 0.18 0.18 0.19 0.17 0.15 0.16 0.17 0.17 0.16 0.15 0.14 0.14 0.14 0.13 0.14 0.16 0.17 0.19 0.24 0.35 0.51 0.70 0.75 0.74 0.74 0.79 0.84 0.94 1.06 1.12
0.39 0.73 1.12 0.91 0.64 0.39 0.19 0.11 0.17 0.28 0.31 0.23 0.18 0.14 0.14 0.15 0.15 0.16 0.14 0.11 0.12 0.14 0.15 0.15 0.17 0.18 0.17 0.15 0.15 0.17 0.19 0.19 0.23 0.35 0.48 0.61 0.72 0.72 0.68 0.74 0.77 0.82 0.88 0.98
0.46 0.79 1.29 1.11 0.79 0.40 0.21 0.09 0.11 0.24 0.37 0.20 0.13 0.11 0.12 0.16 0.21 0.18 0.13 0.08 0.06 0.08 0.10 0.11 0.13 0.15 0.17 0.17 0.17 0.19 0.23 0.23 0.26 0.39 0.49 0.55 0.64 0.66 0.63 0.69 0.76 0.77 0.79 0.85
0.72 1.12 1.28 0.93 0.72 0.29 0.14 0.09 0.13 0.35 0.41 0.18 0.12 0.11 0.12 0.19 0.22 0.15 0.09 0.08 0.06 0.06 0.08 0.09 0.11 0.13 0.16 0.18 0.19 0.20 0.23 0.26 0.29 0.38 0.45 0.50 0.56 0.60 0.59 0.67 0.70 0.74 0.77 0.78
0.50 0.74 0.75 0.69 0.76 0.35 0.13 0.14 0.31 0.37 0.16 0.10 0.09 0.08 0.09 0.10 0.10 0.08 0.08 0.08 0.08 0.07 0.06 0.07 0.10 0.12 0.13 0.16 0.17 0.19 0.24 0.28 0.32 0.35 0.38 0.47 0.53 0.56 0.57 0.67 0.67 0.67 0.74 0.77
0.35 0.52 0.54 0.49 0.38 0.20 0.16 0.20 0.22 0.17 0.13 0.09 0.07 0.06 0.07 0.08 0.08 0.09 0.09 0.08 0.09 0.07 0.06 0.06 0.08 0.10 0.12 0.14 0.16 0.18 0.22 0.28 0.37 0.36 0.37 0.44 0.52 0.58 0.61 0.67 0.69 0.69 0.70 0.74
0.24 0.28 0.37 0.30 0.18 0.14 0.14 0.14 0.12 0.09 0.09 0.08 0.08 0.08 0.09 0.08 0.08 0.09 0.09 0.10 0.11 0.10 0.07 0.06 0.08 0.10 0.13 0.16 0.17 0.19 0.22 0.28 0.37 0.38 0.38 0.42 0.48 0.57 0.59 0.64 0.66 0.69 0.72 0.81
0.20 0.22 0.29 0.25 0.16 0.11 0.09 0.09 0.10 0.08 0.07 0.06 0.06 0.06 0.07 0.08 0.08 0.08 0.09 0.10 0.11 0.11 0.08 0.07 0.07 0.10 0.14 0.17 0.19 0.18 0.21 0.29 0.36 0.40 0.39 0.42 0.46 0.58 0.60 0.63 0.65 0.68 0.67 0.85
0.13 0.18 0.24 0.21 0.14 0.15 0.11 0.07 0.09 0.10 0.09 0.08 0.08 0.08 0.06 0.07 0.08 0.09 0.11 0.11 0.10 0.10 0.08 0.08 0.07 0.09 0.14 0.18 0.20 0.20 0.22 0.28 0.36 0.42 0.44 0.44 0.47 0.57 0.61 0.63 0.67 0.71 0.70 0.74

GEFSCGP_prec_meanprecacc_216.txt.gz
Total_Precipitation_Accumulation
0.32 0.52 0.49 0.33 0.34 0.31 0.25 0.25 0.18 0.07 0.06 0.15 0.15 0.10 0.08 0.08 0.10 0.11 0.12 0.14 0.15 0.16 0.19 0.21 0.26 0.32 0.35 0.37 0.43 0.51 0.66 0.82 0.99 1.12 1.20 1.16 1.10 0.95 0.89 0.87 0.82 0.72 0.69 0.71
0.42 0.45 0.24 0.18 0.21 0.24 0.28 0.32 0.23 0.13 0.08 0.17 0.17 0.10 0.07 0.08 0.11 0.13 0.13 0.16 0.18 0.16 0.18 0.19 0.24 0.35 0.41 0.43 0.46 0.50 0.62 0.74 0.92 1.04 1.09 1.15 1.10 1.02 0.92 0.89 0.87 0.79 0.70 0.73
0.38 0.28 0.16 0.21 0.28 0.34 0.32 0.29 0.23 0.19 0.16 0.20 0.24 0.17 0.06 0.05 0.07 0.10 0.11 0.13 0.16 0.18 0.18 0.19 0.23 0.32 0.41 0.45 0.49 0.54 0.58 0.66 0.78 1.03 1.24 1.36 1.41 1.29 1.12 1.01 0.92 0.82 0.74 0.68
0.28 0.19 0.20 0.26 0.29 0.36 0.35 0.19 0.20 0.24 0.37 0.38 0.33 0.35 0.08 0.04 0.05 0.07 0.09 0.10 0.11 0.15 0.15 0.16 0.20 0.28 0.36 0.44 0.54 0.63 0.61 0.68 0.78 0.95 1.25 1.41 1.46 1.34 1.08 0.93 0.90 0.87 0.81 0.73
0.39 0.21 0.26 0.30 0.21 0.24 0.27 0.19 0.23 0.28 0.46 0.55 0.38 0.43 0.14 0.06 0.08 0.06 0.06 0.08 0.09 0.12 0.14 0.14 0.17 0.22 0.31 0.44 0.56 0.68 0.73 0.78 0.87 0.95 1.13 1.35 1.46 1.39 1.25 1.11 1.00 0.93 0.91 0.86
0.34 0.23 0.27 0.25 0.16 0.18 0.23 0.29 0.37 0.45 0.76 1.00 0.37 0.35 0.21 0.12 0.13 0.10 0.08 0.09 0.10 0.13 0.15 0.13 0.14 0.17 0.27 0.42 0.51 0.67 0.79 0.82 0.94 0.99 1.09 1.22 1.39 1.49 1.46 1.35 1.22 1.07 1.01 0.96
0.38 0.27 0.27 0.24 0.26 0.28 0.43 0.77 1.17 1.26 1.36 0.87 0.18 0.25 0.23 0.12 0.09 0.12 0.14 0.12 0.12 0.12 0.14 0.14 0.13 0.14 0.22 0.39 0.50 0.63 0.79 0.80 0.89 0.96 1.05 1.16 1.30 1.46 1.56 1.47 1.31 1.20 1.16 1.07
0.50 0.35 0.28 0.28 0.33 0.41 0.47 0.73 1.04 0.95 0.60 0.23 0.11 0.19 0.18 0.11 0.07 0.06 0.08 0.11 0.12 0.12 0.12 0.14 0.14 0.14 0.18 0.28 0.41 0.54 0.75 0.77 0.79 0.87 0.96 1.09 1.26 1.44 1.53 1.56 1.40 1.28 1.20 1.09
0.60 0.35 0.18 0.17 0.19 0.29 0.45 0.49 0.46 0.68 0.50 0.30 0.20 0.17 0.13 0.07 0.04 0.04 0.05 0.06 0.09 0.12 0.11 0.12 0.15 0.15 0.19 0.24 0.34 0.47 0.70 0.78 0.72 0.79 0.87 0.99 1.13 1.34 1.44 1.48 1.47 1.34 1.27 1.20
0.75 0.50 0.23 0.19 0.22 0.29 0.39 0.47 0.53 0.88 0.86 0.52 0.29 0.18 0.19 0.13 0.08 0.06 0.06 0.07 0.09 0.10 0.10 0.10 0.13 0.14 0.17 0.22 0.31 0.44 0.61 0.79 0.77 0.76 0.83 0.91 0.98 1.15 1.30 1.42 1.52 1.41 1.34 1.30
0.73 0.73 0.41 0.34 0.44 0.48 0.46 0.59 0.75 0.80 0.64 0.53 0.40 0.29 0.25 0.19 0.14 0.11 0.09 0.08 0.08 0.09 0.10 0.10 0.12 0.12 0.15 0.18 0.25 0.41 0.54 0.69 0.83 0.84 0.81 0.89 0.96 1.09 1.19 1.23 1.32 1.41 1.41 1.36
0.67 0.89 0.65 0.39 0.37 0.39 0.49 0.57 0.67 0.84 0.65 0.37 0.38 0.33 0.22 0.15 0.13 0.12 0.10 0.08 0.07 0.08 0.09 0.10 0.11 0.12 0.13 0.16 0.22 0.34 0.51 0.64 0.76 0.86 0.87 0.88 0.96 1.09 1.15 1.12 1.12 1.19 1.30 1.33
0.95 1.22 1.00 0.70 0.59 0.51 0.65 0.60 0.58 0.61 0.56 0.44 0.38 0.25 0.16 0.12 0.11 0.11 0.11 0.09 0.08 0.07 0.08 0.10 0.11 0.12 0.13 0.16 0.20 0.27 0.39 0.55 0.68 0.79 0.88 0.84 0.94 1.04 1.06 1.07 1.10 1.09 1.15 1.29
1.12 1.24 0.93 0.82 0.74 0.65 0.63 0.54 0.49 0.62 0.73 0.44 0.24 0.18 0.15 0.14 0.13 0.12 0.12 0.11 0.10 0.09 0.07 0.09 0.11 0.12 0.13 0.14 0.16 0.21 0.30 0.42 0.61 0.77 0.90 0.83 0.87 0.99 0.99 1.00 1.06 1.09 1.12 1.24
1.02 1.01 0.49 0.27 0.22 0.31 0.36 0.34 0.37 0.48 0.47 0.37 0.21 0.16 0.18 0.18 0.18 0.18 0.16 0.13 0.10 0.10 0.08 0.08 0.10 0.13 0.14 0.14 0.14 0.17 0.24 0.31 0.50 0.72 0.89 0.91 0.86 0.93 0.99 0.98 1.05 1.12 1.18 1.25
0.91 0.89 0.44 0.23 0.13 0.19 0.25 0.20 0.23 0.26 0.26 0.23 0.18 0.19 0.17 0.17 0.15 0.16 0.15 0.14 0.13 0.12 0.11 0.08 0.09 0.12 0.14 0.14 0.14 0.17 0.20 0.26 0.39 0.56 0.76 0.87 0.86 0.90 0.98 0.97 1.03 1.11 1.18 1.23
0.87 0.83 0.70 0.38 0.15 0.33 0.44 0.26 0.23 0.22 0.22 0.23 0.25 0.24 0.17 0.16 0.16 0.17 0.16 0.15 0.17 0.16 0.14 0.11 0.11 0.13 0.14 0.14 0.15 0.18 0.19 0.20 0.29 0.44 0.62 0.77 0.80 0.80 0.86 0.89 0.98 1.07 1.17 1.16
0.72 0.80 0.97 0.64 0.46 0.75 0.44 0.18 0.20 0.24 0.26 0.25 0.25 0.21 0.19 0.18 0.19 0.17 0.16 0.17 0.18 0.18 0.16 0.15 0.15 0.15 0.14 0.13 0.14 0.16 0.18 0.20 0.24 0.35 0.51 0.70 0.75 0.74 0.75 0.79 0.84 0.94 1.06 1.12
0.42 0.77 1.18 0.97 0.69 0.43 0.21 0.11 0.18 0.29 0.32 0.24 0.19 0.14 0.14 0.16 0.16 0.16 0.14 0.12 0.13 0.15 0.15 0.15 0.17 0.18 0.17 0.15 0.15 0.17 0.19 0.19 0.23 0.35 0.48 0.61 0.72 0.72 0.68 0.74 0.77 0.82 0.89 0.98
0.49 0.84 1.35 1.17 0.85 0.45 0.23 0.09 0.12 0.25 0.39 0.20 0.14 0.12 0.13 0.17 0.22 0.18 0.13 0.08 0.06 0.08 0.10 0.11 0.13 0.15 0.17 0.17 0.17 0.19 0.23 0.23 0.26 0.39 0.50 0.55 0.64 0.66 0.64 0.69 0.76 0.78 0.79 0.85
0.77 1.19 1.34 0.98 0.77 0.33 0.15 0.09 0.14 0.37 0.43 0.18 0.12 0.11 0.12 0.19 0.23 0.15 0.09 0.08 0.06 0.06 0.08 0.09 0.11 0.13 0.16 0.18 0.19 0.20 0.23 0.26 0.29 0.38 0.45 0.51 0.57 0.60 0.59 0.67 0.70 0.74 0.78 0.79
0.54 0.79 0.80 0.74 0.82 0.39 0.14 0.15 0.32 0.39 0.17 0.11 0.09 0.08 0.09 0.11 0.10 0.08 0.08 0.08 0.08 0.07 0.06 0.07 0.10 0.12 0.13 0.16 0.17 0.19 0.24 0.28 0.32 0.35 0.39 0.47 0.54 0.56 0.57 0.67 0.67 0.68 0.74 0.78
0.40 0.57 0.59 0.54 0.43 0.23 0.17 0.22 0.23 0.18 0.14 0.09 0.08 0.07 0.08 0.09 0.09 0.09 0.09 0.08 0.09 0.07 0.06 0.06 0.08 0.10 0.12 0.14 0.16 0.18 0.22 0.29 0.37 0.36 0.37 0.44 0.52 0.58 0.61 0.67 0.69 0.69 0.71 0.74
0.28 0.31 0.41 0.34 0.21 0.17 0.15 0.15 0.13 0.09 0.09 0.08 0.08 0.08 0.09 0.09 0.08 0.09 0.10 0.10 0.11 0.10 0.07 0.06 0.08 0.11 0.13 0.16 0.17 0.19 0.22 0.28 0.38 0.38 0.38 0.43 0.49 0.58 0.60 0.65 0.67 0.69 0.73 0.82
0.24 0.26 0.33 0.29 0.18 0.14 0.11 0.10 0.11 0.09 0.07 0.06 0.06 0.07 0.08 0.08 0.08 0.08 0.09 0.11 0.12 0.11 0.08 0.07 0.07 0.11 0.14 0.18 0.19 0.18 0.21 0.29 0.37 0.40 0.40 0.42 0.46 0.58 0.61 0.64 0.66 0.68 0.67 0.86
0.16 0.22 0.28 0.26 0.17 0.18 0.13 0.09 0.10 0.11 0.09 0.08 0.09 0.08 0.07 0.08 0.09 0.09 0.11 0.11 0.11 0.10 0.08 0.08 0.07 0.09 0.14 0.18 0.20 0.20 0.22 0.28 0.36 0.42 0.44 0.45 0.48 0.58 0.62 0.64 0.68 0.71 0.71 0.75

GEFSCGP_prec_meanprecacc_222.txt.gz
Total_Precipitation_Accumulation
0.32 0.53 0.49 0.33 0.34 0.31 0.25 0.25 0.18 0.07 0.06 0.15 0.15 0.10 0.08 0.08 0.10 0.11 0.12 0.14 0.15 0.16 0.19 0.21 0.26 0.33 0.35 0.37 0.43 0.51 0.66 0.82 0.99 1.12 1.20 1.16 1.10 0.95 0.89 0.87 0.82 0.73 0.69 0.71
0.43 0.45 0.24 0.18 0.21 0.24 0.28 0.32 0.23 0.13 0.08 0.17 0.17 0.10 0.07 0.08 0.11 0.13 0.13 0.16 0.18 0.16 0.18 0.19 0.24 0.35 0.41 0.43 0.46 0.50 0.62 0.74 0.92 1.04 1.09 1.16 1.10 1.02 0.92 0.89 0.87 0.79 0.70 0.73
0.38 0.28 0.17 0.21 0.29 0.35 0.32 0.29 0.23 0.19 0.16 0.20 0.24 0.17 0.06 0.05 0.07 0.10 0.11 0.13 0.16 0.18 0.18 0.19 0.23 0.32 0.41 0.45 0.49 0.54 0.58 0.66 0.78 1.03 1.25 1.37 1.41 1.29 1.13 1.01 0.92 0.82 0.74 0.68
0.29 0.19 0.21 0.27 0.30 0.36 0.36 0.19 0.20 0.24 0.37 0.38 0.33 0.35 0.08 0.04 0.05 0.07 0.09 0.10 0.11 0.15 0.15 0.16 0.20 0.28 0.36 0.44 0.54 0.63 0.61 0.68 0.78 0.96 1.25 1.42 1.46 1.34 1.08 0.93 0.90 0.87 0.81 0.73
0.40 0.21 0.26 0.31 0.21 0.24 0.27 0.19 0.23 0.28 0.46 0.55 0.38 0.43 0.14 0.06 0.08 0.06 0.06 0.08 0.09 0.12 0.14 0.14 0.17 0.22 0.31 0.44 0.56 0.68 0.73 0.78 0.87 0.95 1.13 1.36 1.47 1.39 1.25 1.11 1.00 0.93 0.91 0.86
0.34 0.23 0.28 0.26 0.16 0.19 0.24 0.30 0.38 0.46 0.77 1.02 0.37 0.35 0.21 0.12 0.13 0.10 0.08 0.09 0.10 0.13 0.15 0.13 0.14 0.17 0.27 0.42 0.51 0.67 0.79 0.82 0.94 0.99 1.10 1.23 1.40 1.50 1.47 1.36 1.22 1.08 1.01 0.96
0.39 0.28 0.27 0.25 0.27 0.29 0.45 0.79 1.20 1.29 1.39 0.88 0.18 0.25 0.23 0.12 0.09 0.12 0.14 0.12 0.12 0.12 0.14 0.14 0.13 0.14 0.22 0.39 0.50 0.63 0.79 0.80 0.89 0.96 1.05 1.17 1.31 1.46 1.57 1.48 1.31 1.21 1.16 1.07
0.51 0.36 0.28 0.29 0.34 0.42 0.49 0.74 1.05 0.97 0.61 0.23 0.11 0.19 0.18 0.11 0.07 0.06 0.08 0.11 0.12 0.12 0.12 0.14 0.14 0.14 0.18 0.28 0.41 0.54 0.75 0.77 0.79 0.87 0.96 1.10 1.27 1.45 1.54 1.56 1.40 1.28 1.20 1.09
0.63 0.37 0.19 0.18 0.19 0.30 0.47 0.51 0.47 0.70 0.51 0.30 0.21 0.17 0.13 0.07 0.04 0.04 0.05 0.06 0.09 0.12 0.11 0.12 0.15 0.15 0.19 0.24 0.34 0.47 0.70 0.78 0.72 0.79 0.88 1.00 1.15 1.36 1.45 1.48 1.47 1.35 1.27 1.20
0.80 0.52 0.23 0.20 0.23 0.30 0.40 0.49 0.54 0.90 0.88 0.53 0.30 0.18 0.19 0.13 0.08 0.06 0.06 0.07 0.09 0.10 0.10 0.10 0.13 0.14 0.17 0.22 0.31 0.44 0.61 0.79 0.77 0.77 0.83 0.92 1.01 1.17 1.32 1.43 1.52 1.41 1.34 1.30
0.76 0.76 0.43 0.35 0.47 0.50 0.47 0.61 0.78 0.82 0.65 0.54 0.41 0.29 0.25 0.19 0.14 0.11 0.09 0.08 0.08 0.09 0.10 0.10 0.12 0.12 0.15 0.18 0.25 0.41 0.55 0.69 0.83 0.85 0.83 0.91 0.99 1.12 1.21 1.25 1.33 1.41 1.41 1.36
0.71 0.93 0.68 0.41 0.39 0.40 0.51 0.59 0.69 0.86 0.66 0.37 0.38 0.33 0.22 0.15 0.13 0.12 0.10 0.08 0.07 0.08 0.09 0.10 0.11 0.12 0.13 0.16 0.22 0.34 0.51 0.64 0.76 0.86 0.89 0.91 0.99 1.12 1.18 1.14 1.13 1.20 1.31 1.34
1.00 1.28 1.04 0.73 0.62 0.54 0.69 0.63 0.60 0.63 0.58 0.45 0.38 0.26 0.16 0.12 0.11 0.11 0.11 0.09 0.08 0.07 0.08 0.10 0.11 0.12 0.13 0.16 0.20 0.27 0.39 0.55 0.68 0.80 0.90 0.87 0.97 1.06 1.08 1.09 1.11 1.10 1.16 1.30
1.19 1.32 0.99 0.86 0.78 0.70 0.68 0.57 0.51 0.65 0.76 0.45 0.26 0.18 0.16 0.15 0.14 0.13 0.12 0.11 0.10 0.09 0.07 0.09 0.11 0.12 0.13 0.14 0.16 0.21 0.30 0.42 0.62 0.78 0.92 0.85 0.89 1.01 1.00 1.01 1.08 1.09 1.12 1.24
1.06 1.07 0.53 0.29 0.24 0.32 0.38 0.36 0.38 0.50 0.49 0.38 0.22 0.17 0.19 0.18 0.18 0.18 0.16 0.13 0.10 0.10 0.08 0.08 0.10 0.13 0.14 0.14 0.14 0.17 0.24 0.31 0.50 0.72 0.90 0.92 0.88 0.94 0.99 0.99 1.06 1.13 1.18 1.26
0.95 0.93 0.46 0.24 0.15 0.20 0.26 0.22 0.24 0.27 0.28 0.25 0.19 0.21 0.18 0.17 0.15 0.16 0.16 0.15 0.13 0.12 0.11 0.08 0.09 0.12 0.14 0.14 0.14 0.17 0.20 0.26 0.39 0.57 0.76 0.88 0.87 0.91 0.99 0.98 1.04 1.11 1.18 1.24
0.91 0.88 0.74 0.40 0.17 0.35 0.48 0.29 0.26 0.24 0.23 0.24 0.26 0.26 0.20 0.18 0.17 0.17 0.16 0.16 0.17 0.16 0.14 0.12 0.11 0.13 0.14 0.14 0.15 0.18 0.19 0.21 0.30 0.45 0.63 0.78 0.80 0.81 0.86 0.90 0.98 1.08 1.17 1.17
0.75 0.84 1.02 0.67 0.49 0.80 0.49 0.20 0.22 0.27 0.29 0.27 0.26 0.23 0.21 0.20 0.20 0.18 0.16 0.17 0.19 0.18 0.16 0.15 0.15 0.15 0.14 0.13 0.14 0.16 0.18 0.20 0.25 0.36 0.52 0.70 0.76 0.74 0.75 0.80 0.85 0.94 1.06 1.12
0.44 0.81 1.23 1.01 0.74 0.47 0.23 0.14 0.22 0.32 0.36 0.27 0.21 0.16 0.17 0.17 0.17 0.17 0.15 0.12 0.13 0.15 0.15 0.15 0.17 0.18 0.17 0.15 0.15 0.17 0.19 0.20 0.24 0.36 0.48 0.61 0.72 0.72 0.69 0.74 0.78 0.82 0.89 0.99
0.53 0.88 1.40 1.21 0.89 0.49 0.27 0.11 0.14 0.28 0.43 0.23 0.16 0.14 0.15 0.19 0.24 0.19 0.13 0.08 0.06 0.08 0.10 0.12 0.13 0.15 0.17 0.17 0.17 0.19 0.23 0.24 0.26 0.39 0.50 0.55 0.64 0.67 0.64 0.69 0.76 0.78 0.80 0.85
0.82 1.26 1.41 1.02 0.81 0.36 0.18 0.11 0.16 0.41 0.48 0.21 0.14 0.13 0.14 0.21 0.24 0.16 0.09 0.08 0.06 0.06 0.08 0.09 0.11 0.13 0.16 0.18 0.19 0.20 0.23 0.27 0.29 0.38 0.45 0.51 0.57 0.60 0.59 0.67 0.70 0.75 0.78 0.79
0.60 0.86 0.87 0.80 0.88 0.45 0.16 0.16 0.35 0.44 0.20 0.13 0.11 0.10 0.11 0.12 0.11 0.09 0.08 0.08 0.08 0.07 0.06 0.07 0.10 0.12 0.13 0.16 0.17 0.19 0.24 0.29 0.32 0.35 0.39 0.47 0.54 0.56 0.57 0.68 0.67 0.68 0.75 0.78
0.46 0.65 0.68 0.63 0.52 0.29 0.21 0.25 0.26 0.20 0.15 0.11 0.09 0.08 0.09 0.10 0.10 0.09 0.10 0.09 0.09 0.07 0.06 0.06 0.08 0.10 0.12 0.14 0.16 0.18 0.22 0.29 0.37 0.36 0.37 0.44 0.52 0.59 0.61 0.67 0.69 0.70 0.71 0.75
0.32 0.35 0.46 0.39 0.27 0.21 0.20 0.18 0.14 0.10 0.10 0.09 0.09 0.09 0.10 0.10 0.09 0.10 0.10 0.10 0.11 0.10 0.07 0.06 0.08 0.11 0.13 0.16 0.17 0.19 0.22 0.29 0.38 0.38 0.38 0.43 0.49 0.58 0.60 0.65 0.67 0.70 0.73 0.82
0.27 0.29 0.36 0.33 0.22 0.17 0.14 0.13 0.13 0.11 0.08 0.07 0.07 0.07 0.08 0.09 0.09 0.09 0.10 0.11 0.12 0.11 0.08 0.07 0.07 0.11 0.14 0.18 0.19 0.18 0.22 0.29 0.37 0.40 0.40 0.42 0.46 0.59 0.62 0.64 0.67 0.70 0.69 0.88
0.19 0.25 0.32 0.30 0.20 0.22 0.17 0.12 0.12 0.13 0.11 0.09 0.09 0.08 0.07 0.08 0.09 0.10 0.12 0.12 0.11 0.10 0.09 0.08 0.08 0.09 0.14 0.19 0.21 0.20 0.23 0.29 0.36 0.42 0.44 0.45 0.48 0.59 0.62 0.65 0.69 0.73 0.73 0.77

GEFSCGP_prec_meanprecacc_228.txt.gz
Total_Precipitation_Accumulation
0.34 0.56 0.52 0.34 0.34 0.31 0.25 0.25 0.18 0.08 0.07 0.15 0.15 0.10 0.08 0.08 0.10 0.11 0.12 0.14 0.15 0.16 0.19 0.21 0.26 0.33 0.35 0.38 0.43 0.51 0.66 0.83 1.00 1.13 1.20 1.17 1.11 0.95 0.89 0.87 0.82 0.74 0.70 0.72
0.46 0.47 0.25 0.18 0.22 0.25 0.28 0.32 0.23 0.13 0.08 0.17 0.17 0.10 0.07 0.08 0.11 0.13 0.13 0.16 0.18 0.16 0.18 0.19 0.24 0.35 0.41 0.43 0.46 0.50 0.62 0.74 0.92 1.05 1.10 1.17 1.12 1.02 0.92 0.89 0.87 0.80 0.71 0.75
0.40 0.29 0.17 0.22 0.30 0.35 0.33 0.30 0.23 0.19 0.16 0.20 0.24 0.17 0.06 0.05 0.07 0.10 0.11 0.13 0.16 0.18 0.18 0.19 0.23 0.32 0.41 0.45 0.49 0.54 0.58 0.66 0.78 1.03 1.25 1.38 1.42 1.30 1.13 1.01 0.92 0.82 0.74 0.69
0.31 0.19 0.21 0.28 0.31 0.38 0.37 0.19 0.20 0.24 0.38 0.38 0.33 0.35 0.08 0.04 0.05 0.07 0.09 0.10 0.11 0.15 0.15 0.16 0.20 0.28 0.36 0.44 0.54 0.63 0.62 0.68 0.78 0.96 1.26 1.42 1.46 1.34 1.09 0.93 0.90 0.87 0.81 0.74
0.44 0.22 0.27 0.32 0.22 0.26 0.28 0.19 0.23 0.29 0.47 0.56 0.38 0.43 0.14 0.06 0.08 0.06 0.06 0.08 0.09 0.12 0.14 0.14 0.17 0.22 0.31 0.44 0.56 0.68 0.74 0.79 0.88 0.95 1.13 1.36 1.47 1.39 1.25 1.11 1.00 0.94 0.92 0.87
0.37 0.25 0.29 0.26 0.17 0.20 0.26 0.31 0.40 0.47 0.80 1.04 0.38 0.36 0.21 0.12 0.13 0.10 0.08 0.09 0.10 0.13 0.15 0.13 0.14 0.17 0.27 0.42 0.51 0.67 0.80 0.83 0.95 1.00 1.10 1.23 1.40 1.50 1.47 1.36 1.23 1.08 1.02 0.97
0.43 0.30 0.28 0.25 0.28 0.30 0.48 0.83 1.26 1.36 1.45 0.90 0.18 0.25 0.23 0.12 0.09 0.12 0.14 0.12 0.12 0.12 0.14 0.14 0.13 0.14 0.22 0.39 0.50 0.63 0.80 0.81 0.90 0.97 1.06 1.17 1.31 1.46 1.57 1.48 1.31 1.21 1.16 1.07
0.55 0.40 0.30 0.29 0.35 0.44 0.51 0.78 1.09 0.99 0.63 0.23 0.11 0.20 0.18 0.11 0.07 0.06 0.08 0.11 0.12 0.12 0.12 0.14 0.14 0.14 0.18 0.28 0.41 0.54 0.75 0.77 0.79 0.88 0.96 1.10 1.28 1.45 1.54 1.57 1.40 1.28 1.20 1.09
0.67 0.39 0.20 0.18 0.20 0.30 0.49 0.54 0.50 0.72 0.52 0.30 0.21 0.17 0.13 0.07 0.04 0.04 0.05 0.06 0.09 0.12 0.11 0.12 0.15 0.15 0.19 0.24 0.34 0.47 0.70 0.78 0.73 0.79 0.88 1.00 1.15 1.36 1.45 1.49 1.47 1.35 1.27 1.20
0.84 0.55 0.24 0.21 0.25 0.31 0.41 0.51 0.57 0.94 0.90 0.54 0.30 0.18 0.19 0.13 0.08 0.06 0.06 0.07 0.09 0.10 0.10 0.10 0.13 0.14 0.17 0.22 0.31 0.44 0.61 0.79 0.77 0.77 0.83 0.93 1.01 1.17 1.32 1.43 1.53 1.41 1.34 1.31
0.79 0.80 0.45 0.37 0.50 0.55 0.50 0.65 0.83 0.86 0.68 0.55 0.41 0.29 0.25 0.19 0.14 0.11 0.09 0.08 0.08 0.09 0.10 0.10 0.12 0.12 0.15 0.18 0.25 0.41 0.55 0.70 0.83 0.85 0.83 0.92 0.99 1.12 1.22 1.25 1.33 1.42 1.42 1.36
0.74 0.98 0.71 0.43 0.40 0.42 0.54 0.62 0.73 0.90 0.69 0.38 0.38 0.33 0.22 0.15 0.13 0.12 0.10 0.08 0.07 0.08 0.09 0.10 0.11 0.12 0.13 0.16 0.22 0.34 0.51 0.64 0.76 0.86 0.89 0.91 0.99 1.12 1.18 1.15 1.14 1.21 1.31 1.34
1.08 1.35 1.08 0.77 0.65 0.57 0.73 0.68 0.64 0.66 0.60 0.46 0.39 0.26 0.16 0.12 0.11 0.11 0.11 0.09 0.08 0.07 0.08 0.10 0.11 0.12 0.13 0.16 0.20 0.27 0.39 0.55 0.68 0.80 0.90 0.87 0.97 1.06 1.08 1.10 1.12 1.11 1.17 1.30
1.25 1.39 1.04 0.91 0.83 0.73 0.71 0.60 0.54 0.69 0.79 0.47 0.26 0.19 0.16 0.15 0.14 0.13 0.12 0.11 0.10 0.09 0.07 0.09 0.11 0.12 0.13 0.14 0.16 0.21 0.30 0.42 0.62 0.78 0.92 0.85 0.89 1.01 1.00 1.02 1.09 1.11 1.14 1.25
1.09 1.11 0.56 0.32 0.27 0.34 0.39 0.37 0.40 0.54 0.52 0.40 0.23 0.17 0.20 0.18 0.18 0.18 0.16 0.13 0.11 0.10 0.08 0.08 0.10 0.13 0.14 0.14 0.14 0.17 0.24 0.31 0.50 0.72 0.90 0.92 0.88 0.94 0.99 0.99 1.07 1.14 1.20 1.27
0.97 0.95 0.48 0.26 0.16 0.22 0.28 0.23 0.26 0.30 0.31 0.27 0.20 0.23 0.19 0.18 0.16 0.17 0.16 0.15 0.14 0.12 0.11 0.08 0.09 0.12 0.14 0.14 0.14 0.17 0.20 0.26 0.39 0.57 0.76 0.88 0.87 0.91 0.99 0.98 1.04 1.12 1.20 1.26
0.93 0.90 0.76 0.42 0.18 0.37 0.51 0.31 0.28 0.27 0.26 0.27 0.28 0.28 0.21 0.19 0.18 0.18 0.17 0.16 0.17 0.16 0.14 0.12 0.11 0.13 0.14 0.14 0.15 0.18 0.19 0.21 0.30 0.45 0.63 0.78 0.80 0.81 0.87 0.90 0.99 1.08 1.18 1.19
0.77 0.87 1.04 0.69 0.51 0.83 0.53 0.23 0.24 0.29 0.31 0.29 0.28 0.25 0.23 0.21 0.22 0.19 0.17 0.18 0.19 0.18 0.17 0.16 0.15 0.15 0.14 0.13 0.14 0.16 0.18 0.20 0.25 0.36 0.52 0.70 0.76 0.74 0.75 0.80 0.85 0.95 1.07 1.13
0.45 0.83 1.27 1.03 0.76 0.49 0.26 0.16 0.25 0.35 0.39 0.30 0.23 0.19 0.19 0.18 0.18 0.18 0.16 0.12 0.13 0.15 0.15 0.15 0.17 0.19 0.17 0.15 0.15 0.17 0.19 0.20 0.24 0.36 0.48 0.61 0.72 0.72 0.69 0.74 0.78 0.82 0.89 0.99
0.55 0.90 1.43 1.24 0.91 0.51 0.29 0.13 0.16 0.31 0.46 0.26 0.19 0.16 0.17 0.20 0.26 0.21 0.14 0.09 0.07 0.08 0.10 0.12 0.13 0.15 0.17 0.17 0.17 0.19 0.23 0.24 0.26 0.39 0.50 0.55 0.64 0.67 0.64 0.69 0.76 0.78 0.80 0.85
0.85 1.30 1.44 1.04 0.83 0.39 0.20 0.12 0.17 0.44 0.51 0.23 0.17 0.15 0.16 0.23 0.26 0.17 0.10 0.09 0.07 0.07 0.08 0.09 0.11 0.13 0.16 0.18 0.19 0.20 0.23 0.27 0.29 0.38 0.45 0.51 0.57 0.60 0.59 0.67 0.70 0.75 0.78 0.79
0.63 0.89 0.90 0.83 0.92 0.48 0.19 0.19 0.39 0.47 0.21 0.14 0.12 0.12 0.12 0.14 0.12 0.10 0.09 0.09 0.08 0.07 0.07 0.08 0.10 0.12 0.13 0.16 0.17 0.19 0.24 0.29 0.32 0.35 0.39 0.47 0.54 0.56 0.57 0.68 0.68 0.68 0.75 0.79
0.49 0.69 0.72 0.67 0.57 0.34 0.25 0.29 0.29 0.22 0.17 0.12 0.11 0.10 0.11 0.12 0.11 0.10 0.10 0.09 0.09 0.08 0.06 0.06 0.09 0.11 0.12 0.14 0.16 0.18 0.22 0.29 0.37 0.36 0.38 0.44 0.53 0.59 0.62 0.67 0.69 0.70 0.72 0.75
0.34 0.37 0.49 0.43 0.31 0.25 0.24 0.21 0.17 0.12 0.12 0.11 0.11 0.11 0.12 0.12 0.11 0.12 0.11 0.11 0.11 0.10 0.07 0.06 0.08 0.11 0.13 0.16 0.17 0.19 0.22 0.29 0.38 0.38 0.38 0.43 0.49 0.58 0.61 0.65 0.67 0.70 0.73 0.82
0.29 0.31 0.38 0.35 0.25 0.20 0.17 0.16 0.16 0.12 0.10 0.09 0.09 0.09 0.10 0.11 0.12 0.11 0.12 0.13 0.13 0.12 0.09 0.08 0.08 0.11 0.14 0.18 0.19 0.18 0.22 0.29 0.37 0.40 0.40 0.42 0.46 0.59 0.62 0.65 0.67 0.70 0.69 0.88
0.21 0.27 0.34 0.31 0.22 0.25 0.20 0.15 0.14 0.15 0.12 0.11 0.11 0.10 0.09 0.10 0.11 0.12 0.15 0.15 0.13 0.12 0.10 0.09 0.08 0.09 0.14 0.19 0.21 0.20 0.23 0.29 0.37 0.43 0.45 0.45 0.48 0.59 0.62 0.65 0.69 0.73 0.74 0.78

GEFSCGP_prec_meanprecacc_234.txt.gz
Total_Precipitation_Accumulation
0.40 0.61 0.55 0.36 0.37 0.33 0.26 0.25 0.18 0.08 0.07 0.15 0.15 0.10 0.08 0.08 0.10 0.11 0.12 0.14 0.15 0.16 0.19 0.21 0.27 0.33 0.36 0.38 0.43 0.52 0.66 0.83 1.01 1.14 1.21 1.17 1.11 0.96 0.90 0.88 0.84 0.75 0.71 0.74
0.51 0.50 0.27 0.20 0.23 0.26 0.29 0.33 0.24 0.13 0.09 0.18 0.17 0.10 0.07 0.08 0.11 0.13 0.13 0.16 0.18 0.16 0.18 0.19 0.24 0.36 0.41 0.44 0.46 0.50 0.62 0.75 0.92 1.06 1.11 1.18 1.13 1.04 0.94 0.92 0.89 0.82 0.73 0.76
0.43 0.30 0.18 0.23 0.32 0.38 0.35 0.31 0.23 0.19 0.16 0.20 0.24 0.17 0.06 0.05 0.07 0.10 0.11 0.13 0.16 0.18 0.18 0.19 0.23 0.32 0.41 0.45 0.49 0.54 0.59 0.66 0.78 1.04 1.27 1.39 1.43 1.31 1.14 1.02 0.94 0.83 0.75 0.70
0.33 0.20 0.22 0.30 0.34 0.40 0.40 0.20 0.20 0.24 0.38 0.39 0.33 0.36 0.09 0.04 0.05 0.07 0.09 0.10 0.11 0.15 0.15 0.16 0.20 0.28 0.36 0.44 0.54 0.63 0.62 0.69 0.79 0.97 1.27 1.43 1.47 1.35 1.10 0.95 0.91 0.88 0.82 0.75
0.47 0.24 0.28 0.33 0.24 0.28 0.31 0.21 0.24 0.30 0.47 0.56 0.39 0.44 0.14 0.06 0.08 0.06 0.06 0.08 0.09 0.12 0.14 0.14 0.17 0.22 0.31 0.44 0.56 0.68 0.74 0.79 0.89 0.97 1.15 1.38 1.48 1.41 1.27 1.12 1.00 0.94 0.92 0.88
0.39 0.27 0.31 0.27 0.17 0.22 0.28 0.34 0.43 0.50 0.82 1.06 0.38 0.36 0.21 0.12 0.13 0.10 0.08 0.09 0.10 0.13 0.15 0.13 0.14 0.17 0.27 0.42 0.51 0.67 0.80 0.83 0.95 1.00 1.11 1.24 1.41 1.51 1.48 1.36 1.23 1.08 1.02 0.97
0.46 0.33 0.30 0.26 0.29 0.33 0.53 0.90 1.36 1.46 1.52 0.93 0.19 0.25 0.23 0.12 0.09 0.12 0.14 0.12 0.12 0.12 0.14 0.14 0.13 0.14 0.22 0.39 0.50 0.63 0.80 0.81 0.90 0.97 1.06 1.17 1.32 1.47 1.58 1.48 1.32 1.21 1.17 1.08
0.58 0.43 0.33 0.32 0.37 0.47 0.57 0.84 1.14 1.04 0.65 0.24 0.12 0.20 0.18 0.11 0.07 0.06 0.08 0.11 0.12 0.12 0.12 0.14 0.14 0.14 0.18 0.28 0.41 0.54 0.75 0.77 0.80 0.88 0.97 1.11 1.28 1.46 1.55 1.57 1.40 1.28 1.20 1.10
0.70 0.42 0.22 0.20 0.22 0.32 0.52 0.58 0.53 0.75 0.53 0.31 0.21 0.17 0.13 0.07 0.04 0.04 0.05 0.06 0.09 0.12 0.11 0.12 0.15 0.15 0.19 0.24 0.34 0.47 0.70 0.78 0.73 0.79 0.88 1.01 1.16 1.37 1.46 1.49 1.48 1.35 1.27 1.21
0.87 0.58 0.27 0.23 0.27 0.33 0.43 0.54 0.62 1.00 0.93 0.55 0.30 0.18 0.19 0.13 0.08 0.06 0.06 0.07 0.09 0.10 0.10 0.10 0.13 0.14 0.17 0.22 0.31 0.44 0.61 0.79 0.77 0.77 0.84 0.93 1.01 1.18 1.32 1.44 1.53 1.41 1.34 1.31
0.82 0.84 0.49 0.41 0.54 0.58 0.53 0.69 0.89 0.92 0.72 0.58 0.42 0.29 0.26 0.19 0.14 0.11 0.09 0.08 0.08 0.09 0.10 0.10 0.12 0.12 0.15 0.18 0.25 0.41 0.55 0.70 0.83 0.85 0.83 0.92 1.00 1.12 1.22 1.26 1.33 1.42 1.42 1.36
0.78 1.01 0.75 0.47 0.43 0.45 0.56 0.65 0.77 0.96 0.74 0.41 0.40 0.34 0.23 0.16 0.14 0.12 0.10 0.08 0.07 0.08 0.09 0.10 0.11 0.12 0.13 0.16 0.22 0.34 0.51 0.64 0.76 0.86 0.89 0.91 0.99 1.13 1.18 1.15 1.14 1.21 1.31 1.34
1.13 1.39 1.13 0.82 0.70 0.60 0.76 0.70 0.66 0.69 0.63 0.48 0.40 0.27 0.17 0.13 0.12 0.12 0.11 0.09 0.08 0.07 0.08 0.10 0.11 0.12 0.13 0.16 0.20 0.27 0.39 0.55 0.69 0.80 0.90 0.87 0.97 1.06 1.09 1.10 1.12 1.11 1.17 1.31
1.29 1.43 1.07 0.95 0.87 0.77 0.74 0.63 0.58 0.73 0.84 0.49 0.27 0.20 0.17 0.15 0.14 0.13 0.12 0.11 0.10 0.09 0.07 0.09 0.11 0.12 0.13 0.14 0.16 0.21 0.30 0.42 0.62 0.78 0.92 0.85 0.89 1.01 1.00 1.02 1.09 1.11 1.14 1.25
1.11 1.14 0.57 0.34 0.28 0.37 0.42 0.40 0.43 0.57 0.55 0.43 0.24 0.18 0.20 0.19 0.19 0.19 0.16 0.13 0.11 0.10 0.08 0.08 0.10 0.13 0.14 0.14 0.14 0.17 0.24 0.31 0.50 0.72 0.91 0.92 0.88 0.94 1.00 0.99 1.07 1.14 1.20 1.27
0.98 0.97 0.49 0.27 0.17 0.24 0.30 0.25 0.28 0.32 0.33 0.30 0.22 0.24 0.20 0.19 0.16 0.17 0.17 0.15 0.14 0.12 0.11 0.09 0.09 0.12 0.14 0.14 0.14 0.17 0.20 0.26 0.39 0.57 0.77 0.88 0.87 0.91 0.99 0.98 1.04 1.12 1.20 1.26
0.94 0.91 0.77 0.43 0.18 0.39 0.53 0.34 0.31 0.30 0.30 0.31 0.31 0.30 0.23 0.21 0.20 0.19 0.17 0.17 0.18 0.17 0.15 0.12 0.11 0.13 0.14 0.14 0.15 0.18 0.19 0.21 0.30 0.45 0.63 0.78 0.80 0.81 0.87 0.90 0.99 1.08 1.18 1.19
0.78 0.88 1.06 0.70 0.52 0.86 0.56 0.26 0.27 0.32 0.35 0.33 0.32 0.28 0.26 0.24 0.24 0.21 0.18 0.19 0.19 0.19 0.17 0.16 0.16 0.15 0.14 0.13 0.14 0.16 0.18 0.20 0.25 0.36 0.52 0.70 0.76 0.74 0.75 0.80 0.85 0.95 1.07 1.13
0.47 0.85 1.29 1.05 0.77 0.51 0.28 0.18 0.26 0.37 0.42 0.33 0.26 0.21 0.21 0.20 0.20 0.20 0.17 0.13 0.14 0.16 0.16 0.16 0.18 0.20 0.18 0.16 0.16 0.17 0.19 0.20 0.24 0.36 0.48 0.61 0.72 0.72 0.69 0.74 0.78 0.82 0.89 0.99
0.56 0.92 1.46 1.26 0.93 0.54 0.32 0.15 0.17 0.32 0.49 0.28 0.21 0.18 0.19 0.22 0.27 0.23 0.15 0.09 0.07 0.09 0.11 0.12 0.13 0.16 0.18 0.19 0.19 0.20 0.24 0.24 0.26 0.39 0.50 0.55 0.64 0.67 0.64 0.69 0.76 0.78 0.80 0.85
0.87 1.33 1.47 1.06 0.85 0.41 0.22 0.13 0.18 0.45 0.53 0.25 0.18 0.16 0.17 0.25 0.28 0.18 0.11 0.09 0.07 0.07 0.09 0.10 0.11 0.13 0.17 0.19 0.20 0.21 0.24 0.28 0.30 0.38 0.45 0.51 0.57 0.60 0.59 0.67 0.70 0.75 0.78 0.79
0.65 0.91 0.92 0.85 0.93 0.50 0.20 0.20 0.41 0.49 0.23 0.15 0.13 0.13 0.14 0.15 0.13 0.11 0.10 0.09 0.09 0.07 0.07 0.08 0.10 0.12 0.14 0.16 0.18 0.20 0.25 0.30 0.34 0.36 0.39 0.47 0.54 0.56 0.57 0.68 0.68 0.68 0.75 0.79
0.51 0.71 0.74 0.69 0.59 0.36 0.26 0.31 0.31 0.24 0.18 0.13 0.12 0.11 0.13 0.13 0.12 0.12 0.11 0.10 0.10 0.08 0.06 0.07 0.09 0.11 0.12 0.15 0.16 0.18 0.23 0.29 0.38 0.37 0.38 0.45 0.53 0.59 0.62 0.68 0.70 0.70 0.72 0.76
0.36 0.40 0.51 0.44 0.32 0.27 0.25 0.22 0.18 0.13 0.14 0.12 0.12 0.13 0.14 0.14 0.13 0.14 0.13 0.12 0.12 0.11 0.08 0.07 0.08 0.11 0.14 0.16 0.18 0.19 0.23 0.29 0.38 0.38 0.38 0.43 0.49 0.58 0.61 0.66 0.68 0.70 0.74 0.83
0.31 0.33 0.40 0.37 0.27 0.22 0.18 0.17 0.17 0.14 0.11 0.11 0.11 0.11 0.13 0.14 0.14 0.14 0.14 0.15 0.15 0.14 0.10 0.09 0.08 0.11 0.15 0.18 0.20 0.19 0.23 0.30 0.37 0.40 0.40 0.43 0.47 0.59 0.62 0.65 0.68 0.70 0.70 0.88
0.22 0.29 0.36 0.33 0.24 0.27 0.22 0.18 0.17 0.16 0.14 0.13 0.13 0.13 0.12 0.13 0.14 0.15 0.17 0.18 0.17 0.15 0.12 0.10 0.09 0.10 0.15 0.19 0.22 0.21 0.24 0.30 0.38 0.43 0.45 0.45 0.48 0.59 0.63 0.65 0.70 0.73 0.74 0.78

GEFSCGP_prec_meanprecacc_240.txt.gz
Total_Precipitation_Accumulation
0.49 0.68 0.61 0.40 0.40 0.35 0.27 0.27 0.19 0.08 0.07 0.16 0.15 0.11 0.08 0.08 0.10 0.11 0.12 0.14 0.15 0.16 0.19 0.22 0.28 0.35 0.37 0.39 0.44 0.53 0.67 0.84 1.02 1.15 1.23 1.19 1.13 0.97 0.91 0.90 0.85 0.76 0.72 0.75
0.58 0.55 0.29 0.21 0.25 0.28 0.31 0.34 0.25 0.14 0.09 0.18 0.17 0.10 0.07 0.08 0.11 0.13 0.13 0.16 0.18 0.16 0.18 0.20 0.25 0.37 0.42 0.45 0.47 0.51 0.62 0.75 0.93 1.06 1.12 1.19 1.14 1.05 0.96 0.93 0.91 0.83 0.74 0.78
0.47 0.32 0.20 0.25 0.34 0.41 0.37 0.32 0.25 0.21 0.17 0.21 0.25 0.18 0.06 0.05 0.07 0.10 0.11 0.13 0.16 0.18 0.18 0.19 0.23 0.33 0.42 0.46 0.50 0.54 0.59 0.67 0.79 1.04 1.27 1.40 1.44 1.32 1.15 1.03 0.94 0.84 0.77 0.72
0.37 0.22 0.24 0.32 0.35 0.43 0.42 0.22 0.22 0.27 0.41 0.41 0.34 0.37 0.09 0.04 0.05 0.07 0.09 0.10 0.11 0.15 0.15 0.16 0.21 0.28 0.37 0.44 0.54 0.63 0.63 0.70 0.79 0.97 1.27 1.43 1.48 1.36 1.10 0.95 0.92 0.89 0.83 0.77
0.50 0.26 0.30 0.36 0.26 0.30 0.33 0.22 0.25 0.31 0.50 0.59 0.40 0.45 0.15 0.06 0.08 0.06 0.06 0.08 0.09 0.12 0.14 0.14 0.17 0.22 0.31 0.45 0.56 0.69 0.74 0.80 0.89 0.97 1.15 1.39 1.49 1.41 1.27 1.12 1.01 0.95 0.93 0.89
0.41 0.28 0.33 0.29 0.19 0.23 0.31 0.37 0.45 0.53 0.87 1.12 0.39 0.36 0.21 0.12 0.13 0.10 0.08 0.09 0.10 0.13 0.15 0.13 0.14 0.17 0.27 0.43 0.52 0.68 0.80 0.83 0.95 1.01 1.12 1.25 1.42 1.52 1.49 1.37 1.23 1.09 1.03 0.98
0.50 0.36 0.33 0.29 0.31 0.35 0.56 0.96 1.45 1.56 1.62 0.98 0.19 0.25 0.23 0.12 0.09 0.12 0.14 0.12 0.12 0.12 0.14 0.14 0.13 0.14 0.22 0.40 0.51 0.64 0.80 0.81 0.90 0.98 1.07 1.18 1.33 1.48 1.58 1.49 1.33 1.22 1.18 1.08
0.62 0.47 0.35 0.34 0.39 0.49 0.59 0.88 1.21 1.10 0.69 0.25 0.12 0.20 0.18 0.11 0.07 0.06 0.08 0.11 0.12 0.12 0.12 0.14 0.14 0.14 0.19 0.28 0.41 0.55 0.75 0.78 0.80 0.88 0.97 1.11 1.29 1.46 1.55 1.58 1.41 1.29 1.21 1.10
0.75 0.45 0.23 0.21 0.23 0.33 0.54 0.62 0.57 0.80 0.56 0.32 0.21 0.17 0.13 0.07 0.04 0.04 0.05 0.07 0.09 0.12 0.11 0.12 0.15 0.15 0.19 0.24 0.34 0.47 0.70 0.78 0.73 0.79 0.88 1.01 1.16 1.37 1.46 1.49 1.48 1.36 1.28 1.21
0.91 0.62 0.29 0.24 0.29 0.36 0.45 0.57 0.66 1.07 1.00 0.58 0.31 0.18 0.20 0.13 0.08 0.06 0.06 0.07 0.09 0.10 0.10 0.10 0.13 0.14 0.17 0.22 0.31 0.44 0.61 0.79 0.77 0.77 0.84 0.93 1.01 1.18 1.33 1.44 1.54 1.42 1.35 1.31
0.84 0.88 0.53 0.44 0.57 0.63 0.56 0.73 0.93 0.97 0.77 0.62 0.45 0.31 0.26 0.19 0.14 0.12 0.09 0.08 0.08 0.09 0.10 0.10 0.12 0.12 0.15 0.18 0.26 0.41 0.55 0.70 0.83 0.85 0.83 0.92 1.00 1.12 1.22 1.26 1.34 1.42 1.42 1.37
0.79 1.05 0.79 0.50 0.45 0.48 0.60 0.69 0.81 1.01 0.78 0.44 0.43 0.38 0.24 0.16 0.14 0.13 0.11 0.08 0.07 0.08 0.10 0.10 0.11 0.12 0.13 0.16 0.22 0.34 0.51 0.64 0.76 0.86 0.89 0.91 0.99 1.13 1.19 1.15 1.14 1.21 1.32 1.34
1.16 1.44 1.17 0.86 0.74 0.63 0.80 0.74 0.71 0.73 0.67 0.52 0.44 0.31 0.18 0.13 0.12 0.13 0.12 0.10 0.08 0.07 0.08 0.10 0.11 0.12 0.13 0.16 0.20 0.27 0.39 0.55 0.69 0.80 0.90 0.87 0.97 1.06 1.09 1.10 1.12 1.11 1.17 1.31
1.31 1.45 1.09 1.00 0.92 0.81 0.78 0.67 0.60 0.77 0.90 0.53 0.30 0.22 0.18 0.16 0.15 0.13 0.12 0.11 0.10 0.09 0.08 0.09 0.11 0.12 0.13 0.14 0.16 0.21 0.30 0.42 0.62 0.78 0.92 0.85 0.89 1.01 1.00 1.02 1.09 1.11 1.14 1.26
1.13 1.16 0.58 0.34 0.29 0.38 0.44 0.44 0.45 0.60 0.58 0.45 0.27 0.20 0.22 0.20 0.20 0.19 0.17 0.14 0.11 0.10 0.08 0.08 0.11 0.13 0.14 0.14 0.14 0.17 0.24 0.31 0.50 0.72 0.91 0.92 0.88 0.94 1.00 1.00 1.07 1.14 1.20 1.27
0.99 0.99 0.50 0.28 0.18 0.25 0.31 0.27 0.30 0.33 0.35 0.31 0.23 0.26 0.21 0.20 0.17 0.18 0.18 0.16 0.15 0.13 0.12 0.09 0.10 0.13 0.14 0.14 0.14 0.17 0.20 0.26 0.39 0.57 0.77 0.88 0.87 0.91 0.99 0.98 1.04 1.12 1.20 1.26
0.95 0.93 0.78 0.44 0.20 0.40 0.56 0.36 0.33 0.33 0.33 0.33 0.33 0.32 0.25 0.23 0.21 0.21 0.19 0.18 0.19 0.18 0.15 0.13 0.12 0.14 0.14 0.14 0.15 0.18 0.19 0.21 0.30 0.45 0.63 0.78 0.81 0.81 0.87 0.90 0.99 1.08 1.18 1.19
0.79 0.89 1.08 0.72 0.53 0.89 0.60 0.28 0.29 0.35 0.38 0.35 0.34 0.30 0.28 0.27 0.26 0.22 0.19 0.20 0.21 0.20 0.18 0.17 0.16 0.16 0.15 0.14 0.15 0.16 0.18 0.20 0.25 0.36 0.52 0.70 0.76 0.75 0.75 0.80 0.85 0.95 1.07 1.14
0.48 0.86 1.31 1.07 0.79 0.54 0.31 0.19 0.29 0.40 0.45 0.36 0.28 0.23 0.22 0.22 0.22 0.22 0.19 0.15 0.15 0.17 0.17 0.16 0.19 0.21 0.19 0.17 0.16 0.18 0.19 0.20 0.24 0.36 0.48 0.61 0.73 0.72 0.69 0.74 0.78 0.83 0.90 0.99
0.57 0.94 1.49 1.28 0.96 0.56 0.34 0.16 0.19 0.34 0.52 0.31 0.23 0.20 0.20 0.23 0.29 0.25 0.17 0.10 0.08 0.09 0.12 0.13 0.14 0.17 0.19 0.20 0.20 0.21 0.24 0.24 0.26 0.39 0.50 0.56 0.64 0.67 0.64 0.69 0.76 0.78 0.80 0.86
0.88 1.35 1.49 1.08 0.87 0.43 0.23 0.14 0.19 0.48 0.57 0.27 0.20 0.18 0.19 0.26 0.30 0.20 0.12 0.10 0.08 0.08 0.09 0.11 0.12 0.14 0.18 0.20 0.21 0.22 0.25 0.29 0.30 0.39 0.46 0.51 0.57 0.60 0.59 0.67 0.70 0.75 0.78 0.79
0.67 0.93 0.94 0.87 0.96 0.52 0.21 0.21 0.42 0.51 0.25 0.17 0.15 0.14 0.15 0.17 0.14 0.12 0.11 0.10 0.09 0.08 0.08 0.09 0.11 0.13 0.15 0.17 0.19 0.21 0.26 0.32 0.35 0.37 0.40 0.48 0.54 0.56 0.57 0.68 0.68 0.68 0.75 0.79
0.53 0.74 0.76 0.71 0.61 0.39 0.28 0.33 0.33 0.26 0.20 0.14 0.13 0.12 0.14 0.15 0.14 0.13 0.13 0.11 0.11 0.09 0.08 0.08 0.10 0.12 0.13 0.15 0.17 0.19 0.24 0.31 0.39 0.38 0.39 0.46 0.54 0.60 0.63 0.68 0.70 0.70 0.72 0.76
0.37 0.41 0.53 0.45 0.33 0.28 0.27 0.24 0.19 0.15 0.15 0.13 0.13 0.14 0.16 0.16 0.15 0.16 0.15 0.14 0.14 0.13 0.10 0.09 0.10 0.13 0.15 0.18 0.19 0.20 0.24 0.30 0.39 0.40 0.40 0.45 0.51 0.60 0.62 0.67 0.68 0.71 0.74 0.83
0.32 0.33 0.41 0.38 0.28 0.22 0.19 0.18 0.18 0.15 0.12 0.11 0.12 0.13 0.15 0.16 0.16 0.16 0.17 0.17 0.17 0.16 0.12 0.10 0.10 0.13 0.17 0.20 0.21 0.20 0.24 0.31 0.39 0.42 0.42 0.44 0.48 0.60 0.63 0.66 0.68 0.71 0.70 0.89
0.23 0.30 0.37 0.34 0.25 0.29 0.23 0.19 0.18 0.17 0.15 0.14 0.14 0.14 0.13 0.15 0.16 0.16 0.19 0.20 0.19 0.17 0.14 0.12 0.11 0.12 0.16 0.21 0.23 0.22 0.25 0.31 0.39 0.45 0.46 0.46 0.49 0.60 0.64 0.66 0.70 0.74 0.75 0.79

GEFSCGP_prec_meanprecacc_246.txt.gz
Total_Precipitation_Accumulation
0.53 0.72 0.64 0.43 0.44 0.39 0.30 0.29 0.21 0.10 0.08 0.17 0.16 0.11 0.08 0.08 0.10 0.11 0.13 0.16 0.17 0.17 0.21 0.24 0.31 0.38 0.41 0.43 0.49 0.57 0.72 0.90 1.07 1.20 1.27 1.23 1.16 1.00 0.95 0.93 0.89 0.80 0.75 0.77
0.62 0.58 0.30 0.22 0.27 0.32 0.33 0.37 0.28 0.16 0.10 0.19 0.18 0.11 0.08 0.08 0.11 0.13 0.14 0.18 0.20 0.17 0.20 0.22 0.28 0.40 0.45 0.48 0.51 0.55 0.66 0.79 0.97 1.11 1.17 1.23 1.18 1.09 1.00 0.96 0.94 0.86 0.77 0.80
0.50 0.34 0.20 0.26 0.36 0.45 0.40 0.35 0.27 0.24 0.19 0.22 0.25 0.18 0.06 0.06 0.07 0.10 0.11 0.14 0.17 0.19 0.19 0.20 0.25 0.36 0.45 0.48 0.53 0.58 0.63 0.70 0.82 1.08 1.31 1.43 1.47 1.35 1.18 1.06 0.97 0.86 0.79 0.74
0.39 0.23 0.25 0.33 0.37 0.46 0.46 0.23 0.24 0.29 0.45 0.45 0.36 0.39 0.09 0.04 0.05 0.07 0.09 0.10 0.12 0.16 0.16 0.17 0.22 0.30 0.39 0.46 0.57 0.66 0.66 0.73 0.83 1.00 1.30 1.46 1.50 1.38 1.12 0.97 0.95 0.91 0.85 0.78
0.53 0.27 0.32 0.37 0.27 0.32 0.36 0.24 0.28 0.35 0.56 0.64 0.43 0.47 0.16 0.07 0.08 0.07 0.07 0.08 0.09 0.13 0.15 0.14 0.17 0.23 0.33 0.47 0.59 0.70 0.76 0.82 0.92 1.00 1.18 1.41 1.51 1.43 1.29 1.14 1.02 0.96 0.94 0.89
0.43 0.29 0.35 0.30 0.20 0.25 0.33 0.39 0.48 0.57 0.93 1.20 0.43 0.39 0.22 0.12 0.13 0.10 0.08 0.09 0.10 0.13 0.15 0.14 0.15 0.18 0.29 0.45 0.54 0.70 0.82 0.85 0.98 1.03 1.13 1.27 1.44 1.54 1.50 1.38 1.25 1.09 1.03 0.98
0.53 0.38 0.36 0.31 0.34 0.39 0.60 1.02 1.54 1.67 1.73 1.05 0.21 0.27 0.25 0.13 0.10 0.12 0.14 0.13 0.12 0.12 0.14 0.14 0.13 0.16 0.23 0.41 0.53 0.67 0.83 0.83 0.92 1.00 1.08 1.20 1.35 1.50 1.60 1.51 1.34 1.23 1.18 1.09
0.65 0.50 0.38 0.37 0.42 0.54 0.63 0.93 1.28 1.17 0.74 0.29 0.14 0.23 0.20 0.11 0.07 0.06 0.09 0.11 0.12 0.12 0.12 0.14 0.14 0.15 0.19 0.29 0.43 0.57 0.78 0.80 0.82 0.90 0.99 1.13 1.31 1.48 1.57 1.59 1.42 1.30 1.22 1.11
0.77 0.47 0.24 0.22 0.25 0.36 0.58 0.66 0.61 0.85 0.61 0.36 0.24 0.19 0.16 0.08 0.05 0.04 0.05 0.07 0.10 0.12 0.11 0.12 0.15 0.16 0.19 0.25 0.35 0.49 0.73 0.80 0.75 0.81 0.90 1.03 1.18 1.38 1.47 1.51 1.50 1.37 1.29 1.22
0.93 0.65 0.30 0.25 0.31 0.38 0.47 0.59 0.69 1.12 1.05 0.61 0.34 0.20 0.21 0.14 0.08 0.06 0.07 0.07 0.09 0.10 0.10 0.10 0.13 0.14 0.18 0.22 0.32 0.46 0.63 0.81 0.79 0.78 0.85 0.94 1.03 1.20 1.34 1.45 1.55 1.43 1.36 1.32
0.85 0.90 0.56 0.46 0.60 0.65 0.58 0.75 0.96 1.01 0.80 0.65 0.48 0.34 0.28 0.20 0.14 0.12 0.09 0.08 0.09 0.09 0.10 0.10 0.12 0.13 0.15 0.19 0.27 0.43 0.57 0.72 0.85 0.87 0.84 0.93 1.01 1.13 1.23 1.26 1.34 1.43 1.44 1.38
0.81 1.07 0.81 0.53 0.47 0.50 0.63 0.72 0.83 1.05 0.81 0.46 0.47 0.41 0.26 0.17 0.14 0.14 0.11 0.09 0.08 0.08 0.10 0.10 0.11 0.12 0.14 0.17 0.22 0.34 0.52 0.66 0.78 0.87 0.91 0.92 1.00 1.13 1.19 1.16 1.14 1.21 1.32 1.35
1.19 1.46 1.20 0.89 0.76 0.66 0.83 0.76 0.72 0.76 0.71 0.55 0.46 0.34 0.20 0.14 0.12 0.13 0.12 0.10 0.08 0.07 0.08 0.10 0.11 0.12 0.14 0.16 0.21 0.27 0.39 0.56 0.70 0.82 0.92 0.88 0.98 1.07 1.09 1.10 1.12 1.12 1.18 1.31
1.33 1.47 1.12 1.02 0.94 0.84 0.82 0.68 0.61 0.78 0.93 0.57 0.32 0.24 0.20 0.17 0.15 0.14 0.13 0.11 0.11 0.09 0.08 0.09 0.12 0.12 0.13 0.14 0.16 0.22 0.31 0.43 0.63 0.80 0.94 0.87 0.91 1.02 1.01 1.03 1.10 1.11 1.14 1.26
1.13 1.17 0.59 0.36 0.30 0.40 0.47 0.45 0.47 0.62 0.61 0.49 0.30 0.22 0.24 0.23 0.22 0.21 0.18 0.14 0.11 0.11 0.09 0.09 0.11 0.14 0.15 0.14 0.15 0.18 0.25 0.32 0.51 0.74 0.92 0.94 0.90 0.96 1.01 1.01 1.08 1.15 1.20 1.27
1.00 1.01 0.51 0.28 0.19 0.26 0.33 0.29 0.32 0.35 0.37 0.34 0.25 0.29 0.24 0.23 0.20 0.20 0.18 0.16 0.15 0.14 0.12 0.09 0.10 0.13 0.15 0.16 0.16 0.18 0.21 0.27 0.40 0.59 0.78 0.89 0.88 0.92 1.00 0.98 1.05 1.12 1.20 1.26
0.96 0.94 0.80 0.45 0.20 0.41 0.57 0.38 0.36 0.36 0.36 0.35 0.35 0.34 0.27 0.25 0.24 0.23 0.20 0.18 0.19 0.19 0.16 0.13 0.13 0.14 0.15 0.15 0.17 0.20 0.21 0.22 0.31 0.46 0.64 0.78 0.81 0.81 0.87 0.90 0.99 1.08 1.18 1.19
0.80 0.90 1.09 0.73 0.54 0.90 0.63 0.30 0.31 0.38 0.42 0.39 0.36 0.32 0.29 0.28 0.28 0.25 0.22 0.22 0.22 0.21 0.19 0.17 0.17 0.17 0.16 0.14 0.15 0.17 0.19 0.21 0.26 0.37 0.53 0.71 0.76 0.75 0.76 0.80 0.85 0.95 1.07 1.14
0.48 0.87 1.32 1.08 0.80 0.55 0.33 0.21 0.31 0.42 0.48 0.39 0.31 0.25 0.24 0.23 0.23 0.24 0.21 0.17 0.17 0.18 0.18 0.18 0.20 0.22 0.20 0.18 0.17 0.18 0.20 0.21 0.25 0.37 0.49 0.62 0.73 0.73 0.69 0.75 0.78 0.83 0.90 1.00
0.57 0.95 1.50 1.29 0.97 0.58 0.36 0.17 0.20 0.36 0.54 0.32 0.25 0.22 0.22 0.24 0.31 0.28 0.19 0.13 0.10 0.11 0.13 0.14 0.15 0.18 0.19 0.20 0.20 0.21 0.25 0.25 0.28 0.40 0.51 0.56 0.65 0.67 0.64 0.70 0.77 0.79 0.80 0.86
0.90 1.36 1.51 1.09 0.89 0.44 0.24 0.14 0.19 0.49 0.59 0.29 0.22 0.20 0.21 0.28 0.32 0.23 0.14 0.12 0.09 0.09 0.10 0.11 0.13 0.15 0.18 0.21 0.22 0.23 0.26 0.30 0.32 0.40 0.47 0.52 0.57 0.61 0.60 0.67 0.70 0.75 0.78 0.80
0.69 0.95 0.95 0.88 0.97 0.53 0.22 0.21 0.44 0.53 0.26 0.19 0.17 0.16 0.17 0.18 0.16 0.13 0.12 0.11 0.10 0.09 0.09 0.10 0.12 0.13 0.15 0.18 0.20 0.21 0.27 0.33 0.37 0.39 0.42 0.49 0.55 0.57 0.58 0.68 0.68 0.68 0.75 0.79
0.54 0.75 0.77 0.72 0.64 0.41 0.30 0.34 0.35 0.28 0.21 0.16 0.15 0.14 0.16 0.16 0.15 0.14 0.14 0.12 0.12 0.10 0.09 0.09 0.11 0.13 0.14 0.17 0.19 0.21 0.25 0.32 0.41 0.41 0.42 0.47 0.55 0.61 0.63 0.69 0.71 0.71 0.72 0.76
0.38 0.42 0.54 0.47 0.36 0.30 0.28 0.25 0.20 0.16 0.16 0.15 0.15 0.16 0.17 0.17 0.16 0.16 0.16 0.15 0.15 0.14 0.12 0.11 0.12 0.15 0.17 0.20 0.21 0.23 0.26 0.33 0.42 0.42 0.43 0.47 0.53 0.62 0.64 0.68 0.70 0.72 0.75 0.84
0.32 0.34 0.41 0.39 0.29 0.23 0.19 0.19 0.19 0.16 0.13 0.12 0.13 0.14 0.16 0.17 0.17 0.17 0.18 0.18 0.18 0.17 0.14 0.12 0.12 0.15 0.19 0.22 0.23 0.23 0.26 0.34 0.42 0.45 0.44 0.46 0.50 0.61 0.65 0.67 0.70 0.73 0.71 0.90
0.24 0.31 0.38 0.34 0.26 0.29 0.24 0.19 0.18 0.18 0.16 0.14 0.15 0.15 0.14 0.15 0.17 0.18 0.20 0.21 0.20 0.19 0.16 0.14 0.14 0.15 0.19 0.23 0.25 0.25 0.27 0.33 0.42 0.47 0.49 0.48 0.51 0.61 0.65 0.67 0.72 0.76 0.76 0.80

GEFSCGP_prec_meanprecacc_252.txt.gz
Total_Precipitation_Accumulation
0.59 0.78 0.70 0.48 0.48 0.41 0.33 0.32 0.23 0.13 0.11 0.21 0.20 0.14 0.10 0.10 0.13 0.13 0.14 0.17 0.18 0.18 0.23 0.28 0.37 0.45 0.49 0.51 0.57 0.64 0.80 0.98 1.14 1.27 1.35 1.31 1.26 1.13 1.06 1.02 0.96 0.86 0.82 0.83
0.69 0.63 0.33 0.24 0.29 0.34 0.37 0.40 0.29 0.19 0.13 0.22 0.22 0.14 0.10 0.10 0.13 0.15 0.15 0.19 0.21 0.18 0.21 0.26 0.34 0.45 0.50 0.53 0.56 0.62 0.75 0.89 1.05 1.19 1.24 1.30 1.26 1.19 1.12 1.07 1.02 0.93 0.83 0.88
0.56 0.37 0.23 0.28 0.38 0.47 0.42 0.37 0.29 0.27 0.24 0.26 0.30 0.22 0.09 0.08 0.09 0.12 0.13 0.15 0.18 0.20 0.20 0.23 0.30 0.40 0.49 0.52 0.57 0.64 0.71 0.82 0.95 1.18 1.40 1.52 1.56 1.44 1.29 1.17 1.05 0.93 0.86 0.82
0.43 0.25 0.28 0.36 0.40 0.47 0.48 0.25 0.25 0.31 0.50 0.51 0.41 0.44 0.12 0.06 0.07 0.08 0.11 0.11 0.12 0.17 0.17 0.19 0.26 0.34 0.43 0.50 0.61 0.70 0.71 0.80 0.94 1.13 1.39 1.54 1.59 1.45 1.20 1.06 1.03 0.97 0.91 0.86
0.56 0.29 0.34 0.40 0.29 0.34 0.38 0.26 0.29 0.37 0.60 0.70 0.47 0.51 0.18 0.08 0.09 0.07 0.08 0.09 0.09 0.14 0.16 0.15 0.21 0.27 0.37 0.51 0.62 0.74 0.80 0.87 0.99 1.09 1.28 1.51 1.60 1.50 1.35 1.22 1.10 1.02 0.99 0.94
0.45 0.31 0.38 0.32 0.22 0.27 0.36 0.42 0.51 0.60 0.99 1.25 0.46 0.42 0.25 0.14 0.15 0.11 0.09 0.09 0.10 0.13 0.17 0.15 0.18 0.23 0.33 0.48 0.57 0.74 0.86 0.90 1.03 1.09 1.21 1.36 1.54 1.62 1.56 1.44 1.30 1.14 1.07 1.01
0.56 0.40 0.38 0.33 0.36 0.42 0.63 1.07 1.62 1.78 1.84 1.11 0.23 0.29 0.28 0.14 0.11 0.13 0.14 0.13 0.12 0.13 0.15 0.16 0.17 0.19 0.27 0.44 0.55 0.69 0.87 0.88 0.97 1.05 1.14 1.26 1.43 1.58 1.67 1.56 1.38 1.26 1.21 1.12
0.70 0.54 0.41 0.40 0.45 0.58 0.67 0.98 1.33 1.23 0.79 0.32 0.16 0.25 0.23 0.13 0.08 0.08 0.09 0.11 0.12 0.12 0.13 0.16 0.16 0.18 0.22 0.31 0.45 0.59 0.80 0.83 0.86 0.94 1.03 1.18 1.37 1.54 1.63 1.65 1.46 1.32 1.24 1.14
0.81 0.51 0.27 0.26 0.27 0.39 0.63 0.70 0.64 0.89 0.64 0.38 0.26 0.22 0.18 0.09 0.06 0.05 0.06 0.07 0.10 0.13 0.12 0.13 0.17 0.18 0.21 0.27 0.37 0.51 0.75 0.83 0.78 0.84 0.94 1.06 1.22 1.43 1.53 1.57 1.54 1.39 1.31 1.24
0.95 0.67 0.32 0.28 0.34 0.41 0.50 0.63 0.72 1.16 1.08 0.63 0.35 0.21 0.23 0.16 0.10 0.08 0.08 0.08 0.09 0.10 0.11 0.11 0.15 0.16 0.19 0.23 0.33 0.47 0.66 0.84 0.83 0.81 0.88 0.97 1.05 1.23 1.40 1.53 1.61 1.48 1.40 1.36
0.87 0.92 0.58 0.48 0.64 0.69 0.61 0.79 1.00 1.04 0.83 0.67 0.50 0.36 0.30 0.22 0.17 0.14 0.11 0.09 0.09 0.10 0.11 0.11 0.13 0.14 0.17 0.20 0.28 0.44 0.59 0.75 0.89 0.91 0.89 0.96 1.03 1.16 1.28 1.33 1.40 1.47 1.46 1.40
0.82 1.09 0.83 0.54 0.49 0.51 0.66 0.75 0.87 1.08 0.84 0.48 0.48 0.43 0.27 0.18 0.16 0.15 0.12 0.09 0.08 0.09 0.10 0.11 0.11 0.13 0.14 0.17 0.23 0.35 0.53 0.68 0.80 0.90 0.94 0.96 1.04 1.17 1.24 1.23 1.21 1.25 1.34 1.37
1.21 1.47 1.21 0.91 0.77 0.67 0.85 0.79 0.75 0.79 0.73 0.56 0.48 0.36 0.22 0.15 0.13 0.14 0.13 0.10 0.09 0.08 0.09 0.11 0.11 0.13 0.14 0.17 0.21 0.28 0.41 0.57 0.72 0.84 0.94 0.91 1.01 1.10 1.12 1.15 1.17 1.15 1.20 1.34
1.35 1.48 1.13 1.03 0.95 0.86 0.84 0.70 0.63 0.81 0.96 0.58 0.33 0.25 0.21 0.18 0.16 0.15 0.13 0.12 0.11 0.10 0.08 0.10 0.12 0.12 0.13 0.15 0.17 0.23 0.32 0.44 0.64 0.82 0.96 0.89 0.94 1.06 1.05 1.06 1.13 1.14 1.16 1.28
1.14 1.18 0.60 0.36 0.31 0.42 0.49 0.47 0.48 0.64 0.63 0.51 0.31 0.23 0.25 0.24 0.23 0.22 0.19 0.15 0.12 0.11 0.09 0.09 0.11 0.14 0.15 0.15 0.15 0.19 0.27 0.34 0.53 0.76 0.94 0.96 0.92 0.98 1.04 1.04 1.12 1.18 1.22 1.29
1.01 1.01 0.51 0.29 0.20 0.27 0.34 0.30 0.34 0.38 0.39 0.35 0.26 0.30 0.26 0.24 0.21 0.21 0.20 0.17 0.15 0.14 0.12 0.10 0.10 0.14 0.16 0.16 0.16 0.19 0.23 0.29 0.42 0.61 0.80 0.91 0.90 0.94 1.01 1.00 1.07 1.15 1.22 1.27
0.97 0.95 0.80 0.46 0.21 0.42 0.59 0.41 0.38 0.38 0.38 0.37 0.37 0.36 0.28 0.26 0.24 0.24 0.22 0.20 0.21 0.20 0.16 0.14 0.13 0.15 0.16 0.16 0.17 0.20 0.22 0.24 0.33 0.48 0.65 0.79 0.82 0.82 0.88 0.91 1.01 1.11 1.20 1.20
0.81 0.91 1.10 0.73 0.55 0.91 0.65 0.33 0.33 0.40 0.44 0.41 0.38 0.34 0.31 0.29 0.29 0.26 0.23 0.23 0.24 0.22 0.20 0.18 0.18 0.18 0.17 0.15 0.16 0.17 0.20 0.22 0.27 0.38 0.54 0.72 0.77 0.76 0.76 0.81 0.87 0.97 1.09 1.15
0.49 0.88 1.33 1.09 0.81 0.56 0.34 0.22 0.33 0.44 0.50 0.42 0.32 0.26 0.25 0.25 0.24 0.25 0.22 0.18 0.18 0.20 0.20 0.19 0.21 0.22 0.21 0.18 0.18 0.19 0.21 0.22 0.26 0.38 0.50 0.63 0.74 0.73 0.70 0.75 0.79 0.84 0.91 1.01
0.58 0.96 1.51 1.30 0.98 0.59 0.38 0.18 0.21 0.38 0.56 0.34 0.26 0.23 0.23 0.26 0.32 0.29 0.20 0.14 0.11 0.12 0.14 0.15 0.17 0.18 0.20 0.21 0.21 0.22 0.25 0.26 0.29 0.42 0.52 0.57 0.66 0.69 0.66 0.71 0.78 0.79 0.81 0.86
0.90 1.37 1.52 1.10 0.89 0.44 0.25 0.15 0.20 0.50 0.61 0.30 0.23 0.21 0.22 0.29 0.33 0.24 0.15 0.13 0.10 0.10 0.11 0.12 0.14 0.16 0.19 0.21 0.22 0.23 0.27 0.31 0.33 0.42 0.48 0.53 0.58 0.62 0.61 0.68 0.71 0.76 0.79 0.80
0.69 0.95 0.96 0.89 0.98 0.54 0.22 0.22 0.45 0.54 0.27 0.20 0.18 0.17 0.19 0.20 0.17 0.14 0.13 0.12 0.11 0.10 0.09 0.10 0.12 0.14 0.16 0.18 0.20 0.22 0.27 0.34 0.38 0.41 0.43 0.50 0.56 0.59 0.59 0.69 0.69 0.70 0.76 0.80
0.54 0.76 0.78 0.73 0.64 0.42 0.30 0.35 0.36 0.29 0.23 0.17 0.16 0.16 0.17 0.18 0.16 0.16 0.15 0.13 0.12 0.11 0.09 0.10 0.12 0.13 0.14 0.17 0.19 0.21 0.26 0.33 0.42 0.43 0.44 0.49 0.58 0.64 0.66 0.72 0.73 0.73 0.73 0.77
0.38 0.42 0.54 0.47 0.36 0.30 0.28 0.25 0.21 0.17 0.17 0.16 0.16 0.17 0.19 0.19 0.17 0.18 0.17 0.16 0.15 0.14 0.12 0.11 0.13 0.15 0.18 0.20 0.21 0.24 0.27 0.34 0.44 0.45 0.46 0.50 0.56 0.65 0.67 0.71 0.73 0.75 0.78 0.86
0.32 0.34 0.41 0.39 0.29 0.23 0.19 0.19 0.19 0.16 0.14 0.13 0.14 0.15 0.17 0.18 0.18 0.18 0.19 0.19 0.19 0.17 0.14 0.13 0.13 0.16 0.20 0.23 0.24 0.23 0.27 0.35 0.44 0.48 0.48 0.50 0.53 0.65 0.68 0.71 0.74 0.77 0.76 0.94
0.24 0.31 0.38 0.34 0.26 0.29 0.24 0.19 0.19 0.19 0.16 0.15 0.16 0.16 0.16 0.17 0.18 0.19 0.22 0.22 0.21 0.19 0.16 0.15 0.14 0.16 0.20 0.24 0.26 0.26 0.28 0.35 0.44 0.51 0.53 0.52 0.54 0.65 0.68 0.71 0.76 0.80 0.81 0.85

GEFSCGP_prec_meanprecacc_258.txt.gz
Total_Precipitation_Accumulation
0.64 0.84 0.75 0.53 0.53 0.46 0.36 0.34 0.24 0.14 0.12 0.23 0.23 0.15 0.11 0.12 0.14 0.14 0.15 0.18 0.19 0.19 0.24 0.31 0.40 0.49 0.57 0.62 0.68 0.78 0.93 1.08 1.25 1.38 1.46 1.41 1.37 1.25 1.21 1.17 1.09 0.97 0.92 0.93
0.74 0.67 0.36 0.27 0.33 0.39 0.40 0.43 0.32 0.20 0.14 0.24 0.24 0.16 0.11 0.12 0.15 0.16 0.16 0.20 0.22 0.19 0.23 0.28 0.38 0.51 0.58 0.63 0.66 0.73 0.88 0.99 1.15 1.29 1.34 1.40 1.35 1.29 1.23 1.19 1.14 1.05 0.95 0.99
0.59 0.39 0.24 0.31 0.42 0.52 0.47 0.41 0.32 0.29 0.25 0.27 0.31 0.24 0.11 0.10 0.11 0.14 0.15 0.17 0.20 0.21 0.22 0.25 0.34 0.46 0.57 0.62 0.68 0.74 0.81 0.93 1.06 1.29 1.50 1.62 1.67 1.54 1.39 1.27 1.15 1.02 0.95 0.92
0.45 0.26 0.29 0.39 0.44 0.53 0.52 0.28 0.28 0.34 0.53 0.53 0.42 0.46 0.14 0.09 0.09 0.11 0.13 0.13 0.15 0.19 0.19 0.21 0.29 0.40 0.50 0.60 0.72 0.80 0.78 0.89 1.06 1.24 1.49 1.63 1.68 1.55 1.31 1.18 1.15 1.09 1.00 0.95
0.58 0.30 0.36 0.42 0.33 0.38 0.42 0.28 0.32 0.40 0.64 0.73 0.49 0.53 0.20 0.11 0.12 0.10 0.11 0.12 0.12 0.16 0.17 0.18 0.24 0.33 0.42 0.59 0.72 0.82 0.86 0.93 1.06 1.19 1.37 1.59 1.69 1.59 1.45 1.33 1.23 1.14 1.10 1.05
0.47 0.32 0.40 0.35 0.25 0.31 0.38 0.45 0.54 0.65 1.05 1.31 0.48 0.44 0.28 0.17 0.19 0.15 0.12 0.12 0.12 0.15 0.18 0.17 0.22 0.29 0.38 0.55 0.65 0.81 0.92 0.96 1.08 1.15 1.28 1.44 1.63 1.71 1.64 1.52 1.41 1.26 1.18 1.10
0.58 0.42 0.41 0.36 0.42 0.46 0.66 1.12 1.70 1.89 1.93 1.16 0.25 0.30 0.30 0.18 0.15 0.18 0.18 0.15 0.13 0.14 0.17 0.18 0.21 0.26 0.32 0.51 0.62 0.75 0.92 0.93 1.02 1.09 1.18 1.32 1.50 1.67 1.76 1.65 1.47 1.36 1.33 1.22
0.72 0.57 0.45 0.45 0.52 0.63 0.70 1.02 1.39 1.29 0.83 0.35 0.18 0.27 0.25 0.16 0.12 0.11 0.12 0.13 0.13 0.14 0.16 0.18 0.20 0.23 0.28 0.38 0.51 0.65 0.85 0.88 0.90 0.99 1.07 1.23 1.42 1.60 1.71 1.73 1.56 1.43 1.34 1.24
0.82 0.52 0.30 0.29 0.31 0.42 0.68 0.75 0.68 0.92 0.66 0.40 0.28 0.23 0.19 0.11 0.08 0.07 0.08 0.09 0.12 0.15 0.15 0.16 0.20 0.22 0.27 0.33 0.44 0.58 0.80 0.88 0.82 0.89 0.98 1.10 1.25 1.47 1.58 1.63 1.62 1.50 1.43 1.35
0.97 0.69 0.34 0.30 0.38 0.45 0.54 0.67 0.78 1.22 1.11 0.64 0.36 0.22 0.25 0.17 0.12 0.10 0.10 0.10 0.11 0.13 0.14 0.15 0.18 0.20 0.24 0.29 0.40 0.54 0.71 0.88 0.87 0.86 0.92 1.00 1.07 1.26 1.43 1.56 1.66 1.54 1.48 1.45
0.88 0.93 0.60 0.51 0.68 0.74 0.64 0.83 1.05 1.09 0.87 0.69 0.50 0.37 0.32 0.24 0.20 0.16 0.13 0.11 0.11 0.12 0.14 0.14 0.16 0.18 0.21 0.25 0.33 0.50 0.63 0.79 0.93 0.94 0.92 1.00 1.06 1.18 1.30 1.35 1.44 1.51 1.51 1.47
0.83 1.10 0.84 0.56 0.50 0.53 0.68 0.79 0.91 1.11 0.86 0.49 0.49 0.44 0.29 0.20 0.18 0.18 0.15 0.11 0.10 0.11 0.13 0.14 0.15 0.16 0.19 0.22 0.28 0.40 0.57 0.71 0.84 0.93 0.97 1.00 1.07 1.19 1.25 1.25 1.24 1.28 1.39 1.42
1.23 1.49 1.23 0.93 0.79 0.69 0.87 0.80 0.78 0.82 0.75 0.58 0.49 0.37 0.23 0.16 0.14 0.16 0.16 0.12 0.11 0.10 0.11 0.14 0.14 0.15 0.18 0.21 0.26 0.33 0.45 0.61 0.76 0.87 0.96 0.94 1.04 1.12 1.14 1.17 1.20 1.18 1.23 1.37
1.37 1.49 1.14 1.05 0.96 0.87 0.85 0.71 0.64 0.83 0.98 0.60 0.34 0.26 0.22 0.19 0.17 0.17 0.16 0.14 0.13 0.11 0.10 0.12 0.15 0.15 0.17 0.19 0.21 0.27 0.37 0.48 0.69 0.85 0.99 0.92 0.96 1.08 1.07 1.09 1.16 1.16 1.18 1.30
1.16 1.19 0.60 0.37 0.32 0.42 0.50 0.48 0.50 0.65 0.64 0.53 0.32 0.25 0.27 0.25 0.24 0.24 0.22 0.18 0.13 0.12 0.11 0.11 0.14 0.17 0.18 0.19 0.19 0.23 0.31 0.38 0.57 0.80 0.99 0.99 0.94 1.00 1.06 1.06 1.14 1.20 1.24 1.30
1.02 1.02 0.52 0.30 0.20 0.28 0.35 0.31 0.36 0.39 0.41 0.37 0.28 0.32 0.28 0.26 0.22 0.22 0.23 0.21 0.18 0.16 0.15 0.12 0.13 0.16 0.19 0.20 0.20 0.24 0.27 0.34 0.47 0.66 0.85 0.95 0.94 0.97 1.04 1.02 1.09 1.17 1.23 1.28
0.98 0.96 0.81 0.47 0.21 0.42 0.60 0.42 0.40 0.40 0.41 0.39 0.38 0.38 0.30 0.28 0.27 0.26 0.25 0.24 0.24 0.22 0.19 0.16 0.16 0.17 0.18 0.19 0.21 0.24 0.26 0.28 0.37 0.52 0.70 0.84 0.86 0.86 0.91 0.93 1.02 1.12 1.21 1.21
0.82 0.92 1.11 0.74 0.55 0.92 0.66 0.34 0.35 0.42 0.47 0.43 0.40 0.36 0.33 0.32 0.32 0.29 0.26 0.28 0.28 0.25 0.22 0.20 0.20 0.19 0.18 0.17 0.18 0.20 0.23 0.26 0.31 0.42 0.57 0.75 0.80 0.80 0.80 0.83 0.89 0.99 1.10 1.16
0.50 0.90 1.35 1.10 0.82 0.57 0.35 0.24 0.35 0.46 0.52 0.44 0.35 0.29 0.28 0.28 0.27 0.28 0.26 0.23 0.24 0.23 0.22 0.21 0.23 0.24 0.22 0.20 0.20 0.21 0.23 0.25 0.29 0.41 0.52 0.65 0.76 0.76 0.73 0.78 0.81 0.86 0.93 1.02
0.58 0.96 1.52 1.31 0.98 0.59 0.38 0.19 0.22 0.39 0.58 0.36 0.29 0.26 0.26 0.28 0.35 0.32 0.24 0.18 0.16 0.16 0.16 0.17 0.18 0.20 0.21 0.22 0.22 0.23 0.27 0.28 0.30 0.43 0.53 0.58 0.67 0.70 0.67 0.73 0.79 0.81 0.83 0.87
0.91 1.38 1.53 1.10 0.90 0.45 0.25 0.16 0.21 0.51 0.62 0.31 0.25 0.23 0.24 0.32 0.36 0.27 0.18 0.16 0.14 0.14 0.14 0.14 0.15 0.18 0.21 0.22 0.23 0.24 0.28 0.32 0.34 0.43 0.49 0.54 0.59 0.63 0.62 0.70 0.72 0.77 0.81 0.81
0.70 0.96 0.97 0.89 0.98 0.54 0.23 0.22 0.46 0.56 0.28 0.21 0.19 0.19 0.20 0.21 0.19 0.16 0.16 0.14 0.14 0.14 0.13 0.13 0.14 0.16 0.17 0.20 0.21 0.22 0.28 0.35 0.38 0.41 0.44 0.51 0.58 0.60 0.61 0.71 0.71 0.71 0.78 0.81
0.55 0.76 0.78 0.73 0.65 0.43 0.31 0.36 0.37 0.30 0.24 0.18 0.18 0.17 0.19 0.19 0.18 0.18 0.18 0.15 0.15 0.14 0.13 0.13 0.14 0.15 0.16 0.18 0.20 0.22 0.27 0.34 0.43 0.43 0.44 0.50 0.59 0.66 0.68 0.74 0.76 0.75 0.75 0.78
0.38 0.42 0.54 0.47 0.36 0.31 0.29 0.26 0.22 0.18 0.18 0.17 0.17 0.19 0.20 0.20 0.19 0.20 0.19 0.18 0.17 0.16 0.14 0.14 0.14 0.17 0.19 0.22 0.23 0.25 0.28 0.35 0.45 0.46 0.47 0.51 0.58 0.68 0.71 0.74 0.76 0.78 0.80 0.88
0.32 0.34 0.42 0.39 0.29 0.24 0.20 0.20 0.20 0.17 0.15 0.14 0.15 0.17 0.19 0.19 0.19 0.19 0.20 0.21 0.20 0.18 0.15 0.14 0.15 0.18 0.21 0.24 0.25 0.25 0.28 0.36 0.45 0.49 0.49 0.51 0.55 0.68 0.72 0.75 0.78 0.81 0.79 0.97
0.24 0.31 0.38 0.34 0.26 0.30 0.24 0.20 0.19 0.19 0.17 0.16 0.17 0.17 0.17 0.18 0.19 0.20 0.22 0.22 0.21 0.19 0.17 0.15 0.15 0.16 0.21 0.25 0.27 0.27 0.29 0.36 0.45 0.52 0.55 0.54 0.56 0.67 0.71 0.75 0.81 0.85 0.85 0.89

GEFSCGP_prec_meanprecacc_264.txt.gz
Total_Precipitation_Accumulation
0.69 0.89 0.79 0.55 0.56 0.48 0.38 0.38 0.28 0.16 0.14 0.26 0.26 0.18 0.13 0.14 0.17 0.17 0.17 0.21 0.22 0.22 0.27 0.33 0.44 0.54 0.63 0.68 0.76 0.86 1.02 1.19 1.37 1.52 1.60 1.56 1.51 1.40 1.35 1.32 1.22 1.10 1.08 1.14
0.77 0.70 0.37 0.28 0.35 0.42 0.43 0.48 0.37 0.24 0.18 0.28 0.28 0.19 0.14 0.15 0.18 0.19 0.19 0.23 0.25 0.22 0.26 0.31 0.41 0.55 0.63 0.68 0.73 0.83 0.97 1.10 1.24 1.38 1.46 1.53 1.47 1.43 1.35 1.30 1.27 1.18 1.09 1.14
0.61 0.40 0.25 0.33 0.44 0.56 0.50 0.45 0.38 0.34 0.29 0.32 0.35 0.28 0.14 0.12 0.14 0.16 0.17 0.19 0.23 0.24 0.24 0.28 0.37 0.50 0.61 0.66 0.75 0.84 0.94 1.06 1.16 1.37 1.62 1.76 1.77 1.65 1.50 1.37 1.26 1.13 1.07 1.05
0.47 0.27 0.30 0.41 0.47 0.56 0.57 0.31 0.33 0.39 0.58 0.60 0.46 0.51 0.17 0.11 0.12 0.14 0.16 0.15 0.16 0.20 0.20 0.23 0.32 0.43 0.53 0.64 0.78 0.88 0.90 1.03 1.19 1.32 1.59 1.78 1.79 1.63 1.37 1.26 1.26 1.19 1.09 1.04
0.61 0.31 0.37 0.44 0.35 0.40 0.46 0.32 0.36 0.45 0.69 0.80 0.52 0.58 0.23 0.13 0.14 0.13 0.13 0.13 0.13 0.17 0.19 0.19 0.27 0.36 0.45 0.63 0.78 0.89 0.94 1.05 1.23 1.34 1.48 1.74 1.85 1.67 1.50 1.39 1.30 1.23 1.18 1.13
0.48 0.33 0.41 0.36 0.27 0.33 0.41 0.50 0.61 0.71 1.13 1.40 0.52 0.47 0.30 0.19 0.21 0.17 0.14 0.14 0.14 0.17 0.20 0.19 0.24 0.33 0.42 0.59 0.71 0.89 1.00 1.03 1.21 1.34 1.45 1.59 1.80 1.83 1.69 1.56 1.46 1.32 1.26 1.18
0.59 0.43 0.42 0.38 0.46 0.50 0.71 1.21 1.82 2.01 2.04 1.22 0.27 0.33 0.33 0.20 0.17 0.20 0.20 0.18 0.16 0.17 0.19 0.20 0.24 0.30 0.37 0.55 0.66 0.82 1.00 1.01 1.09 1.24 1.37 1.49 1.68 1.83 1.86 1.70 1.52 1.42 1.40 1.30
0.74 0.59 0.46 0.47 0.57 0.68 0.76 1.10 1.49 1.37 0.89 0.38 0.19 0.29 0.28 0.19 0.15 0.15 0.16 0.17 0.17 0.16 0.18 0.20 0.23 0.28 0.34 0.42 0.56 0.71 0.92 0.97 0.99 1.08 1.22 1.39 1.60 1.78 1.87 1.85 1.64 1.51 1.42 1.31
0.85 0.55 0.32 0.32 0.34 0.46 0.73 0.80 0.73 0.97 0.69 0.42 0.30 0.26 0.21 0.13 0.11 0.11 0.12 0.14 0.16 0.18 0.17 0.19 0.24 0.27 0.33 0.39 0.48 0.63 0.86 0.94 0.90 0.98 1.08 1.22 1.40 1.63 1.75 1.80 1.76 1.62 1.51 1.40
1.01 0.72 0.37 0.33 0.40 0.47 0.57 0.71 0.82 1.28 1.17 0.68 0.38 0.25 0.29 0.21 0.16 0.14 0.15 0.17 0.17 0.16 0.17 0.17 0.22 0.24 0.30 0.36 0.45 0.60 0.77 0.95 0.93 0.93 1.00 1.09 1.18 1.36 1.53 1.70 1.80 1.66 1.58 1.53
0.91 0.97 0.62 0.53 0.71 0.75 0.65 0.86 1.09 1.13 0.91 0.73 0.54 0.41 0.36 0.28 0.24 0.21 0.18 0.18 0.17 0.16 0.18 0.18 0.20 0.22 0.27 0.32 0.38 0.55 0.69 0.85 1.00 1.01 0.99 1.07 1.13 1.26 1.37 1.42 1.51 1.59 1.59 1.55
0.84 1.12 0.86 0.57 0.52 0.54 0.69 0.80 0.94 1.16 0.90 0.53 0.53 0.48 0.32 0.23 0.22 0.22 0.20 0.16 0.15 0.15 0.16 0.17 0.18 0.20 0.24 0.28 0.33 0.44 0.62 0.78 0.91 1.00 1.02 1.06 1.14 1.26 1.32 1.30 1.28 1.33 1.44 1.49
1.25 1.51 1.25 0.94 0.81 0.70 0.88 0.81 0.79 0.84 0.78 0.61 0.52 0.40 0.25 0.17 0.16 0.19 0.19 0.15 0.14 0.14 0.14 0.16 0.17 0.18 0.21 0.25 0.31 0.37 0.49 0.67 0.82 0.93 1.01 0.99 1.10 1.18 1.19 1.22 1.24 1.21 1.27 1.41
1.38 1.51 1.15 1.06 0.98 0.88 0.86 0.71 0.64 0.85 1.01 0.63 0.37 0.28 0.23 0.20 0.18 0.18 0.18 0.16 0.16 0.14 0.13 0.14 0.17 0.18 0.20 0.23 0.25 0.31 0.42 0.54 0.74 0.91 1.04 0.97 1.03 1.14 1.13 1.13 1.20 1.18 1.20 1.33
1.16 1.20 0.61 0.37 0.32 0.43 0.51 0.49 0.50 0.67 0.66 0.56 0.35 0.26 0.29 0.27 0.26 0.25 0.23 0.20 0.17 0.16 0.15 0.14 0.17 0.20 0.22 0.22 0.23 0.27 0.38 0.44 0.63 0.86 1.04 1.05 1.02 1.08 1.12 1.11 1.17 1.22 1.26 1.33
1.02 1.03 0.52 0.30 0.21 0.28 0.35 0.32 0.36 0.40 0.42 0.39 0.29 0.34 0.30 0.28 0.24 0.24 0.24 0.23 0.21 0.20 0.18 0.15 0.16 0.19 0.23 0.23 0.24 0.28 0.34 0.40 0.53 0.73 0.92 1.02 1.01 1.04 1.10 1.07 1.12 1.20 1.25 1.30
0.98 0.96 0.81 0.47 0.22 0.43 0.61 0.44 0.41 0.41 0.42 0.40 0.40 0.39 0.31 0.29 0.28 0.28 0.27 0.27 0.27 0.26 0.23 0.20 0.20 0.21 0.23 0.23 0.25 0.29 0.33 0.36 0.45 0.61 0.78 0.90 0.94 0.93 0.96 0.98 1.07 1.16 1.24 1.23
0.83 0.92 1.12 0.75 0.56 0.94 0.67 0.35 0.37 0.43 0.48 0.44 0.41 0.37 0.34 0.33 0.33 0.31 0.29 0.31 0.31 0.29 0.26 0.24 0.25 0.25 0.24 0.22 0.24 0.26 0.29 0.34 0.39 0.50 0.65 0.82 0.88 0.87 0.86 0.88 0.94 1.03 1.13 1.19
0.50 0.90 1.36 1.11 0.83 0.58 0.36 0.24 0.36 0.48 0.53 0.45 0.36 0.30 0.29 0.29 0.28 0.30 0.28 0.26 0.28 0.28 0.26 0.26 0.28 0.31 0.28 0.24 0.24 0.26 0.29 0.32 0.37 0.49 0.60 0.72 0.83 0.84 0.80 0.84 0.86 0.91 0.97 1.05
0.59 0.98 1.54 1.33 1.00 0.60 0.39 0.19 0.23 0.41 0.59 0.38 0.30 0.27 0.28 0.30 0.37 0.34 0.26 0.21 0.21 0.20 0.20 0.22 0.25 0.27 0.25 0.25 0.26 0.28 0.33 0.34 0.37 0.49 0.59 0.65 0.74 0.77 0.74 0.78 0.84 0.86 0.86 0.90
0.92 1.39 1.55 1.12 0.91 0.45 0.26 0.16 0.21 0.53 0.64 0.33 0.27 0.25 0.26 0.34 0.38 0.30 0.22 0.20 0.20 0.20 0.19 0.20 0.22 0.23 0.23 0.25 0.26 0.29 0.33 0.37 0.39 0.47 0.54 0.59 0.65 0.68 0.67 0.74 0.75 0.80 0.83 0.84
0.70 0.97 0.98 0.91 1.00 0.55 0.23 0.23 0.47 0.57 0.29 0.22 0.20 0.20 0.22 0.24 0.21 0.19 0.20 0.20 0.21 0.20 0.19 0.18 0.19 0.19 0.20 0.22 0.23 0.26 0.32 0.39 0.42 0.45 0.47 0.54 0.61 0.63 0.64 0.75 0.74 0.74 0.80 0.83
0.55 0.77 0.80 0.75 0.66 0.43 0.32 0.37 0.39 0.31 0.25 0.19 0.19 0.18 0.20 0.21 0.20 0.20 0.21 0.20 0.20 0.19 0.18 0.17 0.17 0.17 0.17 0.20 0.22 0.25 0.30 0.37 0.46 0.46 0.47 0.52 0.61 0.68 0.70 0.76 0.78 0.77 0.77 0.80
0.38 0.42 0.55 0.49 0.37 0.31 0.30 0.27 0.23 0.19 0.20 0.18 0.19 0.20 0.22 0.22 0.21 0.22 0.22 0.22 0.22 0.21 0.19 0.17 0.17 0.18 0.20 0.23 0.25 0.27 0.31 0.37 0.47 0.48 0.48 0.52 0.59 0.70 0.72 0.75 0.77 0.79 0.81 0.89
0.32 0.35 0.43 0.41 0.30 0.24 0.20 0.20 0.21 0.18 0.16 0.15 0.16 0.18 0.20 0.21 0.22 0.22 0.23 0.24 0.24 0.23 0.20 0.18 0.18 0.20 0.23 0.26 0.27 0.27 0.30 0.38 0.46 0.50 0.50 0.52 0.57 0.69 0.73 0.77 0.80 0.82 0.80 0.99
0.24 0.31 0.39 0.36 0.27 0.31 0.25 0.20 0.20 0.20 0.18 0.17 0.18 0.19 0.18 0.19 0.21 0.22 0.25 0.26 0.24 0.23 0.20 0.19 0.18 0.19 0.23 0.27 0.29 0.29 0.32 0.37 0.46 0.53 0.56 0.55 0.58 0.69 0.73 0.77 0.82 0.87 0.87 0.91

GEFSCGP_prec_meanprecacc_270.txt.gz
Total_Precipitation_Accumulation
0.72 0.93 0.82 0.57 0.58 0.51 0.41 0.40 0.31 0.18 0.15 0.29 0.28 0.19 0.14 0.15 0.18 0.19 0.18 0.22 0.24 0.25 0.31 0.39 0.51 0.60 0.68 0.73 0.85 1.01 1.15 1.33 1.52 1.66 1.74 1.71 1.67 1.54 1.48 1.43 1.33 1.21 1.19 1.25
0.80 0.72 0.37 0.28 0.35 0.43 0.46 0.51 0.39 0.26 0.19 0.31 0.31 0.21 0.15 0.15 0.19 0.21 0.21 0.25 0.27 0.25 0.31 0.38 0.47 0.60 0.66 0.71 0.78 0.95 1.12 1.26 1.42 1.54 1.59 1.68 1.62 1.58 1.51 1.44 1.38 1.27 1.17 1.23
0.64 0.41 0.25 0.33 0.45 0.58 0.52 0.46 0.39 0.36 0.32 0.34 0.39 0.32 0.16 0.13 0.15 0.18 0.19 0.21 0.25 0.26 0.28 0.34 0.43 0.55 0.64 0.69 0.78 0.92 1.09 1.21 1.32 1.51 1.77 1.92 1.95 1.80 1.68 1.55 1.39 1.22 1.14 1.12
0.48 0.28 0.31 0.42 0.49 0.57 0.58 0.32 0.34 0.41 0.63 0.66 0.50 0.57 0.20 0.13 0.12 0.15 0.18 0.17 0.19 0.23 0.24 0.27 0.37 0.49 0.58 0.67 0.82 0.95 1.00 1.17 1.35 1.46 1.71 1.91 1.96 1.81 1.54 1.44 1.41 1.30 1.17 1.11
0.62 0.32 0.38 0.45 0.37 0.43 0.47 0.34 0.38 0.48 0.74 0.87 0.57 0.62 0.26 0.14 0.15 0.15 0.16 0.16 0.16 0.20 0.23 0.23 0.31 0.41 0.50 0.69 0.84 0.97 1.02 1.15 1.40 1.54 1.63 1.85 1.97 1.82 1.67 1.57 1.46 1.36 1.27 1.19
0.49 0.34 0.42 0.37 0.28 0.35 0.43 0.52 0.64 0.75 1.19 1.47 0.56 0.50 0.33 0.22 0.23 0.19 0.16 0.16 0.17 0.20 0.24 0.24 0.29 0.37 0.46 0.64 0.77 0.96 1.08 1.13 1.34 1.53 1.64 1.74 1.93 2.00 1.85 1.73 1.62 1.47 1.38 1.26
0.61 0.44 0.43 0.39 0.48 0.53 0.73 1.25 1.88 2.08 2.12 1.28 0.29 0.36 0.38 0.23 0.19 0.22 0.22 0.20 0.19 0.19 0.23 0.25 0.28 0.34 0.41 0.59 0.71 0.88 1.08 1.10 1.19 1.35 1.53 1.67 1.83 1.97 2.02 1.86 1.66 1.54 1.51 1.39
0.76 0.60 0.47 0.48 0.59 0.72 0.79 1.13 1.52 1.42 0.94 0.44 0.24 0.34 0.32 0.23 0.18 0.18 0.18 0.20 0.20 0.20 0.22 0.26 0.28 0.32 0.38 0.46 0.59 0.76 0.99 1.06 1.07 1.17 1.32 1.55 1.76 1.92 1.99 2.00 1.80 1.63 1.54 1.42
0.87 0.56 0.33 0.33 0.36 0.48 0.77 0.84 0.76 1.02 0.75 0.48 0.37 0.31 0.24 0.15 0.14 0.15 0.17 0.20 0.21 0.24 0.23 0.26 0.30 0.32 0.37 0.42 0.52 0.68 0.92 1.01 0.97 1.05 1.16 1.32 1.54 1.78 1.89 1.93 1.91 1.76 1.63 1.51
1.02 0.74 0.38 0.34 0.43 0.51 0.62 0.76 0.87 1.33 1.22 0.73 0.41 0.29 0.33 0.24 0.19 0.16 0.18 0.22 0.22 0.23 0.24 0.25 0.29 0.31 0.35 0.40 0.49 0.64 0.81 1.01 0.98 0.98 1.07 1.15 1.27 1.49 1.69 1.85 1.95 1.81 1.72 1.67
0.93 1.00 0.64 0.56 0.75 0.80 0.69 0.90 1.12 1.16 0.94 0.78 0.58 0.45 0.42 0.33 0.28 0.24 0.22 0.23 0.23 0.23 0.25 0.25 0.27 0.29 0.33 0.36 0.43 0.59 0.73 0.90 1.04 1.04 1.04 1.12 1.19 1.35 1.49 1.56 1.68 1.75 1.75 1.71
0.88 1.16 0.88 0.59 0.54 0.55 0.71 0.83 0.96 1.18 0.92 0.55 0.57 0.52 0.36 0.27 0.26 0.26 0.24 0.23 0.23 0.23 0.24 0.24 0.25 0.26 0.30 0.34 0.38 0.49 0.67 0.82 0.94 1.04 1.07 1.11 1.19 1.32 1.41 1.41 1.42 1.47 1.60 1.66
1.28 1.54 1.26 0.95 0.81 0.70 0.89 0.82 0.81 0.87 0.81 0.63 0.55 0.44 0.28 0.21 0.20 0.22 0.23 0.21 0.20 0.21 0.22 0.24 0.24 0.23 0.27 0.31 0.36 0.42 0.53 0.71 0.86 0.97 1.05 1.04 1.15 1.24 1.27 1.31 1.34 1.31 1.37 1.52
1.40 1.52 1.16 1.07 0.98 0.89 0.87 0.72 0.65 0.87 1.04 0.64 0.39 0.31 0.26 0.22 0.20 0.20 0.20 0.20 0.20 0.20 0.21 0.22 0.24 0.23 0.26 0.29 0.30 0.37 0.46 0.58 0.79 0.95 1.07 1.01 1.07 1.20 1.20 1.22 1.29 1.26 1.28 1.41
1.18 1.21 0.61 0.38 0.33 0.43 0.51 0.49 0.51 0.68 0.67 0.57 0.37 0.29 0.31 0.29 0.28 0.27 0.26 0.23 0.21 0.21 0.21 0.21 0.23 0.25 0.28 0.28 0.28 0.33 0.42 0.49 0.68 0.90 1.08 1.09 1.06 1.14 1.19 1.18 1.26 1.29 1.31 1.38
1.03 1.03 0.52 0.30 0.21 0.28 0.36 0.32 0.37 0.41 0.42 0.39 0.30 0.35 0.31 0.30 0.25 0.26 0.27 0.26 0.25 0.25 0.23 0.20 0.21 0.24 0.27 0.28 0.29 0.34 0.40 0.45 0.58 0.78 0.96 1.07 1.06 1.10 1.17 1.14 1.21 1.27 1.31 1.35
0.99 0.97 0.82 0.48 0.22 0.43 0.61 0.44 0.42 0.42 0.42 0.41 0.41 0.40 0.32 0.30 0.29 0.30 0.30 0.30 0.30 0.30 0.26 0.23 0.24 0.25 0.26 0.27 0.29 0.35 0.40 0.41 0.49 0.65 0.82 0.95 0.99 1.00 1.03 1.05 1.14 1.24 1.30 1.28
0.83 0.93 1.13 0.76 0.56 0.94 0.68 0.35 0.37 0.43 0.48 0.45 0.42 0.38 0.35 0.34 0.34 0.32 0.31 0.34 0.35 0.33 0.30 0.28 0.28 0.29 0.27 0.25 0.27 0.31 0.35 0.39 0.44 0.55 0.70 0.88 0.94 0.93 0.92 0.95 1.01 1.11 1.20 1.24
0.51 0.91 1.37 1.12 0.84 0.59 0.36 0.25 0.37 0.48 0.54 0.46 0.36 0.30 0.30 0.30 0.29 0.31 0.29 0.28 0.31 0.31 0.30 0.30 0.32 0.35 0.32 0.28 0.29 0.30 0.33 0.36 0.42 0.54 0.65 0.77 0.88 0.89 0.86 0.91 0.93 0.98 1.02 1.10
0.60 0.99 1.56 1.34 1.01 0.61 0.39 0.20 0.24 0.42 0.60 0.38 0.31 0.28 0.28 0.31 0.38 0.36 0.28 0.23 0.24 0.24 0.24 0.27 0.30 0.31 0.30 0.30 0.32 0.33 0.37 0.38 0.41 0.54 0.65 0.70 0.79 0.83 0.81 0.85 0.91 0.92 0.92 0.95
0.93 1.41 1.56 1.14 0.93 0.46 0.26 0.17 0.22 0.55 0.65 0.33 0.27 0.26 0.27 0.36 0.40 0.31 0.24 0.23 0.23 0.23 0.24 0.26 0.28 0.28 0.28 0.30 0.31 0.33 0.38 0.42 0.43 0.52 0.59 0.65 0.71 0.75 0.73 0.80 0.81 0.85 0.88 0.88
0.70 0.98 0.99 0.92 1.02 0.56 0.24 0.23 0.48 0.58 0.30 0.23 0.21 0.21 0.23 0.25 0.23 0.21 0.22 0.23 0.25 0.26 0.24 0.24 0.25 0.24 0.24 0.26 0.27 0.31 0.37 0.44 0.46 0.49 0.52 0.59 0.67 0.68 0.68 0.78 0.78 0.78 0.84 0.88
0.55 0.77 0.80 0.75 0.66 0.44 0.32 0.38 0.40 0.32 0.26 0.20 0.20 0.19 0.21 0.22 0.21 0.23 0.24 0.24 0.26 0.25 0.24 0.22 0.22 0.22 0.21 0.23 0.26 0.30 0.35 0.42 0.50 0.50 0.50 0.55 0.64 0.70 0.72 0.78 0.80 0.80 0.80 0.83
0.39 0.43 0.56 0.49 0.37 0.32 0.31 0.28 0.24 0.20 0.21 0.19 0.19 0.21 0.22 0.23 0.23 0.24 0.25 0.26 0.27 0.27 0.24 0.23 0.22 0.23 0.25 0.27 0.29 0.32 0.35 0.42 0.51 0.51 0.51 0.54 0.61 0.72 0.74 0.77 0.79 0.82 0.84 0.91
0.33 0.35 0.44 0.42 0.30 0.24 0.21 0.21 0.22 0.19 0.17 0.16 0.17 0.19 0.21 0.22 0.23 0.24 0.26 0.28 0.29 0.29 0.25 0.24 0.22 0.24 0.27 0.29 0.31 0.31 0.34 0.42 0.50 0.53 0.52 0.54 0.59 0.72 0.76 0.79 0.82 0.84 0.82 1.01
0.25 0.32 0.40 0.36 0.27 0.31 0.26 0.21 0.21 0.21 0.19 0.18 0.19 0.20 0.19 0.20 0.23 0.24 0.28 0.30 0.30 0.29 0.26 0.24 0.23 0.24 0.28 0.31 0.33 0.33 0.35 0.41 0.49 0.55 0.58 0.57 0.60 0.72 0.76 0.80 0.86 0.91 0.90 0.94

GEFSCGP_prec_meanprecacc_276.txt.gz
Total_Precipitation_Accumulation
0.73 0.94 0.83 0.57 0.59 0.51 0.42 0.42 0.33 0.19 0.16 0.31 0.30 0.21 0.17 0.17 0.20 0.21 0.20 0.23 0.25 0.26 0.32 0.40 0.53 0.65 0.75 0.83 0.94 1.11 1.26 1.43 1.64 1.77 1.83 1.81 1.77 1.64 1.56 1.50 1.42 1.35 1.34 1.39
0.81 0.73 0.38 0.29 0.36 0.45 0.48 0.53 0.41 0.28 0.20 0.33 0.33 0.23 0.18 0.17 0.20 0.23 0.22 0.26 0.28 0.26 0.32 0.39 0.50 0.65 0.72 0.79 0.86 1.03 1.20 1.33 1.52 1.67 1.69 1.79 1.75 1.70 1.62 1.52 1.48 1.41 1.34 1.38
0.64 0.42 0.26 0.34 0.46 0.59 0.53 0.48 0.40 0.38 0.33 0.37 0.42 0.35 0.18 0.16 0.16 0.19 0.20 0.22 0.26 0.27 0.30 0.35 0.45 0.59 0.70 0.75 0.84 0.98 1.15 1.28 1.39 1.62 1.87 2.04 2.10 1.94 1.81 1.66 1.50 1.38 1.31 1.28
0.48 0.28 0.31 0.43 0.50 0.59 0.59 0.32 0.35 0.42 0.65 0.69 0.55 0.63 0.23 0.16 0.14 0.17 0.20 0.19 0.20 0.24 0.26 0.29 0.40 0.53 0.64 0.74 0.88 1.02 1.07 1.23 1.42 1.55 1.82 2.04 2.11 1.96 1.66 1.56 1.54 1.46 1.36 1.29
0.62 0.32 0.38 0.45 0.38 0.45 0.49 0.34 0.38 0.49 0.76 0.90 0.60 0.68 0.30 0.16 0.17 0.16 0.18 0.18 0.17 0.21 0.26 0.27 0.34 0.45 0.57 0.75 0.90 1.04 1.11 1.23 1.46 1.62 1.73 1.99 2.12 1.98 1.80 1.67 1.57 1.49 1.44 1.36
0.49 0.34 0.42 0.37 0.29 0.36 0.45 0.54 0.65 0.77 1.23 1.52 0.57 0.54 0.36 0.24 0.25 0.20 0.18 0.18 0.18 0.21 0.28 0.29 0.34 0.43 0.52 0.71 0.83 1.02 1.15 1.19 1.40 1.61 1.76 1.90 2.10 2.16 2.01 1.85 1.72 1.58 1.51 1.42
0.61 0.45 0.43 0.39 0.49 0.54 0.75 1.28 1.93 2.13 2.17 1.31 0.30 0.38 0.40 0.26 0.21 0.24 0.24 0.22 0.21 0.21 0.26 0.30 0.35 0.43 0.47 0.65 0.77 0.94 1.15 1.16 1.24 1.42 1.62 1.80 1.98 2.12 2.18 2.02 1.79 1.65 1.63 1.53
0.77 0.61 0.48 0.49 0.61 0.73 0.81 1.16 1.56 1.45 0.97 0.46 0.26 0.36 0.34 0.26 0.21 0.20 0.21 0.23 0.23 0.22 0.25 0.31 0.36 0.42 0.45 0.52 0.65 0.80 1.03 1.11 1.13 1.23 1.39 1.65 1.89 2.06 2.13 2.14 1.91 1.73 1.63 1.53
0.89 0.57 0.33 0.34 0.37 0.50 0.79 0.86 0.78 1.05 0.77 0.50 0.40 0.35 0.27 0.18 0.16 0.17 0.19 0.24 0.25 0.27 0.28 0.32 0.39 0.43 0.46 0.49 0.56 0.71 0.96 1.07 1.04 1.13 1.24 1.40 1.63 1.89 2.02 2.05 2.01 1.87 1.73 1.61
1.05 0.77 0.39 0.36 0.45 0.53 0.64 0.78 0.88 1.36 1.24 0.74 0.43 0.32 0.38 0.28 0.22 0.19 0.21 0.26 0.28 0.30 0.32 0.32 0.37 0.42 0.45 0.47 0.53 0.68 0.86 1.06 1.06 1.06 1.14 1.23 1.34 1.57 1.81 1.98 2.06 1.91 1.82 1.76
0.94 1.02 0.66 0.58 0.78 0.83 0.73 0.93 1.14 1.18 0.96 0.80 0.59 0.47 0.48 0.38 0.32 0.28 0.26 0.27 0.29 0.30 0.34 0.36 0.36 0.38 0.42 0.45 0.50 0.65 0.79 0.96 1.10 1.11 1.12 1.21 1.28 1.44 1.61 1.70 1.83 1.88 1.87 1.82
0.90 1.18 0.90 0.61 0.56 0.57 0.74 0.86 0.99 1.21 0.94 0.57 0.58 0.54 0.40 0.33 0.30 0.30 0.28 0.27 0.29 0.32 0.36 0.38 0.36 0.34 0.38 0.44 0.47 0.56 0.74 0.88 1.00 1.10 1.14 1.19 1.27 1.41 1.51 1.52 1.54 1.62 1.76 1.80
1.32 1.57 1.28 0.97 0.83 0.73 0.91 0.84 0.83 0.89 0.83 0.64 0.56 0.45 0.30 0.25 0.25 0.25 0.26 0.25 0.27 0.30 0.34 0.37 0.34 0.33 0.37 0.41 0.45 0.50 0.61 0.79 0.94 1.04 1.11 1.09 1.21 1.30 1.34 1.39 1.42 1.41 1.50 1.65
1.44 1.54 1.18 1.09 1.00 0.90 0.88 0.73 0.66 0.88 1.06 0.65 0.40 0.33 0.28 0.25 0.24 0.24 0.25 0.24 0.26 0.28 0.30 0.32 0.34 0.35 0.38 0.39 0.39 0.44 0.54 0.68 0.88 1.03 1.14 1.08 1.13 1.26 1.26 1.27 1.34 1.32 1.36 1.50
1.21 1.23 0.62 0.39 0.34 0.44 0.52 0.50 0.52 0.69 0.68 0.58 0.38 0.31 0.33 0.32 0.33 0.32 0.31 0.27 0.25 0.27 0.29 0.31 0.36 0.39 0.39 0.38 0.37 0.40 0.50 0.58 0.78 0.99 1.15 1.16 1.13 1.20 1.25 1.23 1.30 1.33 1.37 1.44
1.04 1.04 0.52 0.31 0.21 0.29 0.36 0.33 0.38 0.42 0.43 0.40 0.32 0.36 0.33 0.32 0.28 0.30 0.31 0.30 0.30 0.30 0.30 0.28 0.32 0.35 0.36 0.36 0.35 0.39 0.46 0.51 0.64 0.84 1.03 1.13 1.12 1.17 1.22 1.18 1.25 1.32 1.35 1.39
1.00 0.98 0.83 0.48 0.22 0.44 0.62 0.45 0.43 0.43 0.43 0.42 0.42 0.42 0.33 0.31 0.30 0.33 0.33 0.33 0.34 0.34 0.31 0.29 0.31 0.32 0.33 0.33 0.34 0.39 0.45 0.46 0.55 0.71 0.88 1.01 1.05 1.06 1.09 1.09 1.18 1.28 1.34 1.32
0.85 0.94 1.14 0.77 0.57 0.95 0.69 0.37 0.38 0.44 0.48 0.46 0.43 0.39 0.36 0.35 0.35 0.34 0.33 0.36 0.37 0.36 0.33 0.33 0.34 0.34 0.32 0.30 0.32 0.35 0.40 0.44 0.50 0.61 0.75 0.93 0.98 0.98 0.98 1.01 1.05 1.14 1.23 1.28
0.52 0.92 1.38 1.13 0.84 0.60 0.37 0.26 0.38 0.49 0.54 0.47 0.37 0.31 0.30 0.30 0.29 0.32 0.31 0.30 0.33 0.34 0.33 0.34 0.38 0.40 0.37 0.32 0.33 0.36 0.39 0.43 0.48 0.60 0.69 0.82 0.93 0.94 0.92 0.97 0.98 1.01 1.06 1.14
0.60 1.00 1.57 1.35 1.02 0.62 0.40 0.21 0.25 0.42 0.61 0.38 0.31 0.28 0.29 0.31 0.39 0.37 0.30 0.25 0.26 0.26 0.27 0.31 0.35 0.37 0.36 0.35 0.36 0.38 0.42 0.43 0.47 0.59 0.69 0.75 0.83 0.88 0.86 0.90 0.95 0.96 0.95 0.98
0.94 1.43 1.58 1.15 0.94 0.46 0.27 0.17 0.22 0.55 0.65 0.33 0.27 0.26 0.28 0.36 0.41 0.33 0.26 0.25 0.25 0.26 0.27 0.29 0.33 0.33 0.34 0.35 0.36 0.39 0.43 0.47 0.48 0.57 0.63 0.68 0.75 0.79 0.77 0.84 0.86 0.89 0.91 0.91
0.71 0.98 1.00 0.93 1.03 0.57 0.24 0.24 0.48 0.59 0.30 0.23 0.22 0.22 0.24 0.26 0.24 0.22 0.23 0.25 0.27 0.28 0.27 0.27 0.29 0.28 0.29 0.31 0.32 0.36 0.43 0.48 0.51 0.53 0.55 0.62 0.69 0.71 0.71 0.81 0.81 0.80 0.87 0.91
0.56 0.78 0.81 0.76 0.67 0.44 0.33 0.38 0.40 0.33 0.27 0.21 0.20 0.19 0.21 0.23 0.23 0.24 0.25 0.26 0.28 0.27 0.26 0.25 0.26 0.25 0.25 0.28 0.30 0.35 0.40 0.45 0.54 0.54 0.54 0.58 0.66 0.73 0.75 0.81 0.83 0.83 0.82 0.85
0.40 0.43 0.56 0.50 0.38 0.32 0.31 0.29 0.24 0.20 0.22 0.20 0.20 0.21 0.23 0.24 0.24 0.26 0.26 0.28 0.29 0.29 0.27 0.26 0.25 0.26 0.28 0.31 0.33 0.36 0.39 0.45 0.54 0.54 0.53 0.56 0.63 0.74 0.76 0.80 0.82 0.84 0.86 0.93
0.33 0.36 0.44 0.42 0.31 0.25 0.21 0.21 0.22 0.19 0.17 0.17 0.17 0.19 0.22 0.23 0.24 0.25 0.28 0.30 0.32 0.32 0.28 0.27 0.25 0.27 0.30 0.32 0.35 0.35 0.38 0.45 0.53 0.55 0.54 0.56 0.61 0.74 0.78 0.82 0.85 0.87 0.84 1.03
0.25 0.32 0.41 0.38 0.29 0.33 0.27 0.22 0.22 0.22 0.19 0.19 0.20 0.20 0.20 0.21 0.24 0.26 0.30 0.33 0.33 0.32 0.29 0.27 0.27 0.27 0.31 0.34 0.37 0.37 0.38 0.44 0.51 0.58 0.60 0.59 0.62 0.74 0.78 0.82 0.89 0.93 0.92 0.97

GEFSCGP_prec_meanprecacc_282.txt.gz
Total_Precipitation_Accumulation
0.76 0.96 0.84 0.58 0.59 0.52 0.43 0.43 0.34 0.19 0.17 0.32 0.31 0.22 0.18 0.18 0.21 0.22 0.21 0.24 0.27 0.27 0.34 0.42 0.56 0.69 0.80 0.88 1.01 1.18 1.33 1.51 1.75 1.89 1.94 1.90 1.84 1.69 1.60 1.54 1.46 1.40 1.41 1.49
0.84 0.74 0.38 0.29 0.37 0.46 0.49 0.54 0.41 0.28 0.21 0.34 0.33 0.25 0.20 0.19 0.22 0.24 0.23 0.27 0.29 0.27 0.34 0.41 0.52 0.69 0.76 0.83 0.91 1.08 1.27 1.40 1.61 1.77 1.79 1.88 1.83 1.75 1.66 1.57 1.52 1.47 1.40 1.47
0.66 0.43 0.27 0.35 0.48 0.60 0.54 0.48 0.41 0.38 0.34 0.37 0.43 0.37 0.21 0.18 0.18 0.20 0.21 0.23 0.26 0.28 0.31 0.36 0.47 0.63 0.74 0.79 0.88 1.02 1.20 1.36 1.48 1.71 1.96 2.13 2.20 2.02 1.87 1.71 1.56 1.45 1.42 1.40
0.50 0.29 0.32 0.44 0.50 0.59 0.60 0.32 0.35 0.43 0.66 0.70 0.57 0.67 0.26 0.18 0.16 0.18 0.21 0.20 0.20 0.24 0.27 0.31 0.41 0.56 0.68 0.77 0.92 1.06 1.13 1.31 1.50 1.63 1.89 2.12 2.20 2.05 1.73 1.63 1.61 1.54 1.46 1.41
0.63 0.33 0.38 0.46 0.38 0.45 0.49 0.35 0.39 0.49 0.77 0.91 0.61 0.71 0.32 0.19 0.19 0.18 0.19 0.20 0.19 0.22 0.26 0.29 0.36 0.47 0.59 0.78 0.93 1.07 1.16 1.29 1.53 1.69 1.80 2.07 2.21 2.08 1.88 1.74 1.65 1.57 1.53 1.47
0.50 0.35 0.43 0.37 0.29 0.37 0.46 0.55 0.66 0.78 1.25 1.54 0.58 0.56 0.38 0.26 0.28 0.22 0.19 0.21 0.21 0.23 0.29 0.30 0.35 0.45 0.54 0.74 0.86 1.05 1.19 1.24 1.46 1.67 1.82 1.97 2.18 2.25 2.09 1.92 1.80 1.67 1.60 1.52
0.63 0.46 0.44 0.40 0.49 0.55 0.76 1.29 1.94 2.14 2.19 1.32 0.31 0.39 0.42 0.27 0.25 0.28 0.27 0.26 0.25 0.24 0.28 0.32 0.37 0.45 0.49 0.68 0.81 0.98 1.19 1.21 1.29 1.48 1.68 1.85 2.04 2.20 2.26 2.10 1.87 1.75 1.73 1.64
0.79 0.62 0.48 0.49 0.61 0.74 0.81 1.17 1.57 1.46 0.98 0.47 0.27 0.37 0.35 0.27 0.24 0.23 0.24 0.26 0.25 0.26 0.27 0.33 0.37 0.43 0.47 0.55 0.68 0.85 1.09 1.17 1.18 1.29 1.45 1.71 1.95 2.13 2.20 2.22 2.00 1.81 1.72 1.61
0.90 0.58 0.34 0.34 0.37 0.51 0.80 0.87 0.79 1.06 0.77 0.51 0.41 0.36 0.28 0.19 0.17 0.18 0.21 0.25 0.27 0.30 0.31 0.34 0.41 0.45 0.48 0.52 0.60 0.76 1.00 1.13 1.10 1.19 1.29 1.45 1.70 1.97 2.10 2.13 2.11 1.95 1.82 1.70
1.07 0.79 0.40 0.36 0.45 0.54 0.65 0.78 0.90 1.37 1.25 0.75 0.44 0.33 0.41 0.31 0.24 0.20 0.22 0.28 0.31 0.32 0.35 0.36 0.40 0.45 0.48 0.50 0.57 0.72 0.89 1.11 1.13 1.14 1.20 1.29 1.43 1.65 1.89 2.07 2.17 2.00 1.90 1.84
0.97 1.04 0.68 0.61 0.80 0.84 0.73 0.95 1.16 1.19 0.97 0.81 0.60 0.48 0.51 0.42 0.35 0.30 0.27 0.29 0.32 0.33 0.38 0.40 0.40 0.43 0.48 0.50 0.54 0.69 0.83 1.00 1.17 1.20 1.19 1.27 1.37 1.52 1.69 1.80 1.95 2.02 1.97 1.89
0.93 1.20 0.92 0.63 0.57 0.58 0.75 0.87 1.00 1.22 0.94 0.58 0.59 0.55 0.42 0.35 0.33 0.32 0.29 0.29 0.33 0.38 0.42 0.44 0.43 0.40 0.43 0.49 0.53 0.61 0.79 0.93 1.06 1.19 1.22 1.26 1.36 1.51 1.61 1.63 1.66 1.76 1.90 1.90
1.36 1.60 1.31 0.99 0.86 0.76 0.94 0.86 0.83 0.90 0.84 0.65 0.58 0.46 0.31 0.27 0.27 0.27 0.28 0.27 0.32 0.37 0.42 0.46 0.43 0.41 0.45 0.49 0.53 0.57 0.67 0.84 1.00 1.13 1.21 1.19 1.32 1.42 1.47 1.51 1.53 1.53 1.66 1.82
1.50 1.58 1.21 1.13 1.03 0.92 0.90 0.74 0.67 0.90 1.07 0.67 0.42 0.34 0.29 0.27 0.27 0.27 0.27 0.27 0.30 0.34 0.39 0.43 0.44 0.44 0.49 0.51 0.50 0.55 0.65 0.78 0.98 1.14 1.26 1.20 1.26 1.39 1.39 1.38 1.43 1.41 1.47 1.64
1.24 1.26 0.64 0.42 0.37 0.46 0.53 0.51 0.54 0.71 0.69 0.59 0.40 0.33 0.35 0.36 0.36 0.36 0.34 0.31 0.28 0.32 0.37 0.40 0.46 0.51 0.52 0.52 0.51 0.54 0.64 0.72 0.92 1.14 1.31 1.29 1.25 1.33 1.37 1.33 1.38 1.41 1.44 1.52
1.05 1.06 0.54 0.32 0.22 0.30 0.38 0.34 0.40 0.44 0.45 0.41 0.33 0.37 0.34 0.34 0.30 0.32 0.34 0.33 0.33 0.34 0.36 0.36 0.41 0.46 0.48 0.49 0.49 0.52 0.59 0.65 0.78 0.98 1.17 1.24 1.22 1.28 1.33 1.28 1.34 1.39 1.42 1.46
1.01 1.00 0.85 0.49 0.23 0.45 0.64 0.46 0.45 0.45 0.46 0.45 0.44 0.43 0.34 0.33 0.32 0.36 0.36 0.36 0.38 0.39 0.37 0.35 0.39 0.42 0.43 0.43 0.43 0.48 0.56 0.58 0.65 0.80 0.98 1.09 1.13 1.15 1.18 1.18 1.26 1.34 1.40 1.38
0.86 0.96 1.17 0.78 0.58 0.96 0.70 0.38 0.40 0.46 0.50 0.48 0.45 0.40 0.37 0.37 0.37 0.36 0.36 0.39 0.41 0.40 0.38 0.38 0.42 0.42 0.39 0.38 0.40 0.42 0.47 0.52 0.57 0.67 0.82 1.00 1.05 1.05 1.05 1.08 1.12 1.19 1.28 1.31
0.53 0.94 1.41 1.15 0.86 0.61 0.38 0.27 0.39 0.49 0.55 0.48 0.39 0.32 0.31 0.31 0.30 0.33 0.32 0.32 0.36 0.37 0.36 0.38 0.43 0.45 0.42 0.38 0.38 0.41 0.45 0.48 0.54 0.65 0.75 0.88 0.99 1.00 0.97 1.02 1.03 1.05 1.09 1.17
0.61 1.01 1.59 1.37 1.03 0.63 0.41 0.21 0.25 0.43 0.62 0.39 0.32 0.30 0.30 0.32 0.40 0.38 0.31 0.27 0.28 0.28 0.30 0.35 0.39 0.42 0.41 0.39 0.39 0.41 0.47 0.48 0.51 0.64 0.74 0.80 0.87 0.91 0.89 0.94 0.99 0.99 0.98 1.01
0.95 1.44 1.59 1.16 0.95 0.47 0.27 0.17 0.23 0.56 0.66 0.34 0.28 0.28 0.29 0.37 0.42 0.35 0.28 0.26 0.27 0.28 0.29 0.32 0.36 0.37 0.38 0.38 0.39 0.42 0.47 0.52 0.53 0.61 0.68 0.73 0.79 0.83 0.80 0.86 0.88 0.91 0.94 0.93
0.72 0.99 1.01 0.95 1.05 0.57 0.24 0.24 0.49 0.59 0.30 0.24 0.22 0.23 0.25 0.27 0.25 0.24 0.25 0.27 0.29 0.30 0.30 0.30 0.32 0.31 0.32 0.34 0.36 0.40 0.47 0.52 0.55 0.57 0.60 0.68 0.74 0.75 0.74 0.84 0.83 0.83 0.89 0.93
0.57 0.79 0.82 0.78 0.68 0.45 0.33 0.39 0.41 0.34 0.28 0.21 0.21 0.20 0.22 0.24 0.24 0.25 0.27 0.27 0.30 0.30 0.29 0.28 0.29 0.28 0.29 0.32 0.35 0.39 0.45 0.49 0.58 0.58 0.59 0.63 0.71 0.78 0.79 0.84 0.85 0.85 0.85 0.87
0.41 0.45 0.58 0.51 0.39 0.33 0.32 0.29 0.25 0.21 0.22 0.20 0.20 0.22 0.23 0.25 0.24 0.26 0.27 0.29 0.30 0.31 0.29 0.28 0.28 0.29 0.31 0.34 0.37 0.40 0.44 0.49 0.58 0.58 0.58 0.61 0.68 0.78 0.80 0.83 0.85 0.87 0.89 0.96
0.35 0.37 0.46 0.44 0.32 0.26 0.23 0.22 0.23 0.20 0.17 0.17 0.17 0.19 0.22 0.24 0.25 0.26 0.29 0.31 0.33 0.33 0.30 0.29 0.27 0.29 0.32 0.35 0.38 0.39 0.42 0.49 0.56 0.59 0.58 0.59 0.64 0.77 0.81 0.85 0.88 0.90 0.87 1.05
0.26 0.34 0.43 0.40 0.30 0.34 0.28 0.22 0.22 0.23 0.20 0.19 0.20 0.21 0.21 0.22 0.24 0.27 0.31 0.34 0.34 0.33 0.31 0.29 0.28 0.29 0.33 0.37 0.39 0.40 0.42 0.47 0.54 0.60 0.62 0.61 0.64 0.76 0.81 0.85 0.92 0.96 0.95 0.98

GEFSCGP_prec_meanprecacc_288.txt.gz
Total_Precipitation_Accumulation
0.80 1.00 0.88 0.60 0.61 0.53 0.43 0.44 0.34 0.20 0.17 0.33 0.31 0.23 0.19 0.20 0.23 0.23 0.22 0.26 0.28 0.29 0.36 0.43 0.58 0.70 0.81 0.90 1.05 1.25 1.41 1.58 1.81 1.95 2.00 1.98 1.94 1.78 1.69 1.61 1.52 1.45 1.46 1.53
0.88 0.77 0.40 0.30 0.38 0.47 0.50 0.54 0.42 0.29 0.21 0.35 0.34 0.25 0.21 0.20 0.23 0.25 0.24 0.27 0.30 0.28 0.35 0.42 0.53 0.70 0.78 0.84 0.94 1.14 1.34 1.47 1.67 1.83 1.85 1.94 1.91 1.85 1.75 1.64 1.60 1.53 1.46 1.51
0.69 0.44 0.27 0.36 0.48 0.61 0.55 0.49 0.41 0.39 0.35 0.38 0.44 0.39 0.22 0.20 0.19 0.22 0.22 0.24 0.27 0.30 0.32 0.37 0.48 0.63 0.75 0.81 0.90 1.05 1.25 1.41 1.52 1.76 2.02 2.20 2.27 2.12 1.98 1.81 1.63 1.51 1.48 1.46
0.51 0.29 0.32 0.45 0.51 0.60 0.61 0.33 0.36 0.44 0.68 0.72 0.58 0.69 0.27 0.20 0.17 0.21 0.23 0.22 0.22 0.26 0.27 0.31 0.42 0.56 0.69 0.78 0.93 1.08 1.16 1.35 1.54 1.67 1.94 2.18 2.27 2.13 1.83 1.73 1.69 1.61 1.52 1.47
0.65 0.33 0.39 0.46 0.39 0.46 0.50 0.35 0.40 0.51 0.79 0.93 0.62 0.73 0.33 0.19 0.20 0.20 0.23 0.22 0.21 0.24 0.27 0.29 0.36 0.47 0.59 0.78 0.94 1.09 1.18 1.33 1.56 1.73 1.84 2.11 2.27 2.16 1.98 1.85 1.75 1.66 1.61 1.55
0.51 0.36 0.44 0.38 0.29 0.38 0.47 0.56 0.67 0.80 1.28 1.56 0.59 0.57 0.39 0.26 0.28 0.23 0.24 0.25 0.24 0.25 0.30 0.31 0.36 0.45 0.55 0.74 0.87 1.06 1.21 1.27 1.49 1.71 1.86 2.00 2.22 2.32 2.20 2.04 1.93 1.77 1.70 1.63
0.65 0.48 0.45 0.40 0.50 0.56 0.79 1.33 1.98 2.18 2.22 1.34 0.31 0.40 0.42 0.28 0.26 0.29 0.32 0.32 0.30 0.28 0.30 0.33 0.37 0.46 0.50 0.68 0.82 0.99 1.22 1.24 1.32 1.51 1.72 1.90 2.08 2.26 2.35 2.19 1.98 1.87 1.84 1.75
0.82 0.65 0.50 0.50 0.62 0.75 0.83 1.19 1.59 1.49 0.99 0.48 0.28 0.38 0.36 0.29 0.26 0.25 0.26 0.30 0.29 0.28 0.29 0.34 0.38 0.45 0.48 0.56 0.69 0.87 1.11 1.19 1.20 1.31 1.48 1.76 2.01 2.19 2.28 2.30 2.09 1.92 1.83 1.72
0.93 0.61 0.35 0.34 0.38 0.51 0.81 0.88 0.80 1.08 0.79 0.52 0.41 0.36 0.29 0.20 0.19 0.20 0.23 0.28 0.30 0.33 0.33 0.35 0.43 0.46 0.50 0.53 0.62 0.78 1.02 1.15 1.12 1.21 1.32 1.50 1.77 2.04 2.18 2.21 2.20 2.05 1.90 1.78
1.09 0.81 0.41 0.37 0.46 0.55 0.65 0.80 0.91 1.40 1.27 0.76 0.44 0.33 0.41 0.31 0.25 0.21 0.24 0.30 0.33 0.34 0.37 0.37 0.42 0.48 0.51 0.53 0.60 0.74 0.91 1.13 1.15 1.16 1.24 1.34 1.49 1.73 1.98 2.15 2.25 2.09 1.98 1.90
0.99 1.07 0.70 0.62 0.81 0.85 0.75 0.97 1.18 1.21 0.98 0.82 0.61 0.49 0.52 0.43 0.36 0.31 0.28 0.31 0.35 0.36 0.41 0.43 0.43 0.46 0.51 0.53 0.58 0.72 0.86 1.03 1.20 1.24 1.23 1.33 1.43 1.61 1.79 1.87 2.02 2.10 2.05 1.96
0.95 1.23 0.94 0.64 0.58 0.59 0.76 0.88 1.02 1.23 0.95 0.58 0.60 0.55 0.43 0.36 0.34 0.33 0.31 0.30 0.36 0.41 0.45 0.47 0.46 0.43 0.47 0.53 0.57 0.65 0.83 0.97 1.10 1.24 1.28 1.32 1.42 1.59 1.70 1.70 1.72 1.83 1.97 1.96
1.39 1.63 1.33 1.00 0.87 0.77 0.95 0.87 0.85 0.92 0.87 0.67 0.59 0.46 0.32 0.27 0.28 0.28 0.29 0.29 0.35 0.40 0.44 0.48 0.46 0.44 0.49 0.54 0.59 0.62 0.72 0.89 1.06 1.19 1.29 1.26 1.39 1.49 1.54 1.58 1.60 1.59 1.71 1.87
1.56 1.61 1.23 1.14 1.05 0.95 0.92 0.76 0.69 0.93 1.10 0.68 0.43 0.35 0.30 0.28 0.28 0.28 0.29 0.30 0.34 0.38 0.42 0.46 0.47 0.47 0.52 0.55 0.55 0.60 0.69 0.83 1.05 1.21 1.34 1.29 1.36 1.47 1.45 1.45 1.49 1.47 1.52 1.68
1.27 1.28 0.66 0.44 0.38 0.48 0.55 0.52 0.55 0.73 0.72 0.61 0.40 0.33 0.37 0.38 0.39 0.38 0.38 0.34 0.31 0.36 0.40 0.44 0.51 0.55 0.56 0.57 0.57 0.59 0.70 0.78 0.99 1.21 1.39 1.39 1.36 1.42 1.44 1.40 1.45 1.47 1.51 1.58
1.07 1.09 0.56 0.34 0.24 0.32 0.40 0.36 0.41 0.46 0.47 0.43 0.34 0.38 0.35 0.36 0.32 0.35 0.37 0.36 0.36 0.39 0.42 0.41 0.46 0.51 0.54 0.56 0.56 0.59 0.67 0.74 0.88 1.07 1.26 1.35 1.34 1.40 1.42 1.36 1.41 1.46 1.49 1.52
1.03 1.02 0.88 0.51 0.24 0.46 0.65 0.48 0.46 0.47 0.48 0.47 0.46 0.44 0.36 0.34 0.35 0.39 0.39 0.40 0.42 0.44 0.43 0.43 0.47 0.50 0.51 0.52 0.52 0.58 0.66 0.69 0.76 0.92 1.10 1.22 1.26 1.28 1.29 1.29 1.35 1.42 1.46 1.44
0.88 0.98 1.20 0.80 0.60 0.98 0.72 0.39 0.41 0.47 0.52 0.50 0.48 0.42 0.39 0.39 0.41 0.40 0.39 0.43 0.45 0.45 0.42 0.44 0.49 0.50 0.49 0.49 0.51 0.55 0.59 0.64 0.68 0.79 0.94 1.14 1.19 1.17 1.16 1.19 1.22 1.28 1.35 1.38
0.55 0.96 1.44 1.17 0.88 0.63 0.40 0.28 0.40 0.50 0.56 0.50 0.41 0.34 0.33 0.33 0.33 0.36 0.35 0.35 0.40 0.42 0.40 0.43 0.49 0.51 0.49 0.47 0.50 0.53 0.56 0.59 0.65 0.76 0.87 1.01 1.12 1.12 1.08 1.12 1.12 1.14 1.17 1.23
0.63 1.03 1.62 1.39 1.05 0.65 0.43 0.22 0.26 0.44 0.63 0.41 0.34 0.32 0.32 0.34 0.41 0.41 0.34 0.30 0.32 0.32 0.34 0.39 0.44 0.47 0.47 0.47 0.48 0.51 0.57 0.59 0.62 0.75 0.86 0.92 0.99 1.02 0.99 1.03 1.06 1.06 1.04 1.07
0.96 1.46 1.61 1.17 0.96 0.48 0.28 0.18 0.23 0.57 0.67 0.35 0.30 0.30 0.31 0.40 0.45 0.38 0.31 0.29 0.30 0.32 0.34 0.37 0.41 0.42 0.45 0.46 0.48 0.51 0.56 0.62 0.63 0.71 0.78 0.82 0.87 0.90 0.87 0.93 0.94 0.97 0.99 0.98
0.73 1.02 1.03 0.97 1.07 0.58 0.25 0.25 0.50 0.61 0.32 0.25 0.23 0.24 0.26 0.28 0.27 0.26 0.28 0.30 0.32 0.34 0.34 0.35 0.38 0.37 0.39 0.42 0.43 0.48 0.55 0.61 0.62 0.63 0.65 0.73 0.79 0.80 0.78 0.88 0.87 0.87 0.93 0.97
0.58 0.81 0.84 0.79 0.70 0.46 0.34 0.41 0.43 0.36 0.29 0.22 0.22 0.21 0.23 0.25 0.25 0.27 0.30 0.31 0.33 0.34 0.33 0.33 0.34 0.34 0.36 0.40 0.42 0.46 0.51 0.55 0.62 0.62 0.62 0.66 0.74 0.80 0.81 0.86 0.88 0.88 0.88 0.91
0.42 0.46 0.59 0.53 0.40 0.34 0.33 0.31 0.26 0.22 0.23 0.21 0.21 0.23 0.24 0.26 0.26 0.28 0.29 0.32 0.34 0.36 0.34 0.34 0.33 0.34 0.37 0.41 0.44 0.46 0.49 0.53 0.61 0.61 0.60 0.63 0.70 0.81 0.82 0.85 0.87 0.89 0.91 0.98
0.36 0.38 0.47 0.45 0.33 0.27 0.23 0.23 0.23 0.20 0.18 0.18 0.18 0.20 0.23 0.25 0.26 0.27 0.30 0.33 0.36 0.36 0.34 0.33 0.32 0.34 0.37 0.40 0.43 0.43 0.46 0.51 0.58 0.61 0.60 0.61 0.66 0.79 0.83 0.87 0.90 0.92 0.90 1.08
0.26 0.35 0.44 0.40 0.30 0.35 0.28 0.22 0.23 0.23 0.21 0.20 0.21 0.22 0.21 0.23 0.26 0.28 0.33 0.35 0.36 0.35 0.33 0.32 0.31 0.32 0.36 0.40 0.42 0.43 0.44 0.49 0.56 0.62 0.64 0.63 0.66 0.79 0.83 0.87 0.93 0.98 0.96 1.00

GEFSCGP_prec_meanprecacc_294.txt.gz
Total_Precipitation_Accumulation
0.81 1.02 0.90 0.61 0.62 0.55 0.45 0.45 0.35 0.20 0.18 0.33 0.32 0.23 0.20 0.20 0.23 0.25 0.25 0.32 0.32 0.34 0.39 0.45 0.58 0.71 0.82 0.90 1.06 1.26 1.43 1.61 1.85 2.00 2.06 2.04 1.98 1.82 1.73 1.68 1.59 1.53 1.54 1.62
0.89 0.79 0.40 0.30 0.39 0.48 0.51 0.56 0.43 0.29 0.21 0.35 0.34 0.25 0.21 0.21 0.23 0.26 0.27 0.34 0.34 0.34 0.40 0.44 0.54 0.70 0.78 0.85 0.94 1.15 1.34 1.50 1.71 1.88 1.90 1.99 1.96 1.89 1.79 1.70 1.67 1.60 1.55 1.62
0.70 0.45 0.28 0.36 0.49 0.62 0.57 0.51 0.43 0.40 0.35 0.39 0.45 0.39 0.22 0.20 0.20 0.23 0.25 0.30 0.32 0.34 0.36 0.39 0.49 0.64 0.76 0.81 0.90 1.06 1.26 1.42 1.56 1.81 2.08 2.26 2.34 2.18 2.03 1.86 1.71 1.60 1.57 1.57
0.52 0.30 0.33 0.45 0.52 0.61 0.62 0.35 0.38 0.46 0.69 0.73 0.59 0.69 0.28 0.20 0.18 0.21 0.25 0.27 0.27 0.31 0.31 0.33 0.43 0.57 0.69 0.79 0.94 1.08 1.16 1.36 1.56 1.71 1.99 2.24 2.34 2.20 1.88 1.78 1.75 1.69 1.61 1.60
0.66 0.34 0.39 0.47 0.39 0.47 0.51 0.37 0.41 0.52 0.80 0.95 0.64 0.74 0.34 0.20 0.20 0.20 0.25 0.26 0.26 0.29 0.32 0.31 0.37 0.48 0.60 0.79 0.94 1.09 1.18 1.33 1.58 1.76 1.88 2.16 2.32 2.21 2.04 1.91 1.80 1.73 1.70 1.66
0.51 0.36 0.44 0.38 0.29 0.38 0.48 0.58 0.69 0.81 1.30 1.59 0.60 0.58 0.39 0.27 0.29 0.24 0.25 0.29 0.29 0.32 0.36 0.33 0.37 0.47 0.55 0.75 0.87 1.07 1.21 1.27 1.50 1.73 1.89 2.04 2.26 2.36 2.26 2.11 1.99 1.84 1.78 1.72
0.67 0.48 0.46 0.41 0.51 0.57 0.80 1.36 2.02 2.21 2.26 1.36 0.32 0.40 0.43 0.29 0.27 0.31 0.34 0.35 0.35 0.35 0.36 0.36 0.40 0.47 0.51 0.69 0.82 1.00 1.22 1.24 1.33 1.52 1.74 1.93 2.12 2.30 2.40 2.25 2.05 1.93 1.90 1.83
0.83 0.66 0.51 0.51 0.63 0.77 0.84 1.21 1.63 1.52 1.01 0.49 0.28 0.38 0.37 0.30 0.27 0.27 0.28 0.32 0.32 0.33 0.35 0.37 0.40 0.46 0.50 0.57 0.70 0.87 1.11 1.19 1.21 1.33 1.49 1.79 2.05 2.23 2.32 2.35 2.15 1.99 1.88 1.78
0.95 0.62 0.37 0.36 0.39 0.52 0.83 0.90 0.81 1.10 0.80 0.53 0.42 0.36 0.29 0.20 0.19 0.20 0.23 0.28 0.31 0.36 0.38 0.39 0.46 0.49 0.52 0.56 0.63 0.78 1.02 1.15 1.13 1.22 1.33 1.52 1.80 2.08 2.22 2.25 2.24 2.10 1.96 1.84
1.11 0.83 0.43 0.39 0.48 0.57 0.67 0.82 0.94 1.42 1.29 0.78 0.45 0.33 0.41 0.32 0.25 0.22 0.25 0.31 0.34 0.36 0.41 0.42 0.47 0.52 0.54 0.56 0.62 0.75 0.92 1.14 1.16 1.17 1.25 1.36 1.52 1.77 2.01 2.19 2.29 2.14 2.04 1.96
1.01 1.10 0.73 0.65 0.84 0.86 0.76 1.00 1.20 1.22 0.99 0.84 0.62 0.49 0.53 0.44 0.37 0.32 0.29 0.32 0.36 0.38 0.43 0.46 0.46 0.51 0.55 0.56 0.61 0.75 0.87 1.04 1.21 1.25 1.24 1.34 1.46 1.66 1.83 1.90 2.05 2.15 2.12 2.02
0.98 1.25 0.96 0.67 0.60 0.60 0.77 0.90 1.04 1.25 0.96 0.59 0.61 0.57 0.44 0.38 0.35 0.33 0.31 0.31 0.37 0.42 0.47 0.49 0.48 0.46 0.50 0.57 0.62 0.69 0.86 0.99 1.12 1.26 1.29 1.34 1.45 1.65 1.78 1.76 1.77 1.89 2.07 2.06
1.44 1.67 1.35 1.03 0.90 0.79 0.97 0.88 0.86 0.94 0.89 0.68 0.60 0.47 0.33 0.28 0.28 0.29 0.30 0.30 0.35 0.41 0.46 0.49 0.47 0.45 0.51 0.57 0.63 0.65 0.75 0.93 1.08 1.21 1.30 1.29 1.42 1.55 1.63 1.66 1.66 1.65 1.80 1.96
1.60 1.65 1.25 1.16 1.06 0.97 0.94 0.77 0.71 0.96 1.14 0.69 0.44 0.36 0.30 0.29 0.28 0.29 0.30 0.31 0.34 0.38 0.43 0.46 0.48 0.49 0.54 0.58 0.58 0.62 0.72 0.86 1.07 1.24 1.37 1.33 1.40 1.51 1.54 1.54 1.58 1.54 1.59 1.75
1.30 1.31 0.67 0.44 0.39 0.49 0.57 0.54 0.56 0.75 0.73 0.64 0.42 0.34 0.37 0.39 0.40 0.39 0.39 0.35 0.32 0.37 0.41 0.45 0.52 0.57 0.58 0.59 0.59 0.61 0.72 0.80 1.01 1.24 1.42 1.43 1.41 1.47 1.51 1.49 1.54 1.55 1.57 1.63
1.09 1.10 0.57 0.35 0.25 0.33 0.41 0.37 0.41 0.46 0.47 0.44 0.35 0.39 0.36 0.37 0.33 0.35 0.38 0.37 0.37 0.40 0.43 0.43 0.49 0.54 0.57 0.59 0.59 0.62 0.70 0.76 0.90 1.10 1.30 1.40 1.40 1.45 1.48 1.44 1.50 1.55 1.57 1.59
1.04 1.04 0.89 0.52 0.25 0.48 0.67 0.49 0.47 0.48 0.48 0.48 0.48 0.45 0.37 0.35 0.36 0.40 0.41 0.42 0.44 0.46 0.45 0.45 0.50 0.54 0.56 0.57 0.57 0.63 0.70 0.72 0.80 0.96 1.15 1.27 1.32 1.35 1.37 1.37 1.44 1.52 1.55 1.52
0.89 1.00 1.22 0.82 0.60 1.00 0.74 0.41 0.42 0.48 0.53 0.52 0.50 0.44 0.41 0.41 0.43 0.42 0.41 0.44 0.47 0.47 0.45 0.47 0.53 0.55 0.54 0.55 0.58 0.60 0.64 0.68 0.73 0.84 1.00 1.20 1.26 1.27 1.26 1.28 1.32 1.39 1.45 1.46
0.56 0.98 1.46 1.19 0.89 0.64 0.41 0.29 0.42 0.52 0.57 0.51 0.43 0.36 0.34 0.34 0.34 0.37 0.36 0.37 0.43 0.45 0.43 0.46 0.53 0.56 0.54 0.54 0.57 0.59 0.62 0.66 0.72 0.85 0.96 1.11 1.21 1.22 1.19 1.22 1.24 1.24 1.26 1.31
0.65 1.06 1.64 1.41 1.07 0.66 0.44 0.23 0.27 0.46 0.64 0.42 0.35 0.33 0.34 0.35 0.43 0.42 0.36 0.32 0.34 0.35 0.37 0.42 0.47 0.51 0.50 0.52 0.54 0.57 0.63 0.66 0.71 0.85 0.96 1.03 1.10 1.14 1.11 1.14 1.18 1.16 1.13 1.15
0.97 1.48 1.63 1.19 0.98 0.49 0.29 0.18 0.24 0.59 0.70 0.36 0.31 0.32 0.33 0.43 0.49 0.41 0.33 0.32 0.33 0.36 0.38 0.41 0.44 0.46 0.49 0.51 0.53 0.57 0.63 0.70 0.73 0.80 0.86 0.93 0.99 1.02 0.99 1.03 1.05 1.07 1.07 1.06
0.74 1.03 1.05 0.98 1.08 0.60 0.26 0.26 0.53 0.64 0.34 0.26 0.25 0.26 0.28 0.31 0.30 0.29 0.31 0.32 0.35 0.38 0.39 0.40 0.43 0.43 0.45 0.48 0.49 0.53 0.62 0.69 0.70 0.71 0.74 0.83 0.91 0.92 0.89 0.96 0.96 0.95 1.00 1.04
0.59 0.82 0.86 0.81 0.72 0.48 0.36 0.42 0.45 0.37 0.31 0.24 0.23 0.22 0.25 0.27 0.29 0.30 0.32 0.33 0.36 0.38 0.38 0.39 0.40 0.39 0.41 0.46 0.47 0.52 0.58 0.62 0.70 0.70 0.71 0.76 0.84 0.89 0.89 0.92 0.93 0.93 0.93 0.95
0.43 0.46 0.60 0.54 0.41 0.35 0.33 0.31 0.27 0.23 0.25 0.23 0.23 0.24 0.26 0.27 0.28 0.31 0.32 0.35 0.38 0.40 0.40 0.40 0.38 0.39 0.43 0.48 0.49 0.52 0.56 0.60 0.68 0.69 0.69 0.72 0.78 0.88 0.87 0.89 0.90 0.92 0.94 1.01
0.36 0.39 0.48 0.45 0.33 0.27 0.23 0.23 0.24 0.21 0.20 0.19 0.20 0.21 0.25 0.26 0.28 0.30 0.33 0.37 0.40 0.41 0.41 0.40 0.37 0.39 0.43 0.46 0.49 0.50 0.53 0.58 0.65 0.67 0.66 0.67 0.71 0.83 0.87 0.90 0.93 0.94 0.92 1.11
0.27 0.36 0.44 0.41 0.31 0.35 0.28 0.23 0.23 0.24 0.22 0.22 0.22 0.23 0.22 0.24 0.27 0.30 0.36 0.38 0.39 0.39 0.38 0.36 0.35 0.36 0.42 0.45 0.49 0.49 0.51 0.54 0.60 0.66 0.68 0.66 0.69 0.81 0.85 0.89 0.95 1.00 0.98 1.02

GEFSCGP_prec_meanprecacc_300.txt.gz
Total_Precipitation_Accumulation
0.84 1.05 0.91 0.63 0.63 0.55 0.45 0.46 0.36 0.21 0.18 0.33 0.33 0.24 0.20 0.20 0.23 0.25 0.26 0.32 0.32 0.35 0.42 0.49 0.62 0.74 0.84 0.93 1.09 1.29 1.46 1.63 1.86 2.02 2.09 2.08 2.02 1.86 1.78 1.71 1.64 1.59 1.61 1.68
0.91 0.80 0.41 0.31 0.40 0.50 0.52 0.58 0.44 0.30 0.22 0.36 0.35 0.25 0.21 0.21 0.23 0.26 0.27 0.34 0.35 0.36 0.43 0.47 0.58 0.74 0.81 0.87 0.96 1.17 1.38 1.53 1.73 1.89 1.92 2.02 2.00 1.92 1.82 1.74 1.70 1.63 1.59 1.66
0.71 0.46 0.29 0.37 0.51 0.64 0.59 0.52 0.44 0.41 0.36 0.39 0.45 0.39 0.23 0.20 0.20 0.23 0.25 0.31 0.33 0.37 0.40 0.42 0.53 0.68 0.79 0.83 0.92 1.08 1.29 1.45 1.57 1.82 2.10 2.29 2.37 2.21 2.07 1.90 1.74 1.63 1.60 1.60
0.53 0.31 0.34 0.46 0.53 0.63 0.64 0.35 0.39 0.47 0.71 0.75 0.61 0.71 0.28 0.20 0.18 0.22 0.25 0.28 0.28 0.33 0.35 0.37 0.46 0.60 0.73 0.81 0.96 1.10 1.18 1.37 1.57 1.72 2.00 2.25 2.36 2.22 1.91 1.81 1.78 1.72 1.65 1.63
0.67 0.35 0.41 0.48 0.40 0.48 0.52 0.37 0.42 0.53 0.82 0.97 0.65 0.76 0.34 0.20 0.21 0.20 0.25 0.27 0.28 0.32 0.35 0.35 0.41 0.51 0.63 0.81 0.97 1.12 1.20 1.34 1.59 1.76 1.88 2.16 2.33 2.23 2.07 1.95 1.84 1.76 1.73 1.69
0.52 0.37 0.45 0.39 0.30 0.39 0.49 0.59 0.69 0.82 1.32 1.61 0.61 0.59 0.40 0.28 0.30 0.24 0.26 0.29 0.30 0.34 0.40 0.38 0.41 0.50 0.58 0.78 0.90 1.09 1.23 1.28 1.51 1.74 1.90 2.04 2.27 2.37 2.27 2.13 2.03 1.88 1.82 1.76
0.67 0.49 0.47 0.42 0.51 0.57 0.81 1.38 2.05 2.23 2.28 1.37 0.32 0.41 0.43 0.29 0.28 0.32 0.35 0.36 0.36 0.37 0.42 0.43 0.44 0.51 0.54 0.72 0.84 1.02 1.23 1.25 1.33 1.53 1.75 1.94 2.13 2.31 2.40 2.27 2.07 1.97 1.95 1.87
0.85 0.68 0.52 0.52 0.64 0.77 0.85 1.23 1.65 1.55 1.02 0.49 0.28 0.39 0.37 0.30 0.28 0.27 0.29 0.33 0.33 0.36 0.41 0.46 0.49 0.51 0.53 0.59 0.72 0.89 1.12 1.20 1.22 1.34 1.50 1.80 2.06 2.24 2.33 2.36 2.16 2.02 1.92 1.83
0.98 0.64 0.37 0.37 0.40 0.53 0.83 0.91 0.82 1.13 0.82 0.54 0.42 0.37 0.29 0.20 0.19 0.20 0.24 0.29 0.31 0.38 0.43 0.48 0.57 0.56 0.57 0.59 0.65 0.79 1.03 1.16 1.14 1.23 1.34 1.53 1.81 2.08 2.22 2.26 2.25 2.13 2.00 1.89
1.14 0.85 0.44 0.40 0.49 0.57 0.67 0.82 0.95 1.46 1.32 0.80 0.46 0.34 0.42 0.32 0.25 0.22 0.25 0.31 0.35 0.37 0.43 0.48 0.57 0.61 0.62 0.59 0.64 0.77 0.93 1.15 1.17 1.18 1.26 1.36 1.53 1.78 2.01 2.20 2.30 2.15 2.06 2.00
1.04 1.12 0.74 0.67 0.86 0.88 0.77 1.01 1.22 1.25 1.01 0.86 0.64 0.51 0.54 0.44 0.38 0.33 0.29 0.33 0.37 0.39 0.44 0.50 0.54 0.59 0.63 0.62 0.65 0.77 0.89 1.06 1.23 1.26 1.25 1.35 1.47 1.67 1.84 1.91 2.06 2.17 2.15 2.06
1.00 1.28 0.98 0.68 0.62 0.62 0.79 0.92 1.06 1.28 0.98 0.61 0.63 0.58 0.45 0.38 0.35 0.34 0.31 0.32 0.38 0.44 0.49 0.51 0.53 0.55 0.58 0.64 0.67 0.71 0.87 1.01 1.14 1.27 1.30 1.35 1.46 1.66 1.79 1.77 1.78 1.91 2.09 2.09
1.48 1.71 1.38 1.04 0.92 0.82 0.99 0.89 0.88 0.97 0.91 0.71 0.63 0.48 0.34 0.29 0.29 0.29 0.30 0.31 0.36 0.42 0.48 0.52 0.50 0.52 0.62 0.65 0.69 0.69 0.78 0.95 1.10 1.23 1.32 1.30 1.43 1.56 1.64 1.67 1.67 1.67 1.82 1.99
1.64 1.69 1.28 1.18 1.08 0.99 0.96 0.78 0.72 0.99 1.17 0.71 0.46 0.37 0.31 0.29 0.29 0.29 0.31 0.32 0.35 0.39 0.44 0.50 0.54 0.54 0.64 0.68 0.66 0.70 0.78 0.91 1.10 1.26 1.39 1.34 1.41 1.53 1.56 1.56 1.59 1.57 1.63 1.78
1.33 1.34 0.69 0.46 0.40 0.51 0.59 0.55 0.58 0.78 0.76 0.66 0.44 0.35 0.38 0.40 0.42 0.41 0.40 0.36 0.33 0.38 0.42 0.47 0.57 0.65 0.66 0.68 0.67 0.71 0.83 0.90 1.07 1.27 1.44 1.45 1.43 1.50 1.54 1.52 1.58 1.59 1.62 1.68
1.10 1.12 0.59 0.37 0.27 0.35 0.43 0.38 0.42 0.48 0.49 0.46 0.37 0.40 0.37 0.38 0.35 0.38 0.40 0.39 0.39 0.41 0.44 0.44 0.51 0.59 0.64 0.67 0.66 0.69 0.81 0.88 0.98 1.16 1.34 1.44 1.43 1.48 1.52 1.47 1.54 1.60 1.62 1.65
1.05 1.05 0.91 0.54 0.27 0.50 0.69 0.51 0.48 0.49 0.50 0.50 0.49 0.47 0.38 0.36 0.37 0.42 0.44 0.45 0.46 0.48 0.47 0.47 0.52 0.56 0.60 0.64 0.63 0.69 0.77 0.82 0.89 1.03 1.22 1.34 1.37 1.40 1.42 1.42 1.49 1.57 1.61 1.57
0.90 1.02 1.25 0.84 0.62 1.02 0.76 0.42 0.43 0.49 0.54 0.53 0.51 0.45 0.42 0.42 0.44 0.44 0.43 0.48 0.51 0.50 0.48 0.50 0.55 0.57 0.57 0.59 0.63 0.66 0.70 0.75 0.80 0.92 1.10 1.30 1.33 1.33 1.32 1.34 1.38 1.45 1.51 1.53
0.57 1.00 1.49 1.21 0.90 0.65 0.42 0.30 0.43 0.54 0.58 0.52 0.44 0.37 0.35 0.35 0.35 0.38 0.38 0.40 0.48 0.49 0.47 0.50 0.56 0.59 0.57 0.56 0.60 0.63 0.68 0.73 0.80 0.94 1.06 1.20 1.31 1.30 1.26 1.30 1.32 1.33 1.34 1.40
0.66 1.07 1.67 1.42 1.08 0.66 0.44 0.23 0.28 0.47 0.65 0.43 0.37 0.35 0.35 0.36 0.45 0.44 0.38 0.35 0.38 0.39 0.41 0.46 0.51 0.53 0.53 0.55 0.57 0.60 0.67 0.72 0.79 0.94 1.06 1.13 1.19 1.23 1.21 1.23 1.26 1.25 1.21 1.23
0.98 1.49 1.65 1.20 0.99 0.50 0.29 0.19 0.24 0.60 0.71 0.38 0.33 0.34 0.36 0.46 0.53 0.44 0.37 0.35 0.36 0.39 0.42 0.44 0.47 0.48 0.52 0.55 0.56 0.59 0.65 0.74 0.78 0.87 0.95 1.03 1.09 1.12 1.08 1.13 1.14 1.16 1.16 1.14
0.75 1.04 1.06 0.99 1.09 0.60 0.26 0.26 0.54 0.66 0.35 0.28 0.26 0.27 0.31 0.34 0.33 0.32 0.34 0.36 0.39 0.42 0.43 0.44 0.45 0.46 0.48 0.52 0.52 0.56 0.65 0.73 0.75 0.76 0.80 0.91 1.00 1.01 0.98 1.06 1.06 1.04 1.08 1.11
0.60 0.83 0.87 0.83 0.73 0.49 0.36 0.43 0.46 0.38 0.32 0.25 0.25 0.24 0.27 0.30 0.32 0.33 0.35 0.37 0.40 0.42 0.43 0.44 0.44 0.42 0.45 0.49 0.50 0.54 0.62 0.66 0.74 0.74 0.77 0.83 0.92 0.98 0.97 1.00 1.01 1.01 1.00 1.01
0.44 0.48 0.62 0.56 0.43 0.36 0.34 0.31 0.27 0.24 0.26 0.24 0.24 0.26 0.27 0.30 0.32 0.34 0.35 0.38 0.42 0.45 0.45 0.45 0.43 0.43 0.48 0.52 0.52 0.55 0.59 0.64 0.71 0.74 0.76 0.80 0.87 0.96 0.96 0.96 0.97 0.98 1.00 1.06
0.37 0.40 0.48 0.46 0.34 0.27 0.23 0.23 0.24 0.22 0.20 0.20 0.21 0.23 0.26 0.28 0.31 0.33 0.36 0.40 0.43 0.46 0.46 0.44 0.40 0.42 0.47 0.50 0.53 0.53 0.56 0.62 0.69 0.72 0.73 0.76 0.80 0.92 0.95 0.97 0.99 1.00 0.97 1.15
0.28 0.36 0.45 0.41 0.31 0.35 0.28 0.23 0.24 0.24 0.23 0.23 0.23 0.24 0.23 0.26 0.30 0.33 0.39 0.41 0.42 0.43 0.42 0.40 0.39 0.41 0.47 0.49 0.52 0.53 0.55 0.60 0.66 0.71 0.74 0.73 0.76 0.88 0.91 0.94 1.00 1.03 1.01 1.05